<?xml version="1.0" encoding="UTF-8" standalone="no" ?>
<gpx xmlns="http://www.topografix.com/GPX/1/1" xmlns:xsi="http://www.w3.org/2001/XMLSchema-instance" xsi:schemaLocation="http://www.topografix.com/GPX/1/1 http://www.topografix.com/GPX/1/1/gpx.xsd" version="1.1" creator="VisuGPX - https://www.visugpx.com">
  <metadata>
    <name>Tour du sommet du Broc - VTT</name>
    <desc><![CDATA[Au départ de Carros Les Plans avec Willy.
Un peu de portage dans le vallon de la Sine]]></desc>
  </metadata>
  <trk>
    <name><![CDATA[53]]></name>
    <trkseg>
      <trkpt lat="43.77869" lon="7.20299">
        <ele>106</ele>
        <time>2010-09-04T07:49:07Z</time>
      </trkpt>
      <trkpt lat="43.77862" lon="7.203">
        <ele>106</ele>
        <time>2010-09-04T07:49:11Z</time>
      </trkpt>
      <trkpt lat="43.77859" lon="7.20301">
        <ele>106</ele>
        <time>2010-09-04T07:49:13Z</time>
      </trkpt>
      <trkpt lat="43.77855" lon="7.20294">
        <ele>106</ele>
        <time>2010-09-04T07:49:17Z</time>
      </trkpt>
      <trkpt lat="43.77859" lon="7.20277">
        <ele>107</ele>
        <time>2010-09-04T07:49:24Z</time>
      </trkpt>
      <trkpt lat="43.77862" lon="7.20264">
        <ele>107</ele>
        <time>2010-09-04T07:49:29Z</time>
      </trkpt>
      <trkpt lat="43.77867" lon="7.20254">
        <ele>107</ele>
        <time>2010-09-04T07:49:34Z</time>
      </trkpt>
      <trkpt lat="43.77876" lon="7.20256">
        <ele>107</ele>
        <time>2010-09-04T07:49:38Z</time>
      </trkpt>
      <trkpt lat="43.77896" lon="7.20267">
        <ele>107</ele>
        <time>2010-09-04T07:49:45Z</time>
      </trkpt>
      <trkpt lat="43.77912" lon="7.20274">
        <ele>107</ele>
        <time>2010-09-04T07:49:51Z</time>
      </trkpt>
      <trkpt lat="43.77922" lon="7.20263">
        <ele>108</ele>
        <time>2010-09-04T07:49:56Z</time>
      </trkpt>
      <trkpt lat="43.77927" lon="7.20246">
        <ele>109</ele>
        <time>2010-09-04T07:50:01Z</time>
      </trkpt>
      <trkpt lat="43.77934" lon="7.20211">
        <ele>110</ele>
        <time>2010-09-04T07:50:10Z</time>
      </trkpt>
      <trkpt lat="43.77937" lon="7.2018">
        <ele>111</ele>
        <time>2010-09-04T07:50:18Z</time>
      </trkpt>
      <trkpt lat="43.77941" lon="7.20162">
        <ele>114</ele>
        <time>2010-09-04T07:50:23Z</time>
      </trkpt>
      <trkpt lat="43.77944" lon="7.2014">
        <ele>114</ele>
        <time>2010-09-04T07:50:30Z</time>
      </trkpt>
      <trkpt lat="43.77946" lon="7.20116">
        <ele>115</ele>
        <time>2010-09-04T07:50:37Z</time>
      </trkpt>
      <trkpt lat="43.7795" lon="7.201">
        <ele>115</ele>
        <time>2010-09-04T07:50:43Z</time>
      </trkpt>
      <trkpt lat="43.7796" lon="7.20089">
        <ele>116</ele>
        <time>2010-09-04T07:50:48Z</time>
      </trkpt>
      <trkpt lat="43.77982" lon="7.20089">
        <ele>116</ele>
        <time>2010-09-04T07:50:56Z</time>
      </trkpt>
      <trkpt lat="43.77998" lon="7.2009">
        <ele>117</ele>
        <time>2010-09-04T07:51:02Z</time>
      </trkpt>
      <trkpt lat="43.78013" lon="7.20083">
        <ele>119</ele>
        <time>2010-09-04T07:51:08Z</time>
      </trkpt>
      <trkpt lat="43.78019" lon="7.20066">
        <ele>120</ele>
        <time>2010-09-04T07:51:14Z</time>
      </trkpt>
      <trkpt lat="43.7802" lon="7.20049">
        <ele>121</ele>
        <time>2010-09-04T07:51:20Z</time>
      </trkpt>
      <trkpt lat="43.78008" lon="7.2004">
        <ele>122</ele>
        <time>2010-09-04T07:51:26Z</time>
      </trkpt>
      <trkpt lat="43.77989" lon="7.20029">
        <ele>123</ele>
        <time>2010-09-04T07:51:34Z</time>
      </trkpt>
      <trkpt lat="43.77973" lon="7.20019">
        <ele>123</ele>
        <time>2010-09-04T07:51:41Z</time>
      </trkpt>
      <trkpt lat="43.77964" lon="7.20007">
        <ele>123</ele>
        <time>2010-09-04T07:51:47Z</time>
      </trkpt>
      <trkpt lat="43.7796" lon="7.19999">
        <ele>128</ele>
        <time>2010-09-04T07:51:50Z</time>
      </trkpt>
      <trkpt lat="43.77951" lon="7.19986">
        <ele>128</ele>
        <time>2010-09-04T07:51:56Z</time>
      </trkpt>
      <trkpt lat="43.77939" lon="7.19975">
        <ele>129</ele>
        <time>2010-09-04T07:52:02Z</time>
      </trkpt>
      <trkpt lat="43.77925" lon="7.19953">
        <ele>130</ele>
        <time>2010-09-04T07:52:10Z</time>
      </trkpt>
      <trkpt lat="43.77927" lon="7.19937">
        <ele>131</ele>
        <time>2010-09-04T07:52:14Z</time>
      </trkpt>
      <trkpt lat="43.77935" lon="7.1991">
        <ele>133</ele>
        <time>2010-09-04T07:52:22Z</time>
      </trkpt>
      <trkpt lat="43.77935" lon="7.19904">
        <ele>133</ele>
        <time>2010-09-04T07:52:24Z</time>
      </trkpt>
      <trkpt lat="43.77926" lon="7.19893">
        <ele>134</ele>
        <time>2010-09-04T07:52:28Z</time>
      </trkpt>
      <trkpt lat="43.77907" lon="7.19874">
        <ele>133</ele>
        <time>2010-09-04T07:52:36Z</time>
      </trkpt>
      <trkpt lat="43.77912" lon="7.19853">
        <ele>133</ele>
        <time>2010-09-04T07:52:42Z</time>
      </trkpt>
      <trkpt lat="43.7792" lon="7.19831">
        <ele>136</ele>
        <time>2010-09-04T07:52:49Z</time>
      </trkpt>
      <trkpt lat="43.77929" lon="7.19807">
        <ele>138</ele>
        <time>2010-09-04T07:52:57Z</time>
      </trkpt>
      <trkpt lat="43.77937" lon="7.19785">
        <ele>139</ele>
        <time>2010-09-04T07:53:05Z</time>
      </trkpt>
      <trkpt lat="43.77942" lon="7.19762">
        <ele>140</ele>
        <time>2010-09-04T07:53:13Z</time>
      </trkpt>
      <trkpt lat="43.77945" lon="7.19743">
        <ele>147</ele>
        <time>2010-09-04T07:53:20Z</time>
      </trkpt>
      <trkpt lat="43.7795" lon="7.19724">
        <ele>149</ele>
        <time>2010-09-04T07:53:28Z</time>
      </trkpt>
      <trkpt lat="43.77955" lon="7.19716">
        <ele>150</ele>
        <time>2010-09-04T07:53:32Z</time>
      </trkpt>
      <trkpt lat="43.77963" lon="7.19715">
        <ele>150</ele>
        <time>2010-09-04T07:53:36Z</time>
      </trkpt>
      <trkpt lat="43.77981" lon="7.19706">
        <ele>152</ele>
        <time>2010-09-04T07:53:44Z</time>
      </trkpt>
      <trkpt lat="43.77993" lon="7.19697">
        <ele>153</ele>
        <time>2010-09-04T07:53:51Z</time>
      </trkpt>
      <trkpt lat="43.77998" lon="7.19687">
        <ele>155</ele>
        <time>2010-09-04T07:53:55Z</time>
      </trkpt>
      <trkpt lat="43.77992" lon="7.19683">
        <ele>156</ele>
        <time>2010-09-04T07:54:00Z</time>
      </trkpt>
      <trkpt lat="43.77974" lon="7.19688">
        <ele>153</ele>
        <time>2010-09-04T07:54:10Z</time>
      </trkpt>
      <trkpt lat="43.77965" lon="7.19687">
        <ele>153</ele>
        <time>2010-09-04T07:54:15Z</time>
      </trkpt>
      <trkpt lat="43.77954" lon="7.19679">
        <ele>153</ele>
        <time>2010-09-04T07:54:21Z</time>
      </trkpt>
      <trkpt lat="43.77937" lon="7.19669">
        <ele>153</ele>
        <time>2010-09-04T07:54:29Z</time>
      </trkpt>
      <trkpt lat="43.77925" lon="7.19656">
        <ele>160</ele>
        <time>2010-09-04T07:54:36Z</time>
      </trkpt>
      <trkpt lat="43.77921" lon="7.19647">
        <ele>161</ele>
        <time>2010-09-04T07:54:40Z</time>
      </trkpt>
      <trkpt lat="43.7792" lon="7.19642">
        <ele>162</ele>
        <time>2010-09-04T07:54:55Z</time>
      </trkpt>
      <trkpt lat="43.7792" lon="7.19629">
        <ele>164</ele>
        <time>2010-09-04T07:55:00Z</time>
      </trkpt>
      <trkpt lat="43.77926" lon="7.19613">
        <ele>165</ele>
        <time>2010-09-04T07:55:06Z</time>
      </trkpt>
      <trkpt lat="43.77932" lon="7.19596">
        <ele>167</ele>
        <time>2010-09-04T07:55:13Z</time>
      </trkpt>
      <trkpt lat="43.77939" lon="7.1958">
        <ele>175</ele>
        <time>2010-09-04T07:55:20Z</time>
      </trkpt>
      <trkpt lat="43.77944" lon="7.19563">
        <ele>177</ele>
        <time>2010-09-04T07:55:26Z</time>
      </trkpt>
      <trkpt lat="43.77948" lon="7.19541">
        <ele>180</ele>
        <time>2010-09-04T07:55:34Z</time>
      </trkpt>
      <trkpt lat="43.77948" lon="7.19525">
        <ele>181</ele>
        <time>2010-09-04T07:55:40Z</time>
      </trkpt>
      <trkpt lat="43.7794" lon="7.19515">
        <ele>181</ele>
        <time>2010-09-04T07:55:45Z</time>
      </trkpt>
      <trkpt lat="43.77927" lon="7.19507">
        <ele>180</ele>
        <time>2010-09-04T07:55:52Z</time>
      </trkpt>
      <trkpt lat="43.77921" lon="7.19501">
        <ele>180</ele>
        <time>2010-09-04T07:55:56Z</time>
      </trkpt>
      <trkpt lat="43.77924" lon="7.19494">
        <ele>185</ele>
        <time>2010-09-04T07:56:00Z</time>
      </trkpt>
      <trkpt lat="43.7793" lon="7.19494">
        <ele>187</ele>
        <time>2010-09-04T07:56:03Z</time>
      </trkpt>
      <trkpt lat="43.77944" lon="7.19494">
        <ele>190</ele>
        <time>2010-09-04T07:56:10Z</time>
      </trkpt>
      <trkpt lat="43.77952" lon="7.19495">
        <ele>191</ele>
        <time>2010-09-04T07:56:15Z</time>
      </trkpt>
      <trkpt lat="43.77966" lon="7.19509">
        <ele>184</ele>
        <time>2010-09-04T07:56:24Z</time>
      </trkpt>
      <trkpt lat="43.77976" lon="7.1953">
        <ele>184</ele>
        <time>2010-09-04T07:56:33Z</time>
      </trkpt>
      <trkpt lat="43.77983" lon="7.19541">
        <ele>183</ele>
        <time>2010-09-04T07:56:38Z</time>
      </trkpt>
      <trkpt lat="43.77993" lon="7.19541">
        <ele>183</ele>
        <time>2010-09-04T07:56:43Z</time>
      </trkpt>
      <trkpt lat="43.78003" lon="7.19531">
        <ele>189</ele>
        <time>2010-09-04T07:56:49Z</time>
      </trkpt>
      <trkpt lat="43.78014" lon="7.19518">
        <ele>190</ele>
        <time>2010-09-04T07:56:57Z</time>
      </trkpt>
      <trkpt lat="43.78022" lon="7.19509">
        <ele>190</ele>
        <time>2010-09-04T07:57:02Z</time>
      </trkpt>
      <trkpt lat="43.78026" lon="7.19503">
        <ele>190</ele>
        <time>2010-09-04T07:57:05Z</time>
      </trkpt>
      <trkpt lat="43.7804" lon="7.19489">
        <ele>198</ele>
        <time>2010-09-04T07:57:14Z</time>
      </trkpt>
      <trkpt lat="43.78049" lon="7.19477">
        <ele>198</ele>
        <time>2010-09-04T07:57:20Z</time>
      </trkpt>
      <trkpt lat="43.78059" lon="7.19462">
        <ele>199</ele>
        <time>2010-09-04T07:57:27Z</time>
      </trkpt>
      <trkpt lat="43.78067" lon="7.19446">
        <ele>200</ele>
        <time>2010-09-04T07:57:34Z</time>
      </trkpt>
      <trkpt lat="43.78075" lon="7.19421">
        <ele>203</ele>
        <time>2010-09-04T07:57:43Z</time>
      </trkpt>
      <trkpt lat="43.78081" lon="7.19401">
        <ele>208</ele>
        <time>2010-09-04T07:57:50Z</time>
      </trkpt>
      <trkpt lat="43.78085" lon="7.19382">
        <ele>212</ele>
        <time>2010-09-04T07:57:57Z</time>
      </trkpt>
      <trkpt lat="43.78086" lon="7.19374">
        <ele>213</ele>
        <time>2010-09-04T07:58:00Z</time>
      </trkpt>
      <trkpt lat="43.78091" lon="7.19355">
        <ele>215</ele>
        <time>2010-09-04T07:58:07Z</time>
      </trkpt>
      <trkpt lat="43.78095" lon="7.19341">
        <ele>216</ele>
        <time>2010-09-04T07:58:13Z</time>
      </trkpt>
      <trkpt lat="43.78099" lon="7.19318">
        <ele>220</ele>
        <time>2010-09-04T07:58:21Z</time>
      </trkpt>
      <trkpt lat="43.78105" lon="7.19301">
        <ele>220</ele>
        <time>2010-09-04T07:58:28Z</time>
      </trkpt>
      <trkpt lat="43.78112" lon="7.19285">
        <ele>220</ele>
        <time>2010-09-04T07:58:35Z</time>
      </trkpt>
      <trkpt lat="43.78121" lon="7.19267">
        <ele>221</ele>
        <time>2010-09-04T07:58:42Z</time>
      </trkpt>
      <trkpt lat="43.78128" lon="7.19249">
        <ele>216</ele>
        <time>2010-09-04T07:58:49Z</time>
      </trkpt>
      <trkpt lat="43.78135" lon="7.19236">
        <ele>216</ele>
        <time>2010-09-04T07:58:55Z</time>
      </trkpt>
      <trkpt lat="43.78137" lon="7.19233">
        <ele>216</ele>
        <time>2010-09-04T07:58:57Z</time>
      </trkpt>
      <trkpt lat="43.78141" lon="7.19233">
        <ele>217</ele>
        <time>2010-09-04T07:59:02Z</time>
      </trkpt>
      <trkpt lat="43.78139" lon="7.19231">
        <ele>217</ele>
        <time>2010-09-04T07:59:14Z</time>
      </trkpt>
      <trkpt lat="43.78141" lon="7.19227">
        <ele>216</ele>
        <time>2010-09-04T07:59:26Z</time>
      </trkpt>
      <trkpt lat="43.78142" lon="7.19228">
        <ele>216</ele>
        <time>2010-09-04T07:59:34Z</time>
      </trkpt>
      <trkpt lat="43.78142" lon="7.19229">
        <ele>217</ele>
        <time>2010-09-04T07:59:41Z</time>
      </trkpt>
      <trkpt lat="43.78144" lon="7.19228">
        <ele>217</ele>
        <time>2010-09-04T07:59:48Z</time>
      </trkpt>
      <trkpt lat="43.7815" lon="7.19225">
        <ele>217</ele>
        <time>2010-09-04T07:59:53Z</time>
      </trkpt>
      <trkpt lat="43.78158" lon="7.19222">
        <ele>217</ele>
        <time>2010-09-04T07:59:58Z</time>
      </trkpt>
      <trkpt lat="43.78167" lon="7.19217">
        <ele>225</ele>
        <time>2010-09-04T08:00:04Z</time>
      </trkpt>
      <trkpt lat="43.7818" lon="7.19209">
        <ele>224</ele>
        <time>2010-09-04T08:00:12Z</time>
      </trkpt>
      <trkpt lat="43.78188" lon="7.19205">
        <ele>224</ele>
        <time>2010-09-04T08:00:17Z</time>
      </trkpt>
      <trkpt lat="43.78202" lon="7.19201">
        <ele>225</ele>
        <time>2010-09-04T08:00:25Z</time>
      </trkpt>
      <trkpt lat="43.78214" lon="7.192">
        <ele>226</ele>
        <time>2010-09-04T08:00:32Z</time>
      </trkpt>
      <trkpt lat="43.78227" lon="7.192">
        <ele>227</ele>
        <time>2010-09-04T08:00:39Z</time>
      </trkpt>
      <trkpt lat="43.7824" lon="7.19199">
        <ele>228</ele>
        <time>2010-09-04T08:00:46Z</time>
      </trkpt>
      <trkpt lat="43.78255" lon="7.19197">
        <ele>237</ele>
        <time>2010-09-04T08:00:54Z</time>
      </trkpt>
      <trkpt lat="43.78268" lon="7.19195">
        <ele>237</ele>
        <time>2010-09-04T08:01:01Z</time>
      </trkpt>
      <trkpt lat="43.78279" lon="7.19192">
        <ele>238</ele>
        <time>2010-09-04T08:01:08Z</time>
      </trkpt>
      <trkpt lat="43.7829" lon="7.1919">
        <ele>239</ele>
        <time>2010-09-04T08:01:14Z</time>
      </trkpt>
      <trkpt lat="43.78304" lon="7.19186">
        <ele>240</ele>
        <time>2010-09-04T08:01:21Z</time>
      </trkpt>
      <trkpt lat="43.78315" lon="7.19182">
        <ele>241</ele>
        <time>2010-09-04T08:01:27Z</time>
      </trkpt>
      <trkpt lat="43.78329" lon="7.19176">
        <ele>242</ele>
        <time>2010-09-04T08:01:34Z</time>
      </trkpt>
      <trkpt lat="43.78347" lon="7.1917">
        <ele>244</ele>
        <time>2010-09-04T08:01:42Z</time>
      </trkpt>
      <trkpt lat="43.78362" lon="7.19175">
        <ele>246</ele>
        <time>2010-09-04T08:01:48Z</time>
      </trkpt>
      <trkpt lat="43.78376" lon="7.19182">
        <ele>246</ele>
        <time>2010-09-04T08:01:54Z</time>
      </trkpt>
      <trkpt lat="43.78391" lon="7.19187">
        <ele>247</ele>
        <time>2010-09-04T08:02:01Z</time>
      </trkpt>
      <trkpt lat="43.78407" lon="7.19187">
        <ele>247</ele>
        <time>2010-09-04T08:02:08Z</time>
      </trkpt>
      <trkpt lat="43.78428" lon="7.19179">
        <ele>247</ele>
        <time>2010-09-04T08:02:18Z</time>
      </trkpt>
      <trkpt lat="43.78444" lon="7.19171">
        <ele>247</ele>
        <time>2010-09-04T08:02:26Z</time>
      </trkpt>
      <trkpt lat="43.78457" lon="7.19165">
        <ele>248</ele>
        <time>2010-09-04T08:02:32Z</time>
      </trkpt>
      <trkpt lat="43.78472" lon="7.19157">
        <ele>249</ele>
        <time>2010-09-04T08:02:39Z</time>
      </trkpt>
      <trkpt lat="43.7849" lon="7.19145">
        <ele>249</ele>
        <time>2010-09-04T08:02:46Z</time>
      </trkpt>
      <trkpt lat="43.78515" lon="7.19131">
        <ele>253</ele>
        <time>2010-09-04T08:02:54Z</time>
      </trkpt>
      <trkpt lat="43.78539" lon="7.1912">
        <ele>253</ele>
        <time>2010-09-04T08:03:01Z</time>
      </trkpt>
      <trkpt lat="43.78564" lon="7.19111">
        <ele>254</ele>
        <time>2010-09-04T08:03:08Z</time>
      </trkpt>
      <trkpt lat="43.78593" lon="7.19103">
        <ele>258</ele>
        <time>2010-09-04T08:03:16Z</time>
      </trkpt>
      <trkpt lat="43.7862" lon="7.19097">
        <ele>259</ele>
        <time>2010-09-04T08:03:24Z</time>
      </trkpt>
      <trkpt lat="43.78638" lon="7.19092">
        <ele>260</ele>
        <time>2010-09-04T08:03:30Z</time>
      </trkpt>
      <trkpt lat="43.78659" lon="7.19088">
        <ele>261</ele>
        <time>2010-09-04T08:03:37Z</time>
      </trkpt>
      <trkpt lat="43.7868" lon="7.19082">
        <ele>264</ele>
        <time>2010-09-04T08:03:45Z</time>
      </trkpt>
      <trkpt lat="43.78699" lon="7.19075">
        <ele>267</ele>
        <time>2010-09-04T08:03:52Z</time>
      </trkpt>
      <trkpt lat="43.78718" lon="7.19062">
        <ele>269</ele>
        <time>2010-09-04T08:04:00Z</time>
      </trkpt>
      <trkpt lat="43.7873" lon="7.19048">
        <ele>269</ele>
        <time>2010-09-04T08:04:06Z</time>
      </trkpt>
      <trkpt lat="43.78735" lon="7.19029">
        <ele>270</ele>
        <time>2010-09-04T08:04:12Z</time>
      </trkpt>
      <trkpt lat="43.78739" lon="7.1901">
        <ele>272</ele>
        <time>2010-09-04T08:04:18Z</time>
      </trkpt>
      <trkpt lat="43.78745" lon="7.18993">
        <ele>271</ele>
        <time>2010-09-04T08:04:25Z</time>
      </trkpt>
      <trkpt lat="43.78755" lon="7.18987">
        <ele>275</ele>
        <time>2010-09-04T08:04:31Z</time>
      </trkpt>
      <trkpt lat="43.78763" lon="7.18985">
        <ele>275</ele>
        <time>2010-09-04T08:04:35Z</time>
      </trkpt>
      <trkpt lat="43.78775" lon="7.18985">
        <ele>275</ele>
        <time>2010-09-04T08:04:40Z</time>
      </trkpt>
      <trkpt lat="43.78787" lon="7.18981">
        <ele>275</ele>
        <time>2010-09-04T08:04:46Z</time>
      </trkpt>
      <trkpt lat="43.78803" lon="7.18978">
        <ele>275</ele>
        <time>2010-09-04T08:04:53Z</time>
      </trkpt>
      <trkpt lat="43.78819" lon="7.18973">
        <ele>275</ele>
        <time>2010-09-04T08:05:00Z</time>
      </trkpt>
      <trkpt lat="43.78835" lon="7.18965">
        <ele>276</ele>
        <time>2010-09-04T08:05:08Z</time>
      </trkpt>
      <trkpt lat="43.78849" lon="7.18955">
        <ele>275</ele>
        <time>2010-09-04T08:05:13Z</time>
      </trkpt>
      <trkpt lat="43.7887" lon="7.18939">
        <ele>275</ele>
        <time>2010-09-04T08:05:20Z</time>
      </trkpt>
      <trkpt lat="43.78894" lon="7.18924">
        <ele>276</ele>
        <time>2010-09-04T08:05:27Z</time>
      </trkpt>
      <trkpt lat="43.78925" lon="7.18911">
        <ele>280</ele>
        <time>2010-09-04T08:05:35Z</time>
      </trkpt>
      <trkpt lat="43.78944" lon="7.18895">
        <ele>283</ele>
        <time>2010-09-04T08:05:41Z</time>
      </trkpt>
      <trkpt lat="43.78958" lon="7.18876">
        <ele>284</ele>
        <time>2010-09-04T08:05:47Z</time>
      </trkpt>
      <trkpt lat="43.78968" lon="7.18862">
        <ele>285</ele>
        <time>2010-09-04T08:05:53Z</time>
      </trkpt>
      <trkpt lat="43.7898" lon="7.18849">
        <ele>287</ele>
        <time>2010-09-04T08:06:00Z</time>
      </trkpt>
      <trkpt lat="43.78992" lon="7.18843">
        <ele>289</ele>
        <time>2010-09-04T08:06:08Z</time>
      </trkpt>
      <trkpt lat="43.79001" lon="7.18849">
        <ele>296</ele>
        <time>2010-09-04T08:06:14Z</time>
      </trkpt>
      <trkpt lat="43.79008" lon="7.1886">
        <ele>297</ele>
        <time>2010-09-04T08:06:21Z</time>
      </trkpt>
      <trkpt lat="43.79012" lon="7.18857">
        <ele>297</ele>
        <time>2010-09-04T08:06:26Z</time>
      </trkpt>
      <trkpt lat="43.79012" lon="7.18855">
        <ele>297</ele>
        <time>2010-09-04T08:06:27Z</time>
      </trkpt>
      <trkpt lat="43.79012" lon="7.18838">
        <ele>296</ele>
        <time>2010-09-04T08:06:34Z</time>
      </trkpt>
      <trkpt lat="43.79012" lon="7.18836">
        <ele>296</ele>
        <time>2010-09-04T08:06:35Z</time>
      </trkpt>
      <trkpt lat="43.79009" lon="7.18829">
        <ele>298</ele>
        <time>2010-09-04T08:06:39Z</time>
      </trkpt>
      <trkpt lat="43.79011" lon="7.18817">
        <ele>302</ele>
        <time>2010-09-04T08:06:45Z</time>
      </trkpt>
      <trkpt lat="43.79021" lon="7.18807">
        <ele>306</ele>
        <time>2010-09-04T08:06:53Z</time>
      </trkpt>
      <trkpt lat="43.79028" lon="7.18797">
        <ele>308</ele>
        <time>2010-09-04T08:07:00Z</time>
      </trkpt>
      <trkpt lat="43.79037" lon="7.18785">
        <ele>310</ele>
        <time>2010-09-04T08:07:08Z</time>
      </trkpt>
      <trkpt lat="43.79043" lon="7.18771">
        <ele>311</ele>
        <time>2010-09-04T08:07:16Z</time>
      </trkpt>
      <trkpt lat="43.79049" lon="7.18763">
        <ele>313</ele>
        <time>2010-09-04T08:07:21Z</time>
      </trkpt>
      <trkpt lat="43.79055" lon="7.18755">
        <ele>314</ele>
        <time>2010-09-04T08:07:27Z</time>
      </trkpt>
      <trkpt lat="43.7906" lon="7.18746">
        <ele>321</ele>
        <time>2010-09-04T08:07:33Z</time>
      </trkpt>
      <trkpt lat="43.79066" lon="7.18733">
        <ele>321</ele>
        <time>2010-09-04T08:07:41Z</time>
      </trkpt>
      <trkpt lat="43.79074" lon="7.18719">
        <ele>322</ele>
        <time>2010-09-04T08:07:50Z</time>
      </trkpt>
      <trkpt lat="43.7908" lon="7.18705">
        <ele>323</ele>
        <time>2010-09-04T08:07:59Z</time>
      </trkpt>
      <trkpt lat="43.79083" lon="7.18694">
        <ele>324</ele>
        <time>2010-09-04T08:08:06Z</time>
      </trkpt>
      <trkpt lat="43.79084" lon="7.18682">
        <ele>336</ele>
        <time>2010-09-04T08:08:13Z</time>
      </trkpt>
      <trkpt lat="43.79088" lon="7.18672">
        <ele>333</ele>
        <time>2010-09-04T08:08:20Z</time>
      </trkpt>
      <trkpt lat="43.79089" lon="7.18657">
        <ele>336</ele>
        <time>2010-09-04T08:08:29Z</time>
      </trkpt>
      <trkpt lat="43.7909" lon="7.18654">
        <ele>337</ele>
        <time>2010-09-04T08:08:31Z</time>
      </trkpt>
      <trkpt lat="43.79091" lon="7.18649">
        <ele>339</ele>
        <time>2010-09-04T08:08:35Z</time>
      </trkpt>
      <trkpt lat="43.79094" lon="7.18636">
        <ele>342</ele>
        <time>2010-09-04T08:08:43Z</time>
      </trkpt>
      <trkpt lat="43.79094" lon="7.18634">
        <ele>342</ele>
        <time>2010-09-04T08:08:44Z</time>
      </trkpt>
      <trkpt lat="43.79096" lon="7.18626">
        <ele>343</ele>
        <time>2010-09-04T08:08:49Z</time>
      </trkpt>
      <trkpt lat="43.791" lon="7.18617">
        <ele>344</ele>
        <time>2010-09-04T08:08:56Z</time>
      </trkpt>
      <trkpt lat="43.79101" lon="7.18616">
        <ele>344</ele>
        <time>2010-09-04T08:08:57Z</time>
      </trkpt>
      <trkpt lat="43.79103" lon="7.18602">
        <ele>344</ele>
        <time>2010-09-04T08:09:05Z</time>
      </trkpt>
      <trkpt lat="43.79105" lon="7.18589">
        <ele>344</ele>
        <time>2010-09-04T08:09:12Z</time>
      </trkpt>
      <trkpt lat="43.79111" lon="7.18573">
        <ele>349</ele>
        <time>2010-09-04T08:09:21Z</time>
      </trkpt>
      <trkpt lat="43.79118" lon="7.18565">
        <ele>351</ele>
        <time>2010-09-04T08:09:28Z</time>
      </trkpt>
      <trkpt lat="43.79125" lon="7.18557">
        <ele>352</ele>
        <time>2010-09-04T08:09:35Z</time>
      </trkpt>
      <trkpt lat="43.79133" lon="7.1855">
        <ele>353</ele>
        <time>2010-09-04T08:09:42Z</time>
      </trkpt>
      <trkpt lat="43.79139" lon="7.18539">
        <ele>354</ele>
        <time>2010-09-04T08:09:49Z</time>
      </trkpt>
      <trkpt lat="43.79139" lon="7.18537">
        <ele>354</ele>
        <time>2010-09-04T08:09:50Z</time>
      </trkpt>
      <trkpt lat="43.79133" lon="7.18531">
        <ele>354</ele>
        <time>2010-09-04T08:09:55Z</time>
      </trkpt>
      <trkpt lat="43.79129" lon="7.18524">
        <ele>354</ele>
        <time>2010-09-04T08:10:00Z</time>
      </trkpt>
      <trkpt lat="43.79117" lon="7.18516">
        <ele>354</ele>
        <time>2010-09-04T08:10:06Z</time>
      </trkpt>
      <trkpt lat="43.79093" lon="7.18502">
        <ele>354</ele>
        <time>2010-09-04T08:10:13Z</time>
      </trkpt>
      <trkpt lat="43.79076" lon="7.18493">
        <ele>357</ele>
        <time>2010-09-04T08:10:17Z</time>
      </trkpt>
      <trkpt lat="43.79053" lon="7.18493">
        <ele>359</ele>
        <time>2010-09-04T08:10:22Z</time>
      </trkpt>
      <trkpt lat="43.7904" lon="7.18502">
        <ele>349</ele>
        <time>2010-09-04T08:10:25Z</time>
      </trkpt>
      <trkpt lat="43.79007" lon="7.18533">
        <ele>348</ele>
        <time>2010-09-04T08:10:32Z</time>
      </trkpt>
      <trkpt lat="43.78996" lon="7.1854">
        <ele>344</ele>
        <time>2010-09-04T08:10:34Z</time>
      </trkpt>
      <trkpt lat="43.78972" lon="7.18542">
        <ele>343</ele>
        <time>2010-09-04T08:10:38Z</time>
      </trkpt>
      <trkpt lat="43.78966" lon="7.1854">
        <ele>343</ele>
        <time>2010-09-04T08:10:39Z</time>
      </trkpt>
      <trkpt lat="43.78922" lon="7.18518">
        <ele>343</ele>
        <time>2010-09-04T08:10:47Z</time>
      </trkpt>
      <trkpt lat="43.78922" lon="7.18507">
        <ele>343</ele>
        <time>2010-09-04T08:10:51Z</time>
      </trkpt>
      <trkpt lat="43.78929" lon="7.1851">
        <ele>343</ele>
        <time>2010-09-04T08:10:53Z</time>
      </trkpt>
      <trkpt lat="43.78954" lon="7.18522">
        <ele>344</ele>
        <time>2010-09-04T08:11:02Z</time>
      </trkpt>
      <trkpt lat="43.78973" lon="7.18522">
        <ele>345</ele>
        <time>2010-09-04T08:11:09Z</time>
      </trkpt>
      <trkpt lat="43.78991" lon="7.18518">
        <ele>347</ele>
        <time>2010-09-04T08:11:16Z</time>
      </trkpt>
      <trkpt lat="43.79008" lon="7.18511">
        <ele>351</ele>
        <time>2010-09-04T08:11:22Z</time>
      </trkpt>
      <trkpt lat="43.79024" lon="7.18499">
        <ele>359</ele>
        <time>2010-09-04T08:11:29Z</time>
      </trkpt>
      <trkpt lat="43.79043" lon="7.18479">
        <ele>361</ele>
        <time>2010-09-04T08:11:37Z</time>
      </trkpt>
      <trkpt lat="43.79061" lon="7.18468">
        <ele>362</ele>
        <time>2010-09-04T08:11:44Z</time>
      </trkpt>
      <trkpt lat="43.79079" lon="7.18465">
        <ele>362</ele>
        <time>2010-09-04T08:11:50Z</time>
      </trkpt>
      <trkpt lat="43.79095" lon="7.1847">
        <ele>364</ele>
        <time>2010-09-04T08:11:56Z</time>
      </trkpt>
      <trkpt lat="43.79117" lon="7.18481">
        <ele>364</ele>
        <time>2010-09-04T08:12:04Z</time>
      </trkpt>
      <trkpt lat="43.7913" lon="7.18485">
        <ele>365</ele>
        <time>2010-09-04T08:12:08Z</time>
      </trkpt>
      <trkpt lat="43.79152" lon="7.18485">
        <ele>365</ele>
        <time>2010-09-04T08:12:16Z</time>
      </trkpt>
      <trkpt lat="43.79172" lon="7.18481">
        <ele>368</ele>
        <time>2010-09-04T08:12:23Z</time>
      </trkpt>
      <trkpt lat="43.79192" lon="7.18489">
        <ele>369</ele>
        <time>2010-09-04T08:12:30Z</time>
      </trkpt>
      <trkpt lat="43.792" lon="7.18507">
        <ele>363</ele>
        <time>2010-09-04T08:12:35Z</time>
      </trkpt>
      <trkpt lat="43.79205" lon="7.18534">
        <ele>362</ele>
        <time>2010-09-04T08:12:42Z</time>
      </trkpt>
      <trkpt lat="43.79213" lon="7.18549">
        <ele>363</ele>
        <time>2010-09-04T08:12:47Z</time>
      </trkpt>
      <trkpt lat="43.79226" lon="7.18556">
        <ele>363</ele>
        <time>2010-09-04T08:12:52Z</time>
      </trkpt>
      <trkpt lat="43.79232" lon="7.18554">
        <ele>364</ele>
        <time>2010-09-04T08:12:54Z</time>
      </trkpt>
      <trkpt lat="43.79242" lon="7.1853">
        <ele>364</ele>
        <time>2010-09-04T08:13:00Z</time>
      </trkpt>
      <trkpt lat="43.7925" lon="7.18506">
        <ele>365</ele>
        <time>2010-09-04T08:13:06Z</time>
      </trkpt>
      <trkpt lat="43.79251" lon="7.18486">
        <ele>368</ele>
        <time>2010-09-04T08:13:11Z</time>
      </trkpt>
      <trkpt lat="43.79248" lon="7.18471">
        <ele>371</ele>
        <time>2010-09-04T08:13:16Z</time>
      </trkpt>
      <trkpt lat="43.79246" lon="7.18456">
        <ele>374</ele>
        <time>2010-09-04T08:13:21Z</time>
      </trkpt>
      <trkpt lat="43.79253" lon="7.18443">
        <ele>374</ele>
        <time>2010-09-04T08:13:27Z</time>
      </trkpt>
      <trkpt lat="43.79263" lon="7.18432">
        <ele>375</ele>
        <time>2010-09-04T08:13:34Z</time>
      </trkpt>
      <trkpt lat="43.79269" lon="7.18419">
        <ele>376</ele>
        <time>2010-09-04T08:13:40Z</time>
      </trkpt>
      <trkpt lat="43.79273" lon="7.18412">
        <ele>387</ele>
        <time>2010-09-04T08:13:44Z</time>
      </trkpt>
      <trkpt lat="43.79281" lon="7.18397">
        <ele>388</ele>
        <time>2010-09-04T08:13:51Z</time>
      </trkpt>
      <trkpt lat="43.79292" lon="7.18387">
        <ele>389</ele>
        <time>2010-09-04T08:13:58Z</time>
      </trkpt>
      <trkpt lat="43.79307" lon="7.18378">
        <ele>390</ele>
        <time>2010-09-04T08:14:07Z</time>
      </trkpt>
      <trkpt lat="43.79321" lon="7.18371">
        <ele>391</ele>
        <time>2010-09-04T08:14:14Z</time>
      </trkpt>
      <trkpt lat="43.79332" lon="7.18365">
        <ele>392</ele>
        <time>2010-09-04T08:14:20Z</time>
      </trkpt>
      <trkpt lat="43.79348" lon="7.18354">
        <ele>389</ele>
        <time>2010-09-04T08:14:29Z</time>
      </trkpt>
      <trkpt lat="43.79362" lon="7.18346">
        <ele>388</ele>
        <time>2010-09-04T08:14:36Z</time>
      </trkpt>
      <trkpt lat="43.79377" lon="7.18338">
        <ele>386</ele>
        <time>2010-09-04T08:14:43Z</time>
      </trkpt>
      <trkpt lat="43.7939" lon="7.18323">
        <ele>400</ele>
        <time>2010-09-04T08:14:50Z</time>
      </trkpt>
      <trkpt lat="43.79401" lon="7.18309">
        <ele>400</ele>
        <time>2010-09-04T08:14:56Z</time>
      </trkpt>
      <trkpt lat="43.79416" lon="7.18292">
        <ele>403</ele>
        <time>2010-09-04T08:15:04Z</time>
      </trkpt>
      <trkpt lat="43.79428" lon="7.18279">
        <ele>397</ele>
        <time>2010-09-04T08:15:11Z</time>
      </trkpt>
      <trkpt lat="43.79447" lon="7.1826">
        <ele>397</ele>
        <time>2010-09-04T08:15:21Z</time>
      </trkpt>
      <trkpt lat="43.7946" lon="7.18245">
        <ele>409</ele>
        <time>2010-09-04T08:15:29Z</time>
      </trkpt>
      <trkpt lat="43.79473" lon="7.18233">
        <ele>409</ele>
        <time>2010-09-04T08:15:35Z</time>
      </trkpt>
      <trkpt lat="43.79492" lon="7.18219">
        <ele>409</ele>
        <time>2010-09-04T08:15:43Z</time>
      </trkpt>
      <trkpt lat="43.79512" lon="7.18205">
        <ele>405</ele>
        <time>2010-09-04T08:15:52Z</time>
      </trkpt>
      <trkpt lat="43.79529" lon="7.18192">
        <ele>407</ele>
        <time>2010-09-04T08:16:00Z</time>
      </trkpt>
      <trkpt lat="43.79553" lon="7.18175">
        <ele>407</ele>
        <time>2010-09-04T08:16:10Z</time>
      </trkpt>
      <trkpt lat="43.7957" lon="7.18162">
        <ele>419</ele>
        <time>2010-09-04T08:16:17Z</time>
      </trkpt>
      <trkpt lat="43.79591" lon="7.18148">
        <ele>423</ele>
        <time>2010-09-04T08:16:26Z</time>
      </trkpt>
      <trkpt lat="43.79612" lon="7.18147">
        <ele>426</ele>
        <time>2010-09-04T08:16:34Z</time>
      </trkpt>
      <trkpt lat="43.79635" lon="7.1815">
        <ele>427</ele>
        <time>2010-09-04T08:16:43Z</time>
      </trkpt>
      <trkpt lat="43.79648" lon="7.18152">
        <ele>426</ele>
        <time>2010-09-04T08:16:48Z</time>
      </trkpt>
      <trkpt lat="43.79668" lon="7.18158">
        <ele>424</ele>
        <time>2010-09-04T08:16:56Z</time>
      </trkpt>
      <trkpt lat="43.79688" lon="7.18165">
        <ele>428</ele>
        <time>2010-09-04T08:17:04Z</time>
      </trkpt>
      <trkpt lat="43.7971" lon="7.18173">
        <ele>419</ele>
        <time>2010-09-04T08:17:13Z</time>
      </trkpt>
      <trkpt lat="43.79733" lon="7.18176">
        <ele>422</ele>
        <time>2010-09-04T08:17:22Z</time>
      </trkpt>
      <trkpt lat="43.79749" lon="7.18171">
        <ele>426</ele>
        <time>2010-09-04T08:17:28Z</time>
      </trkpt>
      <trkpt lat="43.79764" lon="7.18152">
        <ele>431</ele>
        <time>2010-09-04T08:17:36Z</time>
      </trkpt>
      <trkpt lat="43.79771" lon="7.18129">
        <ele>434</ele>
        <time>2010-09-04T08:17:43Z</time>
      </trkpt>
      <trkpt lat="43.79771" lon="7.18101">
        <ele>437</ele>
        <time>2010-09-04T08:17:51Z</time>
      </trkpt>
      <trkpt lat="43.79773" lon="7.18077">
        <ele>448</ele>
        <time>2010-09-04T08:17:58Z</time>
      </trkpt>
      <trkpt lat="43.7978" lon="7.18068">
        <ele>449</ele>
        <time>2010-09-04T08:18:02Z</time>
      </trkpt>
      <trkpt lat="43.79794" lon="7.18072">
        <ele>449</ele>
        <time>2010-09-04T08:18:08Z</time>
      </trkpt>
      <trkpt lat="43.79816" lon="7.18079">
        <ele>446</ele>
        <time>2010-09-04T08:18:16Z</time>
      </trkpt>
      <trkpt lat="43.79834" lon="7.18081">
        <ele>442</ele>
        <time>2010-09-04T08:18:23Z</time>
      </trkpt>
      <trkpt lat="43.79847" lon="7.18086">
        <ele>439</ele>
        <time>2010-09-04T08:18:29Z</time>
      </trkpt>
      <trkpt lat="43.7986" lon="7.18099">
        <ele>439</ele>
        <time>2010-09-04T08:18:36Z</time>
      </trkpt>
      <trkpt lat="43.79871" lon="7.1812">
        <ele>438</ele>
        <time>2010-09-04T08:18:44Z</time>
      </trkpt>
      <trkpt lat="43.79881" lon="7.18137">
        <ele>437</ele>
        <time>2010-09-04T08:18:50Z</time>
      </trkpt>
      <trkpt lat="43.79893" lon="7.18155">
        <ele>436</ele>
        <time>2010-09-04T08:18:57Z</time>
      </trkpt>
      <trkpt lat="43.79911" lon="7.18171">
        <ele>433</ele>
        <time>2010-09-04T08:19:05Z</time>
      </trkpt>
      <trkpt lat="43.79921" lon="7.18165">
        <ele>437</ele>
        <time>2010-09-04T08:19:09Z</time>
      </trkpt>
      <trkpt lat="43.79929" lon="7.18146">
        <ele>438</ele>
        <time>2010-09-04T08:19:15Z</time>
      </trkpt>
      <trkpt lat="43.79937" lon="7.18116">
        <ele>441</ele>
        <time>2010-09-04T08:19:23Z</time>
      </trkpt>
      <trkpt lat="43.79946" lon="7.18083">
        <ele>443</ele>
        <time>2010-09-04T08:19:32Z</time>
      </trkpt>
      <trkpt lat="43.79956" lon="7.18054">
        <ele>453</ele>
        <time>2010-09-04T08:19:40Z</time>
      </trkpt>
      <trkpt lat="43.7997" lon="7.18024">
        <ele>455</ele>
        <time>2010-09-04T08:19:49Z</time>
      </trkpt>
      <trkpt lat="43.79983" lon="7.18005">
        <ele>455</ele>
        <time>2010-09-04T08:19:56Z</time>
      </trkpt>
      <trkpt lat="43.79998" lon="7.17993">
        <ele>460</ele>
        <time>2010-09-04T08:20:03Z</time>
      </trkpt>
      <trkpt lat="43.8" lon="7.17992">
        <ele>460</ele>
        <time>2010-09-04T08:20:04Z</time>
      </trkpt>
      <trkpt lat="43.80016" lon="7.17985">
        <ele>462</ele>
        <time>2010-09-04T08:20:11Z</time>
      </trkpt>
      <trkpt lat="43.80034" lon="7.17979">
        <ele>464</ele>
        <time>2010-09-04T08:20:19Z</time>
      </trkpt>
      <trkpt lat="43.80041" lon="7.17977">
        <ele>464</ele>
        <time>2010-09-04T08:20:22Z</time>
      </trkpt>
      <trkpt lat="43.80052" lon="7.17977">
        <ele>464</ele>
        <time>2010-09-04T08:20:26Z</time>
      </trkpt>
      <trkpt lat="43.80074" lon="7.17971">
        <ele>464</ele>
        <time>2010-09-04T08:20:35Z</time>
      </trkpt>
      <trkpt lat="43.80097" lon="7.1796">
        <ele>459</ele>
        <time>2010-09-04T08:20:44Z</time>
      </trkpt>
      <trkpt lat="43.80114" lon="7.17947">
        <ele>458</ele>
        <time>2010-09-04T08:20:51Z</time>
      </trkpt>
      <trkpt lat="43.80125" lon="7.17933">
        <ele>457</ele>
        <time>2010-09-04T08:20:57Z</time>
      </trkpt>
      <trkpt lat="43.80129" lon="7.17913">
        <ele>460</ele>
        <time>2010-09-04T08:21:03Z</time>
      </trkpt>
      <trkpt lat="43.80129" lon="7.17911">
        <ele>460</ele>
        <time>2010-09-04T08:21:04Z</time>
      </trkpt>
      <trkpt lat="43.80128" lon="7.17908">
        <ele>461</ele>
        <time>2010-09-04T08:21:16Z</time>
      </trkpt>
      <trkpt lat="43.80127" lon="7.17907">
        <ele>461</ele>
        <time>2010-09-04T08:21:22Z</time>
      </trkpt>
      <trkpt lat="43.80124" lon="7.17889">
        <ele>462</ele>
        <time>2010-09-04T08:21:28Z</time>
      </trkpt>
      <trkpt lat="43.80123" lon="7.1787">
        <ele>462</ele>
        <time>2010-09-04T08:21:33Z</time>
      </trkpt>
      <trkpt lat="43.80125" lon="7.1785">
        <ele>463</ele>
        <time>2010-09-04T08:21:38Z</time>
      </trkpt>
      <trkpt lat="43.80127" lon="7.17829">
        <ele>466</ele>
        <time>2010-09-04T08:21:43Z</time>
      </trkpt>
      <trkpt lat="43.80128" lon="7.17792">
        <ele>468</ele>
        <time>2010-09-04T08:21:50Z</time>
      </trkpt>
      <trkpt lat="43.80128" lon="7.17758">
        <ele>468</ele>
        <time>2010-09-04T08:21:56Z</time>
      </trkpt>
      <trkpt lat="43.80129" lon="7.17752">
        <ele>468</ele>
        <time>2010-09-04T08:21:57Z</time>
      </trkpt>
      <trkpt lat="43.80133" lon="7.17724">
        <ele>475</ele>
        <time>2010-09-04T08:22:02Z</time>
      </trkpt>
      <trkpt lat="43.80141" lon="7.17697">
        <ele>476</ele>
        <time>2010-09-04T08:22:07Z</time>
      </trkpt>
      <trkpt lat="43.80146" lon="7.17687">
        <ele>475</ele>
        <time>2010-09-04T08:22:09Z</time>
      </trkpt>
      <trkpt lat="43.80173" lon="7.17643">
        <ele>462</ele>
        <time>2010-09-04T08:22:18Z</time>
      </trkpt>
      <trkpt lat="43.80197" lon="7.17599">
        <ele>462</ele>
        <time>2010-09-04T08:22:26Z</time>
      </trkpt>
      <trkpt lat="43.80209" lon="7.17563">
        <ele>470</ele>
        <time>2010-09-04T08:22:32Z</time>
      </trkpt>
      <trkpt lat="43.80214" lon="7.17545">
        <ele>470</ele>
        <time>2010-09-04T08:22:35Z</time>
      </trkpt>
      <trkpt lat="43.80234" lon="7.17498">
        <ele>474</ele>
        <time>2010-09-04T08:22:43Z</time>
      </trkpt>
      <trkpt lat="43.8025" lon="7.17465">
        <ele>456</ele>
        <time>2010-09-04T08:22:49Z</time>
      </trkpt>
      <trkpt lat="43.80267" lon="7.17424">
        <ele>465</ele>
        <time>2010-09-04T08:22:56Z</time>
      </trkpt>
      <trkpt lat="43.80274" lon="7.17408">
        <ele>475</ele>
        <time>2010-09-04T08:22:59Z</time>
      </trkpt>
      <trkpt lat="43.80283" lon="7.17393">
        <ele>473</ele>
        <time>2010-09-04T08:23:02Z</time>
      </trkpt>
      <trkpt lat="43.80292" lon="7.17366">
        <ele>474</ele>
        <time>2010-09-04T08:23:07Z</time>
      </trkpt>
      <trkpt lat="43.80293" lon="7.17356">
        <ele>475</ele>
        <time>2010-09-04T08:23:09Z</time>
      </trkpt>
      <trkpt lat="43.80305" lon="7.17342">
        <ele>472</ele>
        <time>2010-09-04T08:23:13Z</time>
      </trkpt>
      <trkpt lat="43.80314" lon="7.17339">
        <ele>469</ele>
        <time>2010-09-04T08:23:15Z</time>
      </trkpt>
      <trkpt lat="43.8033" lon="7.17334">
        <ele>463</ele>
        <time>2010-09-04T08:23:18Z</time>
      </trkpt>
      <trkpt lat="43.80346" lon="7.1732">
        <ele>457</ele>
        <time>2010-09-04T08:23:22Z</time>
      </trkpt>
      <trkpt lat="43.8036" lon="7.17295">
        <ele>455</ele>
        <time>2010-09-04T08:23:27Z</time>
      </trkpt>
      <trkpt lat="43.80369" lon="7.17272">
        <ele>456</ele>
        <time>2010-09-04T08:23:31Z</time>
      </trkpt>
      <trkpt lat="43.80378" lon="7.17249">
        <ele>464</ele>
        <time>2010-09-04T08:23:35Z</time>
      </trkpt>
      <trkpt lat="43.80389" lon="7.17201">
        <ele>465</ele>
        <time>2010-09-04T08:23:42Z</time>
      </trkpt>
      <trkpt lat="43.80396" lon="7.17165">
        <ele>471</ele>
        <time>2010-09-04T08:23:48Z</time>
      </trkpt>
      <trkpt lat="43.80398" lon="7.17153">
        <ele>472</ele>
        <time>2010-09-04T08:23:50Z</time>
      </trkpt>
      <trkpt lat="43.80406" lon="7.17109">
        <ele>478</ele>
        <time>2010-09-04T08:23:57Z</time>
      </trkpt>
      <trkpt lat="43.80414" lon="7.17077">
        <ele>476</ele>
        <time>2010-09-04T08:24:02Z</time>
      </trkpt>
      <trkpt lat="43.80419" lon="7.17064">
        <ele>462</ele>
        <time>2010-09-04T08:24:04Z</time>
      </trkpt>
      <trkpt lat="43.80448" lon="7.17024">
        <ele>463</ele>
        <time>2010-09-04T08:24:12Z</time>
      </trkpt>
      <trkpt lat="43.80467" lon="7.16992">
        <ele>469</ele>
        <time>2010-09-04T08:24:18Z</time>
      </trkpt>
      <trkpt lat="43.80474" lon="7.16979">
        <ele>468</ele>
        <time>2010-09-04T08:24:20Z</time>
      </trkpt>
      <trkpt lat="43.80482" lon="7.16951">
        <ele>470</ele>
        <time>2010-09-04T08:24:24Z</time>
      </trkpt>
      <trkpt lat="43.80484" lon="7.16929">
        <ele>467</ele>
        <time>2010-09-04T08:24:27Z</time>
      </trkpt>
      <trkpt lat="43.80494" lon="7.16894">
        <ele>477</ele>
        <time>2010-09-04T08:24:32Z</time>
      </trkpt>
      <trkpt lat="43.80503" lon="7.16868">
        <ele>448</ele>
        <time>2010-09-04T08:24:36Z</time>
      </trkpt>
      <trkpt lat="43.80519" lon="7.16839">
        <ele>452</ele>
        <time>2010-09-04T08:24:41Z</time>
      </trkpt>
      <trkpt lat="43.80527" lon="7.16815">
        <ele>455</ele>
        <time>2010-09-04T08:24:45Z</time>
      </trkpt>
      <trkpt lat="43.80542" lon="7.16747">
        <ele>464</ele>
        <time>2010-09-04T08:24:55Z</time>
      </trkpt>
      <trkpt lat="43.80552" lon="7.16705">
        <ele>465</ele>
        <time>2010-09-04T08:25:01Z</time>
      </trkpt>
      <trkpt lat="43.80556" lon="7.16692">
        <ele>466</ele>
        <time>2010-09-04T08:25:03Z</time>
      </trkpt>
      <trkpt lat="43.80564" lon="7.16672">
        <ele>465</ele>
        <time>2010-09-04T08:25:06Z</time>
      </trkpt>
      <trkpt lat="43.80583" lon="7.16661">
        <ele>468</ele>
        <time>2010-09-04T08:25:10Z</time>
      </trkpt>
      <trkpt lat="43.80589" lon="7.16662">
        <ele>464</ele>
        <time>2010-09-04T08:25:11Z</time>
      </trkpt>
      <trkpt lat="43.8062" lon="7.16673">
        <ele>450</ele>
        <time>2010-09-04T08:25:17Z</time>
      </trkpt>
      <trkpt lat="43.80642" lon="7.16669">
        <ele>449</ele>
        <time>2010-09-04T08:25:21Z</time>
      </trkpt>
      <trkpt lat="43.80677" lon="7.16652">
        <ele>458</ele>
        <time>2010-09-04T08:25:28Z</time>
      </trkpt>
      <trkpt lat="43.80701" lon="7.16654">
        <ele>460</ele>
        <time>2010-09-04T08:25:33Z</time>
      </trkpt>
      <trkpt lat="43.80709" lon="7.16662">
        <ele>460</ele>
        <time>2010-09-04T08:25:35Z</time>
      </trkpt>
      <trkpt lat="43.80731" lon="7.16691">
        <ele>448</ele>
        <time>2010-09-04T08:25:42Z</time>
      </trkpt>
      <trkpt lat="43.8074" lon="7.16703">
        <ele>447</ele>
        <time>2010-09-04T08:25:45Z</time>
      </trkpt>
      <trkpt lat="43.80765" lon="7.16725">
        <ele>455</ele>
        <time>2010-09-04T08:25:53Z</time>
      </trkpt>
      <trkpt lat="43.80782" lon="7.16738">
        <ele>457</ele>
        <time>2010-09-04T08:25:59Z</time>
      </trkpt>
      <trkpt lat="43.80804" lon="7.16756">
        <ele>452</ele>
        <time>2010-09-04T08:26:07Z</time>
      </trkpt>
      <trkpt lat="43.80824" lon="7.16768">
        <ele>455</ele>
        <time>2010-09-04T08:26:14Z</time>
      </trkpt>
      <trkpt lat="43.80842" lon="7.16785">
        <ele>464</ele>
        <time>2010-09-04T08:26:21Z</time>
      </trkpt>
      <trkpt lat="43.80864" lon="7.1681">
        <ele>463</ele>
        <time>2010-09-04T08:26:30Z</time>
      </trkpt>
      <trkpt lat="43.80883" lon="7.16832">
        <ele>464</ele>
        <time>2010-09-04T08:26:38Z</time>
      </trkpt>
      <trkpt lat="43.80893" lon="7.16848">
        <ele>459</ele>
        <time>2010-09-04T08:26:43Z</time>
      </trkpt>
      <trkpt lat="43.80897" lon="7.16854">
        <ele>459</ele>
        <time>2010-09-04T08:26:45Z</time>
      </trkpt>
      <trkpt lat="43.80906" lon="7.16851">
        <ele>460</ele>
        <time>2010-09-04T08:26:50Z</time>
      </trkpt>
      <trkpt lat="43.80907" lon="7.16849">
        <ele>461</ele>
        <time>2010-09-04T08:26:51Z</time>
      </trkpt>
      <trkpt lat="43.80913" lon="7.16839">
        <ele>463</ele>
        <time>2010-09-04T08:26:58Z</time>
      </trkpt>
      <trkpt lat="43.8092" lon="7.16827">
        <ele>465</ele>
        <time>2010-09-04T08:27:07Z</time>
      </trkpt>
      <trkpt lat="43.80922" lon="7.16824">
        <ele>466</ele>
        <time>2010-09-04T08:27:09Z</time>
      </trkpt>
      <trkpt lat="43.80927" lon="7.16814">
        <ele>466</ele>
        <time>2010-09-04T08:27:17Z</time>
      </trkpt>
      <trkpt lat="43.80929" lon="7.1681">
        <ele>467</ele>
        <time>2010-09-04T08:27:20Z</time>
      </trkpt>
      <trkpt lat="43.80931" lon="7.16801">
        <ele>467</ele>
        <time>2010-09-04T08:27:25Z</time>
      </trkpt>
      <trkpt lat="43.80933" lon="7.16793">
        <ele>468</ele>
        <time>2010-09-04T08:27:30Z</time>
      </trkpt>
      <trkpt lat="43.80934" lon="7.16789">
        <ele>469</ele>
        <time>2010-09-04T08:27:33Z</time>
      </trkpt>
      <trkpt lat="43.80929" lon="7.16776">
        <ele>471</ele>
        <time>2010-09-04T08:27:41Z</time>
      </trkpt>
      <trkpt lat="43.80927" lon="7.16773">
        <ele>472</ele>
        <time>2010-09-04T08:27:43Z</time>
      </trkpt>
      <trkpt lat="43.80918" lon="7.16761">
        <ele>477</ele>
        <time>2010-09-04T08:27:52Z</time>
      </trkpt>
      <trkpt lat="43.80911" lon="7.16752">
        <ele>479</ele>
        <time>2010-09-04T08:27:59Z</time>
      </trkpt>
      <trkpt lat="43.80906" lon="7.16744">
        <ele>482</ele>
        <time>2010-09-04T08:28:05Z</time>
      </trkpt>
      <trkpt lat="43.809" lon="7.16735">
        <ele>483</ele>
        <time>2010-09-04T08:28:12Z</time>
      </trkpt>
      <trkpt lat="43.80895" lon="7.16723">
        <ele>483</ele>
        <time>2010-09-04T08:28:18Z</time>
      </trkpt>
      <trkpt lat="43.80895" lon="7.16722">
        <ele>484</ele>
        <time>2010-09-04T08:28:19Z</time>
      </trkpt>
      <trkpt lat="43.80889" lon="7.16708">
        <ele>485</ele>
        <time>2010-09-04T08:28:25Z</time>
      </trkpt>
      <trkpt lat="43.80888" lon="7.16706">
        <ele>485</ele>
        <time>2010-09-04T08:28:26Z</time>
      </trkpt>
      <trkpt lat="43.8088" lon="7.16693">
        <ele>486</ele>
        <time>2010-09-04T08:28:32Z</time>
      </trkpt>
      <trkpt lat="43.80872" lon="7.16683">
        <ele>485</ele>
        <time>2010-09-04T08:28:37Z</time>
      </trkpt>
      <trkpt lat="43.80862" lon="7.1667">
        <ele>485</ele>
        <time>2010-09-04T08:28:44Z</time>
      </trkpt>
      <trkpt lat="43.80854" lon="7.16658">
        <ele>496</ele>
        <time>2010-09-04T08:28:49Z</time>
      </trkpt>
      <trkpt lat="43.80848" lon="7.1664">
        <ele>499</ele>
        <time>2010-09-04T08:28:56Z</time>
      </trkpt>
      <trkpt lat="43.80843" lon="7.16627">
        <ele>501</ele>
        <time>2010-09-04T08:29:02Z</time>
      </trkpt>
      <trkpt lat="43.80838" lon="7.16611">
        <ele>503</ele>
        <time>2010-09-04T08:29:10Z</time>
      </trkpt>
      <trkpt lat="43.80835" lon="7.16602">
        <ele>504</ele>
        <time>2010-09-04T08:29:14Z</time>
      </trkpt>
      <trkpt lat="43.80834" lon="7.16592">
        <ele>504</ele>
        <time>2010-09-04T08:29:19Z</time>
      </trkpt>
      <trkpt lat="43.80828" lon="7.16574">
        <ele>504</ele>
        <time>2010-09-04T08:29:27Z</time>
      </trkpt>
      <trkpt lat="43.80824" lon="7.16563">
        <ele>504</ele>
        <time>2010-09-04T08:29:32Z</time>
      </trkpt>
      <trkpt lat="43.80816" lon="7.1655">
        <ele>505</ele>
        <time>2010-09-04T08:29:38Z</time>
      </trkpt>
      <trkpt lat="43.80804" lon="7.16529">
        <ele>506</ele>
        <time>2010-09-04T08:29:47Z</time>
      </trkpt>
      <trkpt lat="43.8079" lon="7.16511">
        <ele>506</ele>
        <time>2010-09-04T08:29:56Z</time>
      </trkpt>
      <trkpt lat="43.80775" lon="7.16492">
        <ele>520</ele>
        <time>2010-09-04T08:30:05Z</time>
      </trkpt>
      <trkpt lat="43.80763" lon="7.16477">
        <ele>520</ele>
        <time>2010-09-04T08:30:12Z</time>
      </trkpt>
      <trkpt lat="43.80745" lon="7.1646">
        <ele>516</ele>
        <time>2010-09-04T08:30:21Z</time>
      </trkpt>
      <trkpt lat="43.8073" lon="7.16456">
        <ele>517</ele>
        <time>2010-09-04T08:30:26Z</time>
      </trkpt>
      <trkpt lat="43.80707" lon="7.1645">
        <ele>518</ele>
        <time>2010-09-04T08:30:34Z</time>
      </trkpt>
      <trkpt lat="43.80686" lon="7.16451">
        <ele>518</ele>
        <time>2010-09-04T08:30:40Z</time>
      </trkpt>
      <trkpt lat="43.80671" lon="7.16459">
        <ele>516</ele>
        <time>2010-09-04T08:30:45Z</time>
      </trkpt>
      <trkpt lat="43.80654" lon="7.16477">
        <ele>514</ele>
        <time>2010-09-04T08:30:50Z</time>
      </trkpt>
      <trkpt lat="43.8063" lon="7.16489">
        <ele>517</ele>
        <time>2010-09-04T08:30:54Z</time>
      </trkpt>
      <trkpt lat="43.80609" lon="7.16496">
        <ele>518</ele>
        <time>2010-09-04T08:30:58Z</time>
      </trkpt>
      <trkpt lat="43.80601" lon="7.16493">
        <ele>518</ele>
        <time>2010-09-04T08:31:01Z</time>
      </trkpt>
      <trkpt lat="43.806" lon="7.16491">
        <ele>518</ele>
        <time>2010-09-04T08:31:02Z</time>
      </trkpt>
      <trkpt lat="43.80586" lon="7.16483">
        <ele>519</ele>
        <time>2010-09-04T08:31:10Z</time>
      </trkpt>
      <trkpt lat="43.80576" lon="7.16479">
        <ele>525</ele>
        <time>2010-09-04T08:31:16Z</time>
      </trkpt>
      <trkpt lat="43.80566" lon="7.16475">
        <ele>526</ele>
        <time>2010-09-04T08:31:23Z</time>
      </trkpt>
      <trkpt lat="43.8056" lon="7.16473">
        <ele>527</ele>
        <time>2010-09-04T08:31:27Z</time>
      </trkpt>
      <trkpt lat="43.80551" lon="7.16468">
        <ele>528</ele>
        <time>2010-09-04T08:31:35Z</time>
      </trkpt>
      <trkpt lat="43.80542" lon="7.16465">
        <ele>529</ele>
        <time>2010-09-04T08:31:43Z</time>
      </trkpt>
      <trkpt lat="43.80536" lon="7.16464">
        <ele>529</ele>
        <time>2010-09-04T08:31:49Z</time>
      </trkpt>
      <trkpt lat="43.80529" lon="7.16464">
        <ele>529</ele>
        <time>2010-09-04T08:31:55Z</time>
      </trkpt>
      <trkpt lat="43.80526" lon="7.16465">
        <ele>529</ele>
        <time>2010-09-04T08:31:58Z</time>
      </trkpt>
      <trkpt lat="43.80524" lon="7.16465">
        <ele>529</ele>
        <time>2010-09-04T08:32:07Z</time>
      </trkpt>
      <trkpt lat="43.80525" lon="7.16466">
        <ele>529</ele>
        <time>2010-09-04T08:32:15Z</time>
      </trkpt>
      <trkpt lat="43.80525" lon="7.16466">
        <ele>529</ele>
        <time>2010-09-04T08:32:24Z</time>
      </trkpt>
      <trkpt lat="43.80525" lon="7.16467">
        <ele>529</ele>
        <time>2010-09-04T08:32:44Z</time>
      </trkpt>
      <trkpt lat="43.80526" lon="7.16467">
        <ele>529</ele>
        <time>2010-09-04T08:32:52Z</time>
      </trkpt>
      <trkpt lat="43.80526" lon="7.16467">
        <ele>529</ele>
        <time>2010-09-04T08:32:58Z</time>
      </trkpt>
      <trkpt lat="43.80526" lon="7.16467">
        <ele>529</ele>
        <time>2010-09-04T08:33:04Z</time>
      </trkpt>
      <trkpt lat="43.80522" lon="7.16464">
        <ele>529</ele>
        <time>2010-09-04T08:33:15Z</time>
      </trkpt>
      <trkpt lat="43.80521" lon="7.16463">
        <ele>529</ele>
        <time>2010-09-04T08:33:16Z</time>
      </trkpt>
      <trkpt lat="43.80516" lon="7.16459">
        <ele>530</ele>
        <time>2010-09-04T08:33:23Z</time>
      </trkpt>
      <trkpt lat="43.80513" lon="7.16456">
        <ele>531</ele>
        <time>2010-09-04T08:33:29Z</time>
      </trkpt>
      <trkpt lat="43.80508" lon="7.1645">
        <ele>532</ele>
        <time>2010-09-04T08:33:36Z</time>
      </trkpt>
      <trkpt lat="43.80505" lon="7.16446">
        <ele>533</ele>
        <time>2010-09-04T08:33:41Z</time>
      </trkpt>
      <trkpt lat="43.80502" lon="7.16442">
        <ele>533</ele>
        <time>2010-09-04T08:33:47Z</time>
      </trkpt>
      <trkpt lat="43.80497" lon="7.16435">
        <ele>544</ele>
        <time>2010-09-04T08:33:54Z</time>
      </trkpt>
      <trkpt lat="43.80496" lon="7.16433">
        <ele>544</ele>
        <time>2010-09-04T08:33:57Z</time>
      </trkpt>
      <trkpt lat="43.80487" lon="7.16419">
        <ele>544</ele>
        <time>2010-09-04T08:34:06Z</time>
      </trkpt>
      <trkpt lat="43.80481" lon="7.16409">
        <ele>550</ele>
        <time>2010-09-04T08:34:14Z</time>
      </trkpt>
      <trkpt lat="43.80473" lon="7.16396">
        <ele>554</ele>
        <time>2010-09-04T08:34:22Z</time>
      </trkpt>
      <trkpt lat="43.80469" lon="7.16387">
        <ele>555</ele>
        <time>2010-09-04T08:34:27Z</time>
      </trkpt>
      <trkpt lat="43.80469" lon="7.16387">
        <ele>555</ele>
        <time>2010-09-04T08:34:36Z</time>
      </trkpt>
      <trkpt lat="43.80467" lon="7.16385">
        <ele>555</ele>
        <time>2010-09-04T08:34:54Z</time>
      </trkpt>
      <trkpt lat="43.80466" lon="7.16385">
        <ele>555</ele>
        <time>2010-09-04T08:35:00Z</time>
      </trkpt>
      <trkpt lat="43.80464" lon="7.1638">
        <ele>556</ele>
        <time>2010-09-04T08:35:08Z</time>
      </trkpt>
      <trkpt lat="43.80463" lon="7.16377">
        <ele>556</ele>
        <time>2010-09-04T08:35:13Z</time>
      </trkpt>
      <trkpt lat="43.80458" lon="7.16367">
        <ele>557</ele>
        <time>2010-09-04T08:35:20Z</time>
      </trkpt>
      <trkpt lat="43.80455" lon="7.16361">
        <ele>558</ele>
        <time>2010-09-04T08:35:25Z</time>
      </trkpt>
      <trkpt lat="43.80453" lon="7.16356">
        <ele>558</ele>
        <time>2010-09-04T08:35:30Z</time>
      </trkpt>
      <trkpt lat="43.80452" lon="7.16353">
        <ele>558</ele>
        <time>2010-09-04T08:35:32Z</time>
      </trkpt>
      <trkpt lat="43.80451" lon="7.16344">
        <ele>559</ele>
        <time>2010-09-04T08:35:41Z</time>
      </trkpt>
      <trkpt lat="43.80449" lon="7.16338">
        <ele>559</ele>
        <time>2010-09-04T08:35:47Z</time>
      </trkpt>
      <trkpt lat="43.80445" lon="7.1633">
        <ele>566</ele>
        <time>2010-09-04T08:35:54Z</time>
      </trkpt>
      <trkpt lat="43.80442" lon="7.16323">
        <ele>566</ele>
        <time>2010-09-04T08:36:01Z</time>
      </trkpt>
      <trkpt lat="43.80441" lon="7.16319">
        <ele>566</ele>
        <time>2010-09-04T08:36:06Z</time>
      </trkpt>
      <trkpt lat="43.80438" lon="7.16313">
        <ele>567</ele>
        <time>2010-09-04T08:36:13Z</time>
      </trkpt>
      <trkpt lat="43.80431" lon="7.16305">
        <ele>567</ele>
        <time>2010-09-04T08:36:22Z</time>
      </trkpt>
      <trkpt lat="43.8043" lon="7.16303">
        <ele>567</ele>
        <time>2010-09-04T08:36:24Z</time>
      </trkpt>
      <trkpt lat="43.80422" lon="7.16295">
        <ele>568</ele>
        <time>2010-09-04T08:36:30Z</time>
      </trkpt>
      <trkpt lat="43.80419" lon="7.16291">
        <ele>568</ele>
        <time>2010-09-04T08:36:32Z</time>
      </trkpt>
      <trkpt lat="43.80413" lon="7.16294">
        <ele>575</ele>
        <time>2010-09-04T08:36:38Z</time>
      </trkpt>
      <trkpt lat="43.8041" lon="7.16294">
        <ele>576</ele>
        <time>2010-09-04T08:36:43Z</time>
      </trkpt>
      <trkpt lat="43.80408" lon="7.16286">
        <ele>576</ele>
        <time>2010-09-04T08:36:48Z</time>
      </trkpt>
      <trkpt lat="43.80406" lon="7.16278">
        <ele>576</ele>
        <time>2010-09-04T08:36:54Z</time>
      </trkpt>
      <trkpt lat="43.80405" lon="7.16273">
        <ele>576</ele>
        <time>2010-09-04T08:36:59Z</time>
      </trkpt>
      <trkpt lat="43.80404" lon="7.16266">
        <ele>576</ele>
        <time>2010-09-04T08:37:05Z</time>
      </trkpt>
      <trkpt lat="43.80404" lon="7.16261">
        <ele>575</ele>
        <time>2010-09-04T08:37:10Z</time>
      </trkpt>
      <trkpt lat="43.80404" lon="7.16255">
        <ele>575</ele>
        <time>2010-09-04T08:37:15Z</time>
      </trkpt>
      <trkpt lat="43.80401" lon="7.16258">
        <ele>576</ele>
        <time>2010-09-04T08:37:20Z</time>
      </trkpt>
      <trkpt lat="43.80397" lon="7.16264">
        <ele>577</ele>
        <time>2010-09-04T08:37:27Z</time>
      </trkpt>
      <trkpt lat="43.80392" lon="7.16264">
        <ele>578</ele>
        <time>2010-09-04T08:37:33Z</time>
      </trkpt>
      <trkpt lat="43.80392" lon="7.16256">
        <ele>578</ele>
        <time>2010-09-04T08:37:40Z</time>
      </trkpt>
      <trkpt lat="43.80394" lon="7.1625">
        <ele>580</ele>
        <time>2010-09-04T08:37:45Z</time>
      </trkpt>
      <trkpt lat="43.80395" lon="7.16244">
        <ele>580</ele>
        <time>2010-09-04T08:37:49Z</time>
      </trkpt>
      <trkpt lat="43.80392" lon="7.16233">
        <ele>582</ele>
        <time>2010-09-04T08:37:57Z</time>
      </trkpt>
      <trkpt lat="43.80386" lon="7.16227">
        <ele>584</ele>
        <time>2010-09-04T08:38:05Z</time>
      </trkpt>
      <trkpt lat="43.80383" lon="7.16222">
        <ele>585</ele>
        <time>2010-09-04T08:38:11Z</time>
      </trkpt>
      <trkpt lat="43.80379" lon="7.16219">
        <ele>585</ele>
        <time>2010-09-04T08:38:17Z</time>
      </trkpt>
      <trkpt lat="43.80372" lon="7.16214">
        <ele>586</ele>
        <time>2010-09-04T08:38:24Z</time>
      </trkpt>
      <trkpt lat="43.80366" lon="7.16205">
        <ele>587</ele>
        <time>2010-09-04T08:38:31Z</time>
      </trkpt>
      <trkpt lat="43.80363" lon="7.16208">
        <ele>587</ele>
        <time>2010-09-04T08:38:38Z</time>
      </trkpt>
      <trkpt lat="43.80365" lon="7.16215">
        <ele>587</ele>
        <time>2010-09-04T08:38:45Z</time>
      </trkpt>
      <trkpt lat="43.80366" lon="7.16223">
        <ele>586</ele>
        <time>2010-09-04T08:38:51Z</time>
      </trkpt>
      <trkpt lat="43.80367" lon="7.16231">
        <ele>586</ele>
        <time>2010-09-04T08:38:56Z</time>
      </trkpt>
      <trkpt lat="43.80363" lon="7.16244">
        <ele>587</ele>
        <time>2010-09-04T08:39:05Z</time>
      </trkpt>
      <trkpt lat="43.80361" lon="7.1625">
        <ele>584</ele>
        <time>2010-09-04T08:39:10Z</time>
      </trkpt>
      <trkpt lat="43.80354" lon="7.16247">
        <ele>588</ele>
        <time>2010-09-04T08:39:17Z</time>
      </trkpt>
      <trkpt lat="43.80349" lon="7.1624">
        <ele>589</ele>
        <time>2010-09-04T08:39:25Z</time>
      </trkpt>
      <trkpt lat="43.80346" lon="7.16235">
        <ele>589</ele>
        <time>2010-09-04T08:39:29Z</time>
      </trkpt>
      <trkpt lat="43.80341" lon="7.16226">
        <ele>589</ele>
        <time>2010-09-04T08:39:37Z</time>
      </trkpt>
      <trkpt lat="43.80339" lon="7.16224">
        <ele>589</ele>
        <time>2010-09-04T08:39:44Z</time>
      </trkpt>
      <trkpt lat="43.80332" lon="7.16217">
        <ele>601</ele>
        <time>2010-09-04T08:39:50Z</time>
      </trkpt>
      <trkpt lat="43.80326" lon="7.16211">
        <ele>601</ele>
        <time>2010-09-04T08:39:55Z</time>
      </trkpt>
      <trkpt lat="43.80325" lon="7.1621">
        <ele>601</ele>
        <time>2010-09-04T08:40:09Z</time>
      </trkpt>
      <trkpt lat="43.80324" lon="7.16209">
        <ele>601</ele>
        <time>2010-09-04T08:40:11Z</time>
      </trkpt>
      <trkpt lat="43.80314" lon="7.16202">
        <ele>602</ele>
        <time>2010-09-04T08:40:19Z</time>
      </trkpt>
      <trkpt lat="43.80308" lon="7.16197">
        <ele>602</ele>
        <time>2010-09-04T08:40:24Z</time>
      </trkpt>
      <trkpt lat="43.80306" lon="7.16193">
        <ele>603</ele>
        <time>2010-09-04T08:40:29Z</time>
      </trkpt>
      <trkpt lat="43.80306" lon="7.16193">
        <ele>603</ele>
        <time>2010-09-04T08:40:32Z</time>
      </trkpt>
      <trkpt lat="43.80296" lon="7.16185">
        <ele>604</ele>
        <time>2010-09-04T08:40:40Z</time>
      </trkpt>
      <trkpt lat="43.80287" lon="7.16174">
        <ele>605</ele>
        <time>2010-09-04T08:40:48Z</time>
      </trkpt>
      <trkpt lat="43.80277" lon="7.16162">
        <ele>604</ele>
        <time>2010-09-04T08:40:55Z</time>
      </trkpt>
      <trkpt lat="43.80265" lon="7.16146">
        <ele>605</ele>
        <time>2010-09-04T08:41:03Z</time>
      </trkpt>
      <trkpt lat="43.80252" lon="7.16132">
        <ele>605</ele>
        <time>2010-09-04T08:41:11Z</time>
      </trkpt>
      <trkpt lat="43.80238" lon="7.16119">
        <ele>617</ele>
        <time>2010-09-04T08:41:20Z</time>
      </trkpt>
      <trkpt lat="43.80227" lon="7.16112">
        <ele>618</ele>
        <time>2010-09-04T08:41:28Z</time>
      </trkpt>
      <trkpt lat="43.80217" lon="7.16107">
        <ele>619</ele>
        <time>2010-09-04T08:41:36Z</time>
      </trkpt>
      <trkpt lat="43.80212" lon="7.16101">
        <ele>620</ele>
        <time>2010-09-04T08:41:43Z</time>
      </trkpt>
      <trkpt lat="43.8021" lon="7.16098">
        <ele>620</ele>
        <time>2010-09-04T08:41:47Z</time>
      </trkpt>
      <trkpt lat="43.80206" lon="7.16096">
        <ele>621</ele>
        <time>2010-09-04T08:41:52Z</time>
      </trkpt>
      <trkpt lat="43.80199" lon="7.16091">
        <ele>622</ele>
        <time>2010-09-04T08:41:59Z</time>
      </trkpt>
      <trkpt lat="43.80197" lon="7.16088">
        <ele>622</ele>
        <time>2010-09-04T08:42:05Z</time>
      </trkpt>
      <trkpt lat="43.80196" lon="7.16087">
        <ele>622</ele>
        <time>2010-09-04T08:42:06Z</time>
      </trkpt>
      <trkpt lat="43.80191" lon="7.1608">
        <ele>622</ele>
        <time>2010-09-04T08:42:11Z</time>
      </trkpt>
      <trkpt lat="43.80183" lon="7.16067">
        <ele>622</ele>
        <time>2010-09-04T08:42:19Z</time>
      </trkpt>
      <trkpt lat="43.80176" lon="7.16057">
        <ele>622</ele>
        <time>2010-09-04T08:42:26Z</time>
      </trkpt>
      <trkpt lat="43.80174" lon="7.16054">
        <ele>622</ele>
        <time>2010-09-04T08:42:28Z</time>
      </trkpt>
      <trkpt lat="43.80172" lon="7.16053">
        <ele>622</ele>
        <time>2010-09-04T08:42:34Z</time>
      </trkpt>
      <trkpt lat="43.80168" lon="7.16048">
        <ele>622</ele>
        <time>2010-09-04T08:42:40Z</time>
      </trkpt>
      <trkpt lat="43.80162" lon="7.16041">
        <ele>635</ele>
        <time>2010-09-04T08:42:48Z</time>
      </trkpt>
      <trkpt lat="43.80155" lon="7.16033">
        <ele>635</ele>
        <time>2010-09-04T08:42:57Z</time>
      </trkpt>
      <trkpt lat="43.80151" lon="7.16029">
        <ele>635</ele>
        <time>2010-09-04T08:43:05Z</time>
      </trkpt>
      <trkpt lat="43.80146" lon="7.16023">
        <ele>635</ele>
        <time>2010-09-04T08:43:11Z</time>
      </trkpt>
      <trkpt lat="43.80142" lon="7.16018">
        <ele>635</ele>
        <time>2010-09-04T08:43:15Z</time>
      </trkpt>
      <trkpt lat="43.80131" lon="7.16009">
        <ele>637</ele>
        <time>2010-09-04T08:43:23Z</time>
      </trkpt>
      <trkpt lat="43.80129" lon="7.16005">
        <ele>637</ele>
        <time>2010-09-04T08:43:25Z</time>
      </trkpt>
      <trkpt lat="43.80116" lon="7.1599">
        <ele>638</ele>
        <time>2010-09-04T08:43:33Z</time>
      </trkpt>
      <trkpt lat="43.80106" lon="7.15979">
        <ele>639</ele>
        <time>2010-09-04T08:43:40Z</time>
      </trkpt>
      <trkpt lat="43.80099" lon="7.15973">
        <ele>639</ele>
        <time>2010-09-04T08:43:45Z</time>
      </trkpt>
      <trkpt lat="43.80089" lon="7.15965">
        <ele>639</ele>
        <time>2010-09-04T08:43:51Z</time>
      </trkpt>
      <trkpt lat="43.80078" lon="7.15954">
        <ele>650</ele>
        <time>2010-09-04T08:43:58Z</time>
      </trkpt>
      <trkpt lat="43.8007" lon="7.15944">
        <ele>650</ele>
        <time>2010-09-04T08:44:05Z</time>
      </trkpt>
      <trkpt lat="43.80068" lon="7.15943">
        <ele>650</ele>
        <time>2010-09-04T08:44:11Z</time>
      </trkpt>
      <trkpt lat="43.80063" lon="7.15939">
        <ele>650</ele>
        <time>2010-09-04T08:44:17Z</time>
      </trkpt>
      <trkpt lat="43.80058" lon="7.15934">
        <ele>651</ele>
        <time>2010-09-04T08:44:24Z</time>
      </trkpt>
      <trkpt lat="43.80054" lon="7.15928">
        <ele>651</ele>
        <time>2010-09-04T08:44:31Z</time>
      </trkpt>
      <trkpt lat="43.80047" lon="7.1592">
        <ele>652</ele>
        <time>2010-09-04T08:44:40Z</time>
      </trkpt>
      <trkpt lat="43.80043" lon="7.15911">
        <ele>652</ele>
        <time>2010-09-04T08:44:47Z</time>
      </trkpt>
      <trkpt lat="43.8004" lon="7.15904">
        <ele>653</ele>
        <time>2010-09-04T08:44:53Z</time>
      </trkpt>
      <trkpt lat="43.8004" lon="7.15899">
        <ele>653</ele>
        <time>2010-09-04T08:44:57Z</time>
      </trkpt>
      <trkpt lat="43.80036" lon="7.15891">
        <ele>654</ele>
        <time>2010-09-04T08:45:03Z</time>
      </trkpt>
      <trkpt lat="43.80036" lon="7.1589">
        <ele>654</ele>
        <time>2010-09-04T08:45:04Z</time>
      </trkpt>
      <trkpt lat="43.80033" lon="7.15883">
        <ele>654</ele>
        <time>2010-09-04T08:45:12Z</time>
      </trkpt>
      <trkpt lat="43.80027" lon="7.15875">
        <ele>655</ele>
        <time>2010-09-04T08:45:18Z</time>
      </trkpt>
      <trkpt lat="43.80024" lon="7.15871">
        <ele>655</ele>
        <time>2010-09-04T08:45:21Z</time>
      </trkpt>
      <trkpt lat="43.80014" lon="7.1586">
        <ele>655</ele>
        <time>2010-09-04T08:45:29Z</time>
      </trkpt>
      <trkpt lat="43.80011" lon="7.15858">
        <ele>655</ele>
        <time>2010-09-04T08:45:31Z</time>
      </trkpt>
      <trkpt lat="43.80007" lon="7.15853">
        <ele>655</ele>
        <time>2010-09-04T08:45:35Z</time>
      </trkpt>
      <trkpt lat="43.80004" lon="7.15851">
        <ele>656</ele>
        <time>2010-09-04T08:45:37Z</time>
      </trkpt>
      <trkpt lat="43.79998" lon="7.15849">
        <ele>662</ele>
        <time>2010-09-04T08:45:41Z</time>
      </trkpt>
      <trkpt lat="43.79995" lon="7.15847">
        <ele>662</ele>
        <time>2010-09-04T08:45:47Z</time>
      </trkpt>
      <trkpt lat="43.79994" lon="7.15847">
        <ele>662</ele>
        <time>2010-09-04T08:45:51Z</time>
      </trkpt>
      <trkpt lat="43.7999" lon="7.15844">
        <ele>662</ele>
        <time>2010-09-04T08:45:56Z</time>
      </trkpt>
      <trkpt lat="43.79985" lon="7.15839">
        <ele>662</ele>
        <time>2010-09-04T08:46:01Z</time>
      </trkpt>
      <trkpt lat="43.79981" lon="7.15834">
        <ele>663</ele>
        <time>2010-09-04T08:46:08Z</time>
      </trkpt>
      <trkpt lat="43.79976" lon="7.15829">
        <ele>665</ele>
        <time>2010-09-04T08:46:15Z</time>
      </trkpt>
      <trkpt lat="43.7997" lon="7.15825">
        <ele>666</ele>
        <time>2010-09-04T08:46:21Z</time>
      </trkpt>
      <trkpt lat="43.79967" lon="7.1582">
        <ele>667</ele>
        <time>2010-09-04T08:46:25Z</time>
      </trkpt>
      <trkpt lat="43.79962" lon="7.15815">
        <ele>668</ele>
        <time>2010-09-04T08:46:31Z</time>
      </trkpt>
      <trkpt lat="43.79956" lon="7.15809">
        <ele>668</ele>
        <time>2010-09-04T08:46:39Z</time>
      </trkpt>
      <trkpt lat="43.79954" lon="7.15808">
        <ele>669</ele>
        <time>2010-09-04T08:46:44Z</time>
      </trkpt>
      <trkpt lat="43.79955" lon="7.15808">
        <ele>669</ele>
        <time>2010-09-04T08:46:51Z</time>
      </trkpt>
      <trkpt lat="43.79954" lon="7.15808">
        <ele>669</ele>
        <time>2010-09-04T08:47:00Z</time>
      </trkpt>
      <trkpt lat="43.79954" lon="7.15808">
        <ele>669</ele>
        <time>2010-09-04T08:47:11Z</time>
      </trkpt>
      <trkpt lat="43.79953" lon="7.15808">
        <ele>669</ele>
        <time>2010-09-04T08:47:20Z</time>
      </trkpt>
      <trkpt lat="43.79953" lon="7.15809">
        <ele>669</ele>
        <time>2010-09-04T08:47:28Z</time>
      </trkpt>
      <trkpt lat="43.79954" lon="7.15809">
        <ele>669</ele>
        <time>2010-09-04T08:47:53Z</time>
      </trkpt>
      <trkpt lat="43.79951" lon="7.15811">
        <ele>669</ele>
        <time>2010-09-04T08:47:59Z</time>
      </trkpt>
      <trkpt lat="43.79947" lon="7.1581">
        <ele>669</ele>
        <time>2010-09-04T08:48:05Z</time>
      </trkpt>
      <trkpt lat="43.79941" lon="7.15807">
        <ele>670</ele>
        <time>2010-09-04T08:48:13Z</time>
      </trkpt>
      <trkpt lat="43.79936" lon="7.15803">
        <ele>670</ele>
        <time>2010-09-04T08:48:20Z</time>
      </trkpt>
      <trkpt lat="43.7993" lon="7.15798">
        <ele>670</ele>
        <time>2010-09-04T08:48:27Z</time>
      </trkpt>
      <trkpt lat="43.79926" lon="7.15794">
        <ele>670</ele>
        <time>2010-09-04T08:48:32Z</time>
      </trkpt>
      <trkpt lat="43.79921" lon="7.15788">
        <ele>670</ele>
        <time>2010-09-04T08:48:38Z</time>
      </trkpt>
      <trkpt lat="43.79917" lon="7.15783">
        <ele>678</ele>
        <time>2010-09-04T08:48:43Z</time>
      </trkpt>
      <trkpt lat="43.79911" lon="7.15778">
        <ele>678</ele>
        <time>2010-09-04T08:48:49Z</time>
      </trkpt>
      <trkpt lat="43.79904" lon="7.15773">
        <ele>678</ele>
        <time>2010-09-04T08:48:57Z</time>
      </trkpt>
      <trkpt lat="43.799" lon="7.15769">
        <ele>678</ele>
        <time>2010-09-04T08:49:03Z</time>
      </trkpt>
      <trkpt lat="43.79896" lon="7.15764">
        <ele>679</ele>
        <time>2010-09-04T08:49:09Z</time>
      </trkpt>
      <trkpt lat="43.79891" lon="7.15761">
        <ele>679</ele>
        <time>2010-09-04T08:49:15Z</time>
      </trkpt>
      <trkpt lat="43.79888" lon="7.15759">
        <ele>680</ele>
        <time>2010-09-04T08:49:20Z</time>
      </trkpt>
      <trkpt lat="43.79883" lon="7.15758">
        <ele>680</ele>
        <time>2010-09-04T08:49:26Z</time>
      </trkpt>
      <trkpt lat="43.7988" lon="7.15752">
        <ele>681</ele>
        <time>2010-09-04T08:49:32Z</time>
      </trkpt>
      <trkpt lat="43.79875" lon="7.15748">
        <ele>682</ele>
        <time>2010-09-04T08:49:38Z</time>
      </trkpt>
      <trkpt lat="43.79871" lon="7.1574">
        <ele>683</ele>
        <time>2010-09-04T08:49:45Z</time>
      </trkpt>
      <trkpt lat="43.79866" lon="7.15734">
        <ele>683</ele>
        <time>2010-09-04T08:49:51Z</time>
      </trkpt>
      <trkpt lat="43.79863" lon="7.15727">
        <ele>683</ele>
        <time>2010-09-04T08:49:58Z</time>
      </trkpt>
      <trkpt lat="43.79855" lon="7.15719">
        <ele>684</ele>
        <time>2010-09-04T08:50:06Z</time>
      </trkpt>
      <trkpt lat="43.7985" lon="7.15716">
        <ele>684</ele>
        <time>2010-09-04T08:50:11Z</time>
      </trkpt>
      <trkpt lat="43.79849" lon="7.15713">
        <ele>684</ele>
        <time>2010-09-04T08:50:16Z</time>
      </trkpt>
      <trkpt lat="43.79845" lon="7.15708">
        <ele>684</ele>
        <time>2010-09-04T08:50:20Z</time>
      </trkpt>
      <trkpt lat="43.79843" lon="7.15705">
        <ele>684</ele>
        <time>2010-09-04T08:50:22Z</time>
      </trkpt>
      <trkpt lat="43.79838" lon="7.15697">
        <ele>684</ele>
        <time>2010-09-04T08:50:29Z</time>
      </trkpt>
      <trkpt lat="43.79832" lon="7.15687">
        <ele>691</ele>
        <time>2010-09-04T08:50:35Z</time>
      </trkpt>
      <trkpt lat="43.79826" lon="7.15679">
        <ele>690</ele>
        <time>2010-09-04T08:50:41Z</time>
      </trkpt>
      <trkpt lat="43.79824" lon="7.15678">
        <ele>690</ele>
        <time>2010-09-04T08:50:42Z</time>
      </trkpt>
      <trkpt lat="43.79821" lon="7.15674">
        <ele>690</ele>
        <time>2010-09-04T08:50:48Z</time>
      </trkpt>
      <trkpt lat="43.79818" lon="7.1567">
        <ele>690</ele>
        <time>2010-09-04T08:50:52Z</time>
      </trkpt>
      <trkpt lat="43.79813" lon="7.15662">
        <ele>691</ele>
        <time>2010-09-04T08:50:59Z</time>
      </trkpt>
      <trkpt lat="43.79806" lon="7.15655">
        <ele>693</ele>
        <time>2010-09-04T08:51:07Z</time>
      </trkpt>
      <trkpt lat="43.79804" lon="7.1565">
        <ele>693</ele>
        <time>2010-09-04T08:51:11Z</time>
      </trkpt>
      <trkpt lat="43.798" lon="7.15639">
        <ele>695</ele>
        <time>2010-09-04T08:51:18Z</time>
      </trkpt>
      <trkpt lat="43.79793" lon="7.1563">
        <ele>695</ele>
        <time>2010-09-04T08:51:24Z</time>
      </trkpt>
      <trkpt lat="43.79787" lon="7.15622">
        <ele>696</ele>
        <time>2010-09-04T08:51:30Z</time>
      </trkpt>
      <trkpt lat="43.79785" lon="7.15618">
        <ele>696</ele>
        <time>2010-09-04T08:51:37Z</time>
      </trkpt>
      <trkpt lat="43.79781" lon="7.1561">
        <ele>696</ele>
        <time>2010-09-04T08:51:44Z</time>
      </trkpt>
      <trkpt lat="43.79777" lon="7.15606">
        <ele>696</ele>
        <time>2010-09-04T08:51:51Z</time>
      </trkpt>
      <trkpt lat="43.79772" lon="7.15603">
        <ele>696</ele>
        <time>2010-09-04T08:51:58Z</time>
      </trkpt>
      <trkpt lat="43.79768" lon="7.15599">
        <ele>696</ele>
        <time>2010-09-04T08:52:06Z</time>
      </trkpt>
      <trkpt lat="43.79763" lon="7.15599">
        <ele>696</ele>
        <time>2010-09-04T08:52:12Z</time>
      </trkpt>
      <trkpt lat="43.79758" lon="7.15597">
        <ele>696</ele>
        <time>2010-09-04T08:52:18Z</time>
      </trkpt>
      <trkpt lat="43.79752" lon="7.15594">
        <ele>696</ele>
        <time>2010-09-04T08:52:26Z</time>
      </trkpt>
      <trkpt lat="43.79748" lon="7.15591">
        <ele>701</ele>
        <time>2010-09-04T08:52:31Z</time>
      </trkpt>
      <trkpt lat="43.79744" lon="7.15588">
        <ele>701</ele>
        <time>2010-09-04T08:52:36Z</time>
      </trkpt>
      <trkpt lat="43.79738" lon="7.15584">
        <ele>703</ele>
        <time>2010-09-04T08:52:44Z</time>
      </trkpt>
      <trkpt lat="43.79732" lon="7.1558">
        <ele>703</ele>
        <time>2010-09-04T08:52:51Z</time>
      </trkpt>
      <trkpt lat="43.79727" lon="7.15574">
        <ele>704</ele>
        <time>2010-09-04T08:52:58Z</time>
      </trkpt>
      <trkpt lat="43.79723" lon="7.15572">
        <ele>705</ele>
        <time>2010-09-04T08:53:02Z</time>
      </trkpt>
      <trkpt lat="43.79719" lon="7.15567">
        <ele>706</ele>
        <time>2010-09-04T08:53:07Z</time>
      </trkpt>
      <trkpt lat="43.79713" lon="7.1556">
        <ele>707</ele>
        <time>2010-09-04T08:53:15Z</time>
      </trkpt>
      <trkpt lat="43.79706" lon="7.15554">
        <ele>708</ele>
        <time>2010-09-04T08:53:23Z</time>
      </trkpt>
      <trkpt lat="43.79703" lon="7.15549">
        <ele>708</ele>
        <time>2010-09-04T08:53:28Z</time>
      </trkpt>
      <trkpt lat="43.79701" lon="7.15548">
        <ele>708</ele>
        <time>2010-09-04T08:53:30Z</time>
      </trkpt>
      <trkpt lat="43.79694" lon="7.15542">
        <ele>709</ele>
        <time>2010-09-04T08:53:37Z</time>
      </trkpt>
      <trkpt lat="43.79686" lon="7.15533">
        <ele>709</ele>
        <time>2010-09-04T08:53:45Z</time>
      </trkpt>
      <trkpt lat="43.79677" lon="7.15526">
        <ele>709</ele>
        <time>2010-09-04T08:53:53Z</time>
      </trkpt>
      <trkpt lat="43.79676" lon="7.15524">
        <ele>709</ele>
        <time>2010-09-04T08:53:55Z</time>
      </trkpt>
      <trkpt lat="43.79671" lon="7.15518">
        <ele>709</ele>
        <time>2010-09-04T08:54:02Z</time>
      </trkpt>
      <trkpt lat="43.79669" lon="7.15516">
        <ele>709</ele>
        <time>2010-09-04T08:54:08Z</time>
      </trkpt>
      <trkpt lat="43.79662" lon="7.15508">
        <ele>715</ele>
        <time>2010-09-04T08:54:14Z</time>
      </trkpt>
      <trkpt lat="43.79654" lon="7.155">
        <ele>715</ele>
        <time>2010-09-04T08:54:20Z</time>
      </trkpt>
      <trkpt lat="43.79642" lon="7.15489">
        <ele>719</ele>
        <time>2010-09-04T08:54:27Z</time>
      </trkpt>
      <trkpt lat="43.79631" lon="7.15484">
        <ele>721</ele>
        <time>2010-09-04T08:54:32Z</time>
      </trkpt>
      <trkpt lat="43.79619" lon="7.15479">
        <ele>723</ele>
        <time>2010-09-04T08:54:38Z</time>
      </trkpt>
      <trkpt lat="43.79617" lon="7.15478">
        <ele>723</ele>
        <time>2010-09-04T08:54:39Z</time>
      </trkpt>
      <trkpt lat="43.79614" lon="7.15476">
        <ele>723</ele>
        <time>2010-09-04T08:54:46Z</time>
      </trkpt>
      <trkpt lat="43.79609" lon="7.15475">
        <ele>724</ele>
        <time>2010-09-04T08:54:54Z</time>
      </trkpt>
      <trkpt lat="43.79605" lon="7.15476">
        <ele>724</ele>
        <time>2010-09-04T08:54:59Z</time>
      </trkpt>
      <trkpt lat="43.79599" lon="7.15475">
        <ele>724</ele>
        <time>2010-09-04T08:55:06Z</time>
      </trkpt>
      <trkpt lat="43.79596" lon="7.15473">
        <ele>725</ele>
        <time>2010-09-04T08:55:11Z</time>
      </trkpt>
      <trkpt lat="43.79594" lon="7.15471">
        <ele>725</ele>
        <time>2010-09-04T08:55:17Z</time>
      </trkpt>
      <trkpt lat="43.7959" lon="7.15465">
        <ele>725</ele>
        <time>2010-09-04T08:55:24Z</time>
      </trkpt>
      <trkpt lat="43.79585" lon="7.15463">
        <ele>725</ele>
        <time>2010-09-04T08:55:29Z</time>
      </trkpt>
      <trkpt lat="43.7958" lon="7.15458">
        <ele>734</ele>
        <time>2010-09-04T08:55:36Z</time>
      </trkpt>
      <trkpt lat="43.79574" lon="7.15452">
        <ele>734</ele>
        <time>2010-09-04T08:55:43Z</time>
      </trkpt>
      <trkpt lat="43.79572" lon="7.15452">
        <ele>734</ele>
        <time>2010-09-04T08:55:45Z</time>
      </trkpt>
      <trkpt lat="43.79564" lon="7.15448">
        <ele>734</ele>
        <time>2010-09-04T08:55:53Z</time>
      </trkpt>
      <trkpt lat="43.79562" lon="7.15448">
        <ele>734</ele>
        <time>2010-09-04T08:55:55Z</time>
      </trkpt>
      <trkpt lat="43.79555" lon="7.15445">
        <ele>735</ele>
        <time>2010-09-04T08:56:02Z</time>
      </trkpt>
      <trkpt lat="43.79545" lon="7.15439">
        <ele>735</ele>
        <time>2010-09-04T08:56:12Z</time>
      </trkpt>
      <trkpt lat="43.79544" lon="7.15439">
        <ele>735</ele>
        <time>2010-09-04T08:56:13Z</time>
      </trkpt>
      <trkpt lat="43.79536" lon="7.15431">
        <ele>736</ele>
        <time>2010-09-04T08:56:22Z</time>
      </trkpt>
      <trkpt lat="43.7953" lon="7.15427">
        <ele>736</ele>
        <time>2010-09-04T08:56:28Z</time>
      </trkpt>
      <trkpt lat="43.79522" lon="7.1542">
        <ele>736</ele>
        <time>2010-09-04T08:56:37Z</time>
      </trkpt>
      <trkpt lat="43.79517" lon="7.15416">
        <ele>736</ele>
        <time>2010-09-04T08:56:42Z</time>
      </trkpt>
      <trkpt lat="43.79501" lon="7.15402">
        <ele>736</ele>
        <time>2010-09-04T08:56:51Z</time>
      </trkpt>
      <trkpt lat="43.79488" lon="7.15392">
        <ele>743</ele>
        <time>2010-09-04T08:56:57Z</time>
      </trkpt>
      <trkpt lat="43.79476" lon="7.15381">
        <ele>745</ele>
        <time>2010-09-04T08:57:03Z</time>
      </trkpt>
      <trkpt lat="43.79472" lon="7.15376">
        <ele>745</ele>
        <time>2010-09-04T08:57:06Z</time>
      </trkpt>
      <trkpt lat="43.79464" lon="7.15371">
        <ele>746</ele>
        <time>2010-09-04T08:57:12Z</time>
      </trkpt>
      <trkpt lat="43.79461" lon="7.15367">
        <ele>746</ele>
        <time>2010-09-04T08:57:17Z</time>
      </trkpt>
      <trkpt lat="43.79455" lon="7.15361">
        <ele>747</ele>
        <time>2010-09-04T08:57:22Z</time>
      </trkpt>
      <trkpt lat="43.79444" lon="7.15354">
        <ele>747</ele>
        <time>2010-09-04T08:57:28Z</time>
      </trkpt>
      <trkpt lat="43.7944" lon="7.15352">
        <ele>747</ele>
        <time>2010-09-04T08:57:30Z</time>
      </trkpt>
      <trkpt lat="43.79428" lon="7.15346">
        <ele>748</ele>
        <time>2010-09-04T08:57:36Z</time>
      </trkpt>
      <trkpt lat="43.79427" lon="7.15345">
        <ele>748</ele>
        <time>2010-09-04T08:57:37Z</time>
      </trkpt>
      <trkpt lat="43.79413" lon="7.15336">
        <ele>751</ele>
        <time>2010-09-04T08:57:45Z</time>
      </trkpt>
      <trkpt lat="43.79404" lon="7.15327">
        <ele>752</ele>
        <time>2010-09-04T08:57:51Z</time>
      </trkpt>
      <trkpt lat="43.79395" lon="7.15321">
        <ele>754</ele>
        <time>2010-09-04T08:57:55Z</time>
      </trkpt>
      <trkpt lat="43.79385" lon="7.15316">
        <ele>756</ele>
        <time>2010-09-04T08:58:01Z</time>
      </trkpt>
      <trkpt lat="43.79381" lon="7.15314">
        <ele>756</ele>
        <time>2010-09-04T08:58:03Z</time>
      </trkpt>
      <trkpt lat="43.79372" lon="7.1531">
        <ele>757</ele>
        <time>2010-09-04T08:58:09Z</time>
      </trkpt>
      <trkpt lat="43.79365" lon="7.15305">
        <ele>757</ele>
        <time>2010-09-04T08:58:14Z</time>
      </trkpt>
      <trkpt lat="43.79358" lon="7.15297">
        <ele>758</ele>
        <time>2010-09-04T08:58:19Z</time>
      </trkpt>
      <trkpt lat="43.79346" lon="7.15289">
        <ele>758</ele>
        <time>2010-09-04T08:58:27Z</time>
      </trkpt>
      <trkpt lat="43.79339" lon="7.15287">
        <ele>758</ele>
        <time>2010-09-04T08:58:34Z</time>
      </trkpt>
      <trkpt lat="43.79335" lon="7.15284">
        <ele>757</ele>
        <time>2010-09-04T08:58:40Z</time>
      </trkpt>
      <trkpt lat="43.79329" lon="7.15279">
        <ele>765</ele>
        <time>2010-09-04T08:58:48Z</time>
      </trkpt>
      <trkpt lat="43.79327" lon="7.15278">
        <ele>765</ele>
        <time>2010-09-04T08:58:54Z</time>
      </trkpt>
      <trkpt lat="43.79321" lon="7.15278">
        <ele>766</ele>
        <time>2010-09-04T08:59:00Z</time>
      </trkpt>
      <trkpt lat="43.79316" lon="7.15275">
        <ele>766</ele>
        <time>2010-09-04T08:59:06Z</time>
      </trkpt>
      <trkpt lat="43.79312" lon="7.15271">
        <ele>766</ele>
        <time>2010-09-04T08:59:10Z</time>
      </trkpt>
      <trkpt lat="43.79309" lon="7.15269">
        <ele>766</ele>
        <time>2010-09-04T08:59:13Z</time>
      </trkpt>
      <trkpt lat="43.79305" lon="7.15264">
        <ele>766</ele>
        <time>2010-09-04T08:59:18Z</time>
      </trkpt>
      <trkpt lat="43.79303" lon="7.15259">
        <ele>766</ele>
        <time>2010-09-04T08:59:23Z</time>
      </trkpt>
      <trkpt lat="43.79295" lon="7.15247">
        <ele>765</ele>
        <time>2010-09-04T08:59:32Z</time>
      </trkpt>
      <trkpt lat="43.79289" lon="7.15242">
        <ele>766</ele>
        <time>2010-09-04T08:59:41Z</time>
      </trkpt>
      <trkpt lat="43.79285" lon="7.15237">
        <ele>767</ele>
        <time>2010-09-04T08:59:47Z</time>
      </trkpt>
      <trkpt lat="43.79281" lon="7.15231">
        <ele>767</ele>
        <time>2010-09-04T08:59:54Z</time>
      </trkpt>
      <trkpt lat="43.79277" lon="7.15226">
        <ele>767</ele>
        <time>2010-09-04T08:59:59Z</time>
      </trkpt>
      <trkpt lat="43.79265" lon="7.15222">
        <ele>768</ele>
        <time>2010-09-04T09:00:08Z</time>
      </trkpt>
      <trkpt lat="43.79255" lon="7.15213">
        <ele>768</ele>
        <time>2010-09-04T09:00:13Z</time>
      </trkpt>
      <trkpt lat="43.79244" lon="7.15201">
        <ele>777</ele>
        <time>2010-09-04T09:00:19Z</time>
      </trkpt>
      <trkpt lat="43.79234" lon="7.15188">
        <ele>776</ele>
        <time>2010-09-04T09:00:25Z</time>
      </trkpt>
      <trkpt lat="43.79233" lon="7.15181">
        <ele>775</ele>
        <time>2010-09-04T09:00:27Z</time>
      </trkpt>
      <trkpt lat="43.79227" lon="7.15172">
        <ele>776</ele>
        <time>2010-09-04T09:00:32Z</time>
      </trkpt>
      <trkpt lat="43.79224" lon="7.15168">
        <ele>777</ele>
        <time>2010-09-04T09:00:38Z</time>
      </trkpt>
      <trkpt lat="43.79218" lon="7.15158">
        <ele>775</ele>
        <time>2010-09-04T09:00:46Z</time>
      </trkpt>
      <trkpt lat="43.79213" lon="7.15146">
        <ele>776</ele>
        <time>2010-09-04T09:00:53Z</time>
      </trkpt>
      <trkpt lat="43.7921" lon="7.15144">
        <ele>777</ele>
        <time>2010-09-04T09:00:56Z</time>
      </trkpt>
      <trkpt lat="43.79205" lon="7.15141">
        <ele>777</ele>
        <time>2010-09-04T09:01:03Z</time>
      </trkpt>
      <trkpt lat="43.792" lon="7.15142">
        <ele>778</ele>
        <time>2010-09-04T09:01:10Z</time>
      </trkpt>
      <trkpt lat="43.79194" lon="7.15142">
        <ele>778</ele>
        <time>2010-09-04T09:01:16Z</time>
      </trkpt>
      <trkpt lat="43.79191" lon="7.15138">
        <ele>778</ele>
        <time>2010-09-04T09:01:22Z</time>
      </trkpt>
      <trkpt lat="43.79186" lon="7.15131">
        <ele>778</ele>
        <time>2010-09-04T09:01:29Z</time>
      </trkpt>
      <trkpt lat="43.79181" lon="7.15127">
        <ele>778</ele>
        <time>2010-09-04T09:01:34Z</time>
      </trkpt>
      <trkpt lat="43.79174" lon="7.1512">
        <ele>778</ele>
        <time>2010-09-04T09:01:42Z</time>
      </trkpt>
      <trkpt lat="43.79171" lon="7.15118">
        <ele>778</ele>
        <time>2010-09-04T09:01:45Z</time>
      </trkpt>
      <trkpt lat="43.79168" lon="7.15115">
        <ele>778</ele>
        <time>2010-09-04T09:01:48Z</time>
      </trkpt>
      <trkpt lat="43.79166" lon="7.15112">
        <ele>788</ele>
        <time>2010-09-04T09:01:54Z</time>
      </trkpt>
      <trkpt lat="43.79157" lon="7.15102">
        <ele>787</ele>
        <time>2010-09-04T09:02:00Z</time>
      </trkpt>
      <trkpt lat="43.79147" lon="7.15092">
        <ele>787</ele>
        <time>2010-09-04T09:02:06Z</time>
      </trkpt>
      <trkpt lat="43.7914" lon="7.15078">
        <ele>784</ele>
        <time>2010-09-04T09:02:12Z</time>
      </trkpt>
      <trkpt lat="43.79131" lon="7.15063">
        <ele>786</ele>
        <time>2010-09-04T09:02:19Z</time>
      </trkpt>
      <trkpt lat="43.79124" lon="7.15053">
        <ele>787</ele>
        <time>2010-09-04T09:02:25Z</time>
      </trkpt>
      <trkpt lat="43.79122" lon="7.15046">
        <ele>787</ele>
        <time>2010-09-04T09:02:29Z</time>
      </trkpt>
      <trkpt lat="43.79113" lon="7.15033">
        <ele>787</ele>
        <time>2010-09-04T09:02:37Z</time>
      </trkpt>
      <trkpt lat="43.79111" lon="7.15031">
        <ele>787</ele>
        <time>2010-09-04T09:02:39Z</time>
      </trkpt>
      <trkpt lat="43.79108" lon="7.15029">
        <ele>787</ele>
        <time>2010-09-04T09:02:45Z</time>
      </trkpt>
      <trkpt lat="43.79102" lon="7.15022">
        <ele>787</ele>
        <time>2010-09-04T09:02:52Z</time>
      </trkpt>
      <trkpt lat="43.79099" lon="7.15017">
        <ele>787</ele>
        <time>2010-09-04T09:02:56Z</time>
      </trkpt>
      <trkpt lat="43.79095" lon="7.15011">
        <ele>787</ele>
        <time>2010-09-04T09:03:02Z</time>
      </trkpt>
      <trkpt lat="43.79089" lon="7.15004">
        <ele>786</ele>
        <time>2010-09-04T09:03:07Z</time>
      </trkpt>
      <trkpt lat="43.79081" lon="7.14997">
        <ele>787</ele>
        <time>2010-09-04T09:03:13Z</time>
      </trkpt>
      <trkpt lat="43.79073" lon="7.14991">
        <ele>790</ele>
        <time>2010-09-04T09:03:19Z</time>
      </trkpt>
      <trkpt lat="43.79063" lon="7.14984">
        <ele>792</ele>
        <time>2010-09-04T09:03:25Z</time>
      </trkpt>
      <trkpt lat="43.79054" lon="7.14976">
        <ele>794</ele>
        <time>2010-09-04T09:03:31Z</time>
      </trkpt>
      <trkpt lat="43.79049" lon="7.1497">
        <ele>795</ele>
        <time>2010-09-04T09:03:37Z</time>
      </trkpt>
      <trkpt lat="43.79044" lon="7.14964">
        <ele>795</ele>
        <time>2010-09-04T09:03:41Z</time>
      </trkpt>
      <trkpt lat="43.79035" lon="7.14952">
        <ele>796</ele>
        <time>2010-09-04T09:03:47Z</time>
      </trkpt>
      <trkpt lat="43.79028" lon="7.14946">
        <ele>796</ele>
        <time>2010-09-04T09:03:51Z</time>
      </trkpt>
      <trkpt lat="43.79019" lon="7.14938">
        <ele>796</ele>
        <time>2010-09-04T09:03:56Z</time>
      </trkpt>
      <trkpt lat="43.79003" lon="7.14929">
        <ele>795</ele>
        <time>2010-09-04T09:04:03Z</time>
      </trkpt>
      <trkpt lat="43.78992" lon="7.14912">
        <ele>798</ele>
        <time>2010-09-04T09:04:10Z</time>
      </trkpt>
      <trkpt lat="43.78982" lon="7.14905">
        <ele>800</ele>
        <time>2010-09-04T09:04:16Z</time>
      </trkpt>
      <trkpt lat="43.78981" lon="7.14904">
        <ele>800</ele>
        <time>2010-09-04T09:04:17Z</time>
      </trkpt>
      <trkpt lat="43.78969" lon="7.14895">
        <ele>802</ele>
        <time>2010-09-04T09:04:25Z</time>
      </trkpt>
      <trkpt lat="43.78958" lon="7.1489">
        <ele>802</ele>
        <time>2010-09-04T09:04:33Z</time>
      </trkpt>
      <trkpt lat="43.78951" lon="7.14887">
        <ele>803</ele>
        <time>2010-09-04T09:04:37Z</time>
      </trkpt>
      <trkpt lat="43.78947" lon="7.14883">
        <ele>803</ele>
        <time>2010-09-04T09:04:40Z</time>
      </trkpt>
      <trkpt lat="43.78941" lon="7.14877">
        <ele>803</ele>
        <time>2010-09-04T09:04:45Z</time>
      </trkpt>
      <trkpt lat="43.78929" lon="7.14868">
        <ele>803</ele>
        <time>2010-09-04T09:04:55Z</time>
      </trkpt>
      <trkpt lat="43.7892" lon="7.14862">
        <ele>803</ele>
        <time>2010-09-04T09:05:01Z</time>
      </trkpt>
      <trkpt lat="43.78918" lon="7.1486">
        <ele>803</ele>
        <time>2010-09-04T09:05:09Z</time>
      </trkpt>
      <trkpt lat="43.78913" lon="7.14856">
        <ele>808</ele>
        <time>2010-09-04T09:05:16Z</time>
      </trkpt>
      <trkpt lat="43.78909" lon="7.14854">
        <ele>808</ele>
        <time>2010-09-04T09:05:22Z</time>
      </trkpt>
      <trkpt lat="43.78903" lon="7.14848">
        <ele>808</ele>
        <time>2010-09-04T09:05:29Z</time>
      </trkpt>
      <trkpt lat="43.789" lon="7.14845">
        <ele>808</ele>
        <time>2010-09-04T09:05:32Z</time>
      </trkpt>
      <trkpt lat="43.78894" lon="7.14841">
        <ele>809</ele>
        <time>2010-09-04T09:05:38Z</time>
      </trkpt>
      <trkpt lat="43.78889" lon="7.14838">
        <ele>809</ele>
        <time>2010-09-04T09:05:43Z</time>
      </trkpt>
      <trkpt lat="43.78883" lon="7.14835">
        <ele>810</ele>
        <time>2010-09-04T09:05:50Z</time>
      </trkpt>
      <trkpt lat="43.78877" lon="7.14835">
        <ele>811</ele>
        <time>2010-09-04T09:05:57Z</time>
      </trkpt>
      <trkpt lat="43.7887" lon="7.14832">
        <ele>811</ele>
        <time>2010-09-04T09:06:04Z</time>
      </trkpt>
      <trkpt lat="43.78864" lon="7.14829">
        <ele>811</ele>
        <time>2010-09-04T09:06:10Z</time>
      </trkpt>
      <trkpt lat="43.78859" lon="7.14827">
        <ele>812</ele>
        <time>2010-09-04T09:06:15Z</time>
      </trkpt>
      <trkpt lat="43.78853" lon="7.14823">
        <ele>812</ele>
        <time>2010-09-04T09:06:21Z</time>
      </trkpt>
      <trkpt lat="43.78849" lon="7.14823">
        <ele>812</ele>
        <time>2010-09-04T09:06:24Z</time>
      </trkpt>
      <trkpt lat="43.78845" lon="7.14819">
        <ele>813</ele>
        <time>2010-09-04T09:06:29Z</time>
      </trkpt>
      <trkpt lat="43.78837" lon="7.14813">
        <ele>813</ele>
        <time>2010-09-04T09:06:38Z</time>
      </trkpt>
      <trkpt lat="43.78833" lon="7.14809">
        <ele>816</ele>
        <time>2010-09-04T09:06:44Z</time>
      </trkpt>
      <trkpt lat="43.7883" lon="7.14804">
        <ele>816</ele>
        <time>2010-09-04T09:06:50Z</time>
      </trkpt>
      <trkpt lat="43.78827" lon="7.148">
        <ele>816</ele>
        <time>2010-09-04T09:06:58Z</time>
      </trkpt>
      <trkpt lat="43.78819" lon="7.14794">
        <ele>817</ele>
        <time>2010-09-04T09:07:03Z</time>
      </trkpt>
      <trkpt lat="43.78814" lon="7.14789">
        <ele>817</ele>
        <time>2010-09-04T09:07:07Z</time>
      </trkpt>
      <trkpt lat="43.78811" lon="7.14784">
        <ele>817</ele>
        <time>2010-09-04T09:07:13Z</time>
      </trkpt>
      <trkpt lat="43.78805" lon="7.14774">
        <ele>817</ele>
        <time>2010-09-04T09:07:20Z</time>
      </trkpt>
      <trkpt lat="43.78797" lon="7.14762">
        <ele>817</ele>
        <time>2010-09-04T09:07:26Z</time>
      </trkpt>
      <trkpt lat="43.78787" lon="7.14753">
        <ele>817</ele>
        <time>2010-09-04T09:07:31Z</time>
      </trkpt>
      <trkpt lat="43.78777" lon="7.14743">
        <ele>817</ele>
        <time>2010-09-04T09:07:37Z</time>
      </trkpt>
      <trkpt lat="43.78776" lon="7.14743">
        <ele>817</ele>
        <time>2010-09-04T09:07:38Z</time>
      </trkpt>
      <trkpt lat="43.78774" lon="7.14739">
        <ele>817</ele>
        <time>2010-09-04T09:07:45Z</time>
      </trkpt>
      <trkpt lat="43.7877" lon="7.14739">
        <ele>817</ele>
        <time>2010-09-04T09:07:49Z</time>
      </trkpt>
      <trkpt lat="43.78763" lon="7.14739">
        <ele>817</ele>
        <time>2010-09-04T09:07:54Z</time>
      </trkpt>
      <trkpt lat="43.78755" lon="7.14735">
        <ele>817</ele>
        <time>2010-09-04T09:07:59Z</time>
      </trkpt>
      <trkpt lat="43.78736" lon="7.14724">
        <ele>817</ele>
        <time>2010-09-04T09:08:07Z</time>
      </trkpt>
      <trkpt lat="43.78722" lon="7.1471">
        <ele>817</ele>
        <time>2010-09-04T09:08:12Z</time>
      </trkpt>
      <trkpt lat="43.78709" lon="7.147">
        <ele>816</ele>
        <time>2010-09-04T09:08:17Z</time>
      </trkpt>
      <trkpt lat="43.78693" lon="7.14685">
        <ele>816</ele>
        <time>2010-09-04T09:08:23Z</time>
      </trkpt>
      <trkpt lat="43.7868" lon="7.14678">
        <ele>815</ele>
        <time>2010-09-04T09:08:29Z</time>
      </trkpt>
      <trkpt lat="43.78673" lon="7.1468">
        <ele>814</ele>
        <time>2010-09-04T09:08:34Z</time>
      </trkpt>
      <trkpt lat="43.78673" lon="7.1468">
        <ele>814</ele>
        <time>2010-09-04T09:08:41Z</time>
      </trkpt>
      <trkpt lat="43.78672" lon="7.14681">
        <ele>814</ele>
        <time>2010-09-04T09:08:47Z</time>
      </trkpt>
      <trkpt lat="43.78671" lon="7.1468">
        <ele>814</ele>
        <time>2010-09-04T09:08:55Z</time>
      </trkpt>
      <trkpt lat="43.78669" lon="7.14678">
        <ele>814</ele>
        <time>2010-09-04T09:09:01Z</time>
      </trkpt>
      <trkpt lat="43.78669" lon="7.14676">
        <ele>814</ele>
        <time>2010-09-04T09:09:10Z</time>
      </trkpt>
      <trkpt lat="43.78669" lon="7.14675">
        <ele>814</ele>
        <time>2010-09-04T09:09:20Z</time>
      </trkpt>
      <trkpt lat="43.7867" lon="7.14675">
        <ele>814</ele>
        <time>2010-09-04T09:09:33Z</time>
      </trkpt>
      <trkpt lat="43.78672" lon="7.14674">
        <ele>814</ele>
        <time>2010-09-04T09:10:04Z</time>
      </trkpt>
      <trkpt lat="43.78672" lon="7.14676">
        <ele>814</ele>
        <time>2010-09-04T09:10:10Z</time>
      </trkpt>
      <trkpt lat="43.78671" lon="7.14677">
        <ele>814</ele>
        <time>2010-09-04T09:10:16Z</time>
      </trkpt>
      <trkpt lat="43.7867" lon="7.14676">
        <ele>814</ele>
        <time>2010-09-04T09:10:27Z</time>
      </trkpt>
      <trkpt lat="43.78671" lon="7.14677">
        <ele>814</ele>
        <time>2010-09-04T09:10:34Z</time>
      </trkpt>
      <trkpt lat="43.78676" lon="7.14672">
        <ele>814</ele>
        <time>2010-09-04T09:10:58Z</time>
      </trkpt>
      <trkpt lat="43.78689" lon="7.14661">
        <ele>816</ele>
        <time>2010-09-04T09:11:57Z</time>
      </trkpt>
      <trkpt lat="43.78687" lon="7.14662">
        <ele>816</ele>
        <time>2010-09-04T09:12:03Z</time>
      </trkpt>
      <trkpt lat="43.78684" lon="7.14665">
        <ele>816</ele>
        <time>2010-09-04T09:12:16Z</time>
      </trkpt>
      <trkpt lat="43.78682" lon="7.14667">
        <ele>814</ele>
        <time>2010-09-04T09:12:21Z</time>
      </trkpt>
      <trkpt lat="43.7868" lon="7.1467">
        <ele>814</ele>
        <time>2010-09-04T09:12:32Z</time>
      </trkpt>
      <trkpt lat="43.78679" lon="7.14671">
        <ele>814</ele>
        <time>2010-09-04T09:12:39Z</time>
      </trkpt>
      <trkpt lat="43.78678" lon="7.14673">
        <ele>814</ele>
        <time>2010-09-04T09:12:49Z</time>
      </trkpt>
      <trkpt lat="43.78676" lon="7.14676">
        <ele>814</ele>
        <time>2010-09-04T09:12:55Z</time>
      </trkpt>
      <trkpt lat="43.78675" lon="7.14676">
        <ele>814</ele>
        <time>2010-09-04T09:13:00Z</time>
      </trkpt>
      <trkpt lat="43.78674" lon="7.14678">
        <ele>814</ele>
        <time>2010-09-04T09:13:05Z</time>
      </trkpt>
      <trkpt lat="43.78674" lon="7.14683">
        <ele>815</ele>
        <time>2010-09-04T09:13:12Z</time>
      </trkpt>
      <trkpt lat="43.78672" lon="7.14691">
        <ele>815</ele>
        <time>2010-09-04T09:13:18Z</time>
      </trkpt>
      <trkpt lat="43.78672" lon="7.14702">
        <ele>816</ele>
        <time>2010-09-04T09:13:24Z</time>
      </trkpt>
      <trkpt lat="43.78677" lon="7.14713">
        <ele>817</ele>
        <time>2010-09-04T09:13:30Z</time>
      </trkpt>
      <trkpt lat="43.78682" lon="7.14726">
        <ele>818</ele>
        <time>2010-09-04T09:13:37Z</time>
      </trkpt>
      <trkpt lat="43.78686" lon="7.14736">
        <ele>819</ele>
        <time>2010-09-04T09:13:43Z</time>
      </trkpt>
      <trkpt lat="43.78689" lon="7.14747">
        <ele>819</ele>
        <time>2010-09-04T09:13:49Z</time>
      </trkpt>
      <trkpt lat="43.78692" lon="7.1476">
        <ele>826</ele>
        <time>2010-09-04T09:13:57Z</time>
      </trkpt>
      <trkpt lat="43.78695" lon="7.14769">
        <ele>826</ele>
        <time>2010-09-04T09:14:03Z</time>
      </trkpt>
      <trkpt lat="43.78697" lon="7.14773">
        <ele>826</ele>
        <time>2010-09-04T09:14:08Z</time>
      </trkpt>
      <trkpt lat="43.78698" lon="7.1478">
        <ele>827</ele>
        <time>2010-09-04T09:14:14Z</time>
      </trkpt>
      <trkpt lat="43.78702" lon="7.14787">
        <ele>828</ele>
        <time>2010-09-04T09:14:21Z</time>
      </trkpt>
      <trkpt lat="43.78706" lon="7.14795">
        <ele>828</ele>
        <time>2010-09-04T09:14:29Z</time>
      </trkpt>
      <trkpt lat="43.78711" lon="7.14803">
        <ele>828</ele>
        <time>2010-09-04T09:14:37Z</time>
      </trkpt>
      <trkpt lat="43.78715" lon="7.14809">
        <ele>829</ele>
        <time>2010-09-04T09:14:44Z</time>
      </trkpt>
      <trkpt lat="43.78719" lon="7.14815">
        <ele>829</ele>
        <time>2010-09-04T09:14:51Z</time>
      </trkpt>
      <trkpt lat="43.78724" lon="7.14823">
        <ele>828</ele>
        <time>2010-09-04T09:15:01Z</time>
      </trkpt>
      <trkpt lat="43.78726" lon="7.14831">
        <ele>828</ele>
        <time>2010-09-04T09:15:10Z</time>
      </trkpt>
      <trkpt lat="43.78734" lon="7.14845">
        <ele>836</ele>
        <time>2010-09-04T09:15:17Z</time>
      </trkpt>
      <trkpt lat="43.7874" lon="7.1486">
        <ele>838</ele>
        <time>2010-09-04T09:15:24Z</time>
      </trkpt>
      <trkpt lat="43.78744" lon="7.14872">
        <ele>840</ele>
        <time>2010-09-04T09:15:30Z</time>
      </trkpt>
      <trkpt lat="43.78747" lon="7.1488">
        <ele>841</ele>
        <time>2010-09-04T09:15:36Z</time>
      </trkpt>
      <trkpt lat="43.78748" lon="7.1488">
        <ele>841</ele>
        <time>2010-09-04T09:15:40Z</time>
      </trkpt>
      <trkpt lat="43.78752" lon="7.14882">
        <ele>831</ele>
        <time>2010-09-04T09:15:46Z</time>
      </trkpt>
      <trkpt lat="43.78754" lon="7.14888">
        <ele>832</ele>
        <time>2010-09-04T09:15:53Z</time>
      </trkpt>
      <trkpt lat="43.78756" lon="7.14894">
        <ele>833</ele>
        <time>2010-09-04T09:15:59Z</time>
      </trkpt>
      <trkpt lat="43.7876" lon="7.14902">
        <ele>834</ele>
        <time>2010-09-04T09:16:07Z</time>
      </trkpt>
      <trkpt lat="43.78763" lon="7.14909">
        <ele>835</ele>
        <time>2010-09-04T09:16:14Z</time>
      </trkpt>
      <trkpt lat="43.78767" lon="7.14919">
        <ele>842</ele>
        <time>2010-09-04T09:16:22Z</time>
      </trkpt>
      <trkpt lat="43.7877" lon="7.14926">
        <ele>843</ele>
        <time>2010-09-04T09:16:28Z</time>
      </trkpt>
      <trkpt lat="43.78774" lon="7.14932">
        <ele>843</ele>
        <time>2010-09-04T09:16:33Z</time>
      </trkpt>
      <trkpt lat="43.78777" lon="7.14938">
        <ele>843</ele>
        <time>2010-09-04T09:16:39Z</time>
      </trkpt>
      <trkpt lat="43.78783" lon="7.14948">
        <ele>844</ele>
        <time>2010-09-04T09:16:48Z</time>
      </trkpt>
      <trkpt lat="43.78784" lon="7.14949">
        <ele>844</ele>
        <time>2010-09-04T09:16:49Z</time>
      </trkpt>
      <trkpt lat="43.78786" lon="7.14954">
        <ele>844</ele>
        <time>2010-09-04T09:16:53Z</time>
      </trkpt>
      <trkpt lat="43.78792" lon="7.14969">
        <ele>845</ele>
        <time>2010-09-04T09:17:03Z</time>
      </trkpt>
      <trkpt lat="43.78792" lon="7.14971">
        <ele>845</ele>
        <time>2010-09-04T09:17:04Z</time>
      </trkpt>
      <trkpt lat="43.78795" lon="7.14977">
        <ele>846</ele>
        <time>2010-09-04T09:17:09Z</time>
      </trkpt>
      <trkpt lat="43.78798" lon="7.14981">
        <ele>846</ele>
        <time>2010-09-04T09:17:15Z</time>
      </trkpt>
      <trkpt lat="43.78805" lon="7.14989">
        <ele>846</ele>
        <time>2010-09-04T09:17:20Z</time>
      </trkpt>
      <trkpt lat="43.78813" lon="7.15002">
        <ele>855</ele>
        <time>2010-09-04T09:17:25Z</time>
      </trkpt>
      <trkpt lat="43.78823" lon="7.1502">
        <ele>856</ele>
        <time>2010-09-04T09:17:33Z</time>
      </trkpt>
      <trkpt lat="43.78831" lon="7.1503">
        <ele>858</ele>
        <time>2010-09-04T09:17:39Z</time>
      </trkpt>
      <trkpt lat="43.78839" lon="7.15036">
        <ele>849</ele>
        <time>2010-09-04T09:17:44Z</time>
      </trkpt>
      <trkpt lat="43.78849" lon="7.15045">
        <ele>851</ele>
        <time>2010-09-04T09:17:51Z</time>
      </trkpt>
      <trkpt lat="43.78858" lon="7.15056">
        <ele>851</ele>
        <time>2010-09-04T09:17:58Z</time>
      </trkpt>
      <trkpt lat="43.78863" lon="7.15066">
        <ele>852</ele>
        <time>2010-09-04T09:18:03Z</time>
      </trkpt>
      <trkpt lat="43.78868" lon="7.15075">
        <ele>852</ele>
        <time>2010-09-04T09:18:09Z</time>
      </trkpt>
      <trkpt lat="43.78876" lon="7.15086">
        <ele>864</ele>
        <time>2010-09-04T09:18:16Z</time>
      </trkpt>
      <trkpt lat="43.78881" lon="7.15095">
        <ele>864</ele>
        <time>2010-09-04T09:18:22Z</time>
      </trkpt>
      <trkpt lat="43.78887" lon="7.15103">
        <ele>864</ele>
        <time>2010-09-04T09:18:28Z</time>
      </trkpt>
      <trkpt lat="43.78888" lon="7.15103">
        <ele>863</ele>
        <time>2010-09-04T09:18:36Z</time>
      </trkpt>
      <trkpt lat="43.78888" lon="7.15103">
        <ele>863</ele>
        <time>2010-09-04T09:18:46Z</time>
      </trkpt>
      <trkpt lat="43.78891" lon="7.15106">
        <ele>864</ele>
        <time>2010-09-04T09:18:51Z</time>
      </trkpt>
      <trkpt lat="43.78897" lon="7.15114">
        <ele>864</ele>
        <time>2010-09-04T09:18:59Z</time>
      </trkpt>
      <trkpt lat="43.78903" lon="7.15121">
        <ele>865</ele>
        <time>2010-09-04T09:19:08Z</time>
      </trkpt>
      <trkpt lat="43.78904" lon="7.15124">
        <ele>865</ele>
        <time>2010-09-04T09:19:14Z</time>
      </trkpt>
      <trkpt lat="43.78907" lon="7.1513">
        <ele>866</ele>
        <time>2010-09-04T09:19:19Z</time>
      </trkpt>
      <trkpt lat="43.78914" lon="7.15139">
        <ele>867</ele>
        <time>2010-09-04T09:19:25Z</time>
      </trkpt>
      <trkpt lat="43.78916" lon="7.15142">
        <ele>868</ele>
        <time>2010-09-04T09:19:30Z</time>
      </trkpt>
      <trkpt lat="43.78916" lon="7.15144">
        <ele>868</ele>
        <time>2010-09-04T09:19:40Z</time>
      </trkpt>
      <trkpt lat="43.78918" lon="7.15148">
        <ele>860</ele>
        <time>2010-09-04T09:19:45Z</time>
      </trkpt>
      <trkpt lat="43.78923" lon="7.15157">
        <ele>863</ele>
        <time>2010-09-04T09:19:53Z</time>
      </trkpt>
      <trkpt lat="43.78928" lon="7.15168">
        <ele>871</ele>
        <time>2010-09-04T09:20:01Z</time>
      </trkpt>
      <trkpt lat="43.78935" lon="7.15174">
        <ele>870</ele>
        <time>2010-09-04T09:20:08Z</time>
      </trkpt>
      <trkpt lat="43.78937" lon="7.15176">
        <ele>870</ele>
        <time>2010-09-04T09:20:14Z</time>
      </trkpt>
      <trkpt lat="43.78942" lon="7.15184">
        <ele>870</ele>
        <time>2010-09-04T09:20:19Z</time>
      </trkpt>
      <trkpt lat="43.78952" lon="7.15198">
        <ele>871</ele>
        <time>2010-09-04T09:20:25Z</time>
      </trkpt>
      <trkpt lat="43.78969" lon="7.15223">
        <ele>871</ele>
        <time>2010-09-04T09:20:32Z</time>
      </trkpt>
      <trkpt lat="43.78982" lon="7.15245">
        <ele>872</ele>
        <time>2010-09-04T09:20:38Z</time>
      </trkpt>
      <trkpt lat="43.78991" lon="7.15262">
        <ele>878</ele>
        <time>2010-09-04T09:20:43Z</time>
      </trkpt>
      <trkpt lat="43.79009" lon="7.15289">
        <ele>869</ele>
        <time>2010-09-04T09:20:51Z</time>
      </trkpt>
      <trkpt lat="43.79024" lon="7.15316">
        <ele>872</ele>
        <time>2010-09-04T09:20:58Z</time>
      </trkpt>
      <trkpt lat="43.79034" lon="7.15343">
        <ele>880</ele>
        <time>2010-09-04T09:21:05Z</time>
      </trkpt>
      <trkpt lat="43.79041" lon="7.15364">
        <ele>880</ele>
        <time>2010-09-04T09:21:11Z</time>
      </trkpt>
      <trkpt lat="43.79047" lon="7.15387">
        <ele>881</ele>
        <time>2010-09-04T09:21:18Z</time>
      </trkpt>
      <trkpt lat="43.79051" lon="7.15413">
        <ele>882</ele>
        <time>2010-09-04T09:21:25Z</time>
      </trkpt>
      <trkpt lat="43.7906" lon="7.15436">
        <ele>888</ele>
        <time>2010-09-04T09:21:32Z</time>
      </trkpt>
      <trkpt lat="43.79071" lon="7.15463">
        <ele>890</ele>
        <time>2010-09-04T09:21:38Z</time>
      </trkpt>
      <trkpt lat="43.79085" lon="7.15502">
        <ele>888</ele>
        <time>2010-09-04T09:21:46Z</time>
      </trkpt>
      <trkpt lat="43.79095" lon="7.15533">
        <ele>885</ele>
        <time>2010-09-04T09:21:52Z</time>
      </trkpt>
      <trkpt lat="43.79101" lon="7.15548">
        <ele>885</ele>
        <time>2010-09-04T09:21:55Z</time>
      </trkpt>
      <trkpt lat="43.79111" lon="7.15573">
        <ele>886</ele>
        <time>2010-09-04T09:22:00Z</time>
      </trkpt>
      <trkpt lat="43.79127" lon="7.1561">
        <ele>889</ele>
        <time>2010-09-04T09:22:06Z</time>
      </trkpt>
      <trkpt lat="43.79141" lon="7.15635">
        <ele>889</ele>
        <time>2010-09-04T09:22:11Z</time>
      </trkpt>
      <trkpt lat="43.79149" lon="7.15648">
        <ele>889</ele>
        <time>2010-09-04T09:22:15Z</time>
      </trkpt>
      <trkpt lat="43.79152" lon="7.15658">
        <ele>889</ele>
        <time>2010-09-04T09:22:21Z</time>
      </trkpt>
      <trkpt lat="43.79153" lon="7.15657">
        <ele>889</ele>
        <time>2010-09-04T09:22:28Z</time>
      </trkpt>
      <trkpt lat="43.79153" lon="7.15658">
        <ele>889</ele>
        <time>2010-09-04T09:22:38Z</time>
      </trkpt>
      <trkpt lat="43.79153" lon="7.15657">
        <ele>889</ele>
        <time>2010-09-04T09:22:48Z</time>
      </trkpt>
      <trkpt lat="43.79153" lon="7.15658">
        <ele>889</ele>
        <time>2010-09-04T09:22:55Z</time>
      </trkpt>
      <trkpt lat="43.79152" lon="7.15663">
        <ele>889</ele>
        <time>2010-09-04T09:23:11Z</time>
      </trkpt>
      <trkpt lat="43.79149" lon="7.15682">
        <ele>889</ele>
        <time>2010-09-04T09:23:16Z</time>
      </trkpt>
      <trkpt lat="43.79146" lon="7.15699">
        <ele>889</ele>
        <time>2010-09-04T09:23:21Z</time>
      </trkpt>
      <trkpt lat="43.79135" lon="7.15698">
        <ele>890</ele>
        <time>2010-09-04T09:23:26Z</time>
      </trkpt>
      <trkpt lat="43.79121" lon="7.15702">
        <ele>890</ele>
        <time>2010-09-04T09:23:31Z</time>
      </trkpt>
      <trkpt lat="43.79094" lon="7.15716">
        <ele>891</ele>
        <time>2010-09-04T09:23:41Z</time>
      </trkpt>
      <trkpt lat="43.79078" lon="7.15717">
        <ele>896</ele>
        <time>2010-09-04T09:23:47Z</time>
      </trkpt>
      <trkpt lat="43.79067" lon="7.15717">
        <ele>897</ele>
        <time>2010-09-04T09:23:52Z</time>
      </trkpt>
      <trkpt lat="43.79052" lon="7.15717">
        <ele>898</ele>
        <time>2010-09-04T09:23:58Z</time>
      </trkpt>
      <trkpt lat="43.79041" lon="7.15722">
        <ele>898</ele>
        <time>2010-09-04T09:24:03Z</time>
      </trkpt>
      <trkpt lat="43.79032" lon="7.15725">
        <ele>899</ele>
        <time>2010-09-04T09:24:07Z</time>
      </trkpt>
      <trkpt lat="43.79024" lon="7.15732">
        <ele>899</ele>
        <time>2010-09-04T09:24:11Z</time>
      </trkpt>
      <trkpt lat="43.79013" lon="7.15734">
        <ele>900</ele>
        <time>2010-09-04T09:24:16Z</time>
      </trkpt>
      <trkpt lat="43.78998" lon="7.15736">
        <ele>904</ele>
        <time>2010-09-04T09:24:23Z</time>
      </trkpt>
      <trkpt lat="43.78982" lon="7.15732">
        <ele>905</ele>
        <time>2010-09-04T09:24:30Z</time>
      </trkpt>
      <trkpt lat="43.78972" lon="7.15718">
        <ele>907</ele>
        <time>2010-09-04T09:24:36Z</time>
      </trkpt>
      <trkpt lat="43.78964" lon="7.15705">
        <ele>907</ele>
        <time>2010-09-04T09:24:42Z</time>
      </trkpt>
      <trkpt lat="43.78953" lon="7.15701">
        <ele>908</ele>
        <time>2010-09-04T09:24:48Z</time>
      </trkpt>
      <trkpt lat="43.78943" lon="7.15695">
        <ele>909</ele>
        <time>2010-09-04T09:24:53Z</time>
      </trkpt>
      <trkpt lat="43.78935" lon="7.15681">
        <ele>910</ele>
        <time>2010-09-04T09:25:00Z</time>
      </trkpt>
      <trkpt lat="43.78927" lon="7.15673">
        <ele>911</ele>
        <time>2010-09-04T09:25:06Z</time>
      </trkpt>
      <trkpt lat="43.78918" lon="7.15667">
        <ele>914</ele>
        <time>2010-09-04T09:25:13Z</time>
      </trkpt>
      <trkpt lat="43.78909" lon="7.15662">
        <ele>915</ele>
        <time>2010-09-04T09:25:20Z</time>
      </trkpt>
      <trkpt lat="43.789" lon="7.15654">
        <ele>916</ele>
        <time>2010-09-04T09:25:27Z</time>
      </trkpt>
      <trkpt lat="43.7889" lon="7.15645">
        <ele>917</ele>
        <time>2010-09-04T09:25:35Z</time>
      </trkpt>
      <trkpt lat="43.78882" lon="7.15642">
        <ele>917</ele>
        <time>2010-09-04T09:25:40Z</time>
      </trkpt>
      <trkpt lat="43.78869" lon="7.15639">
        <ele>918</ele>
        <time>2010-09-04T09:25:47Z</time>
      </trkpt>
      <trkpt lat="43.78857" lon="7.15633">
        <ele>919</ele>
        <time>2010-09-04T09:25:53Z</time>
      </trkpt>
      <trkpt lat="43.78848" lon="7.15625">
        <ele>919</ele>
        <time>2010-09-04T09:25:58Z</time>
      </trkpt>
      <trkpt lat="43.7884" lon="7.1562">
        <ele>920</ele>
        <time>2010-09-04T09:26:02Z</time>
      </trkpt>
      <trkpt lat="43.78825" lon="7.15613">
        <ele>922</ele>
        <time>2010-09-04T09:26:10Z</time>
      </trkpt>
      <trkpt lat="43.78812" lon="7.15608">
        <ele>922</ele>
        <time>2010-09-04T09:26:16Z</time>
      </trkpt>
      <trkpt lat="43.78799" lon="7.15602">
        <ele>922</ele>
        <time>2010-09-04T09:26:23Z</time>
      </trkpt>
      <trkpt lat="43.7879" lon="7.15596">
        <ele>922</ele>
        <time>2010-09-04T09:26:28Z</time>
      </trkpt>
      <trkpt lat="43.78779" lon="7.15586">
        <ele>923</ele>
        <time>2010-09-04T09:26:35Z</time>
      </trkpt>
      <trkpt lat="43.78778" lon="7.15584">
        <ele>923</ele>
        <time>2010-09-04T09:26:36Z</time>
      </trkpt>
      <trkpt lat="43.7877" lon="7.15581">
        <ele>927</ele>
        <time>2010-09-04T09:26:42Z</time>
      </trkpt>
      <trkpt lat="43.78758" lon="7.15575">
        <ele>927</ele>
        <time>2010-09-04T09:26:50Z</time>
      </trkpt>
      <trkpt lat="43.78749" lon="7.15564">
        <ele>926</ele>
        <time>2010-09-04T09:26:57Z</time>
      </trkpt>
      <trkpt lat="43.7874" lon="7.15549">
        <ele>925</ele>
        <time>2010-09-04T09:27:03Z</time>
      </trkpt>
      <trkpt lat="43.78732" lon="7.15538">
        <ele>925</ele>
        <time>2010-09-04T09:27:09Z</time>
      </trkpt>
      <trkpt lat="43.78731" lon="7.15538">
        <ele>925</ele>
        <time>2010-09-04T09:27:13Z</time>
      </trkpt>
      <trkpt lat="43.7872" lon="7.15534">
        <ele>925</ele>
        <time>2010-09-04T09:27:17Z</time>
      </trkpt>
      <trkpt lat="43.78704" lon="7.15521">
        <ele>925</ele>
        <time>2010-09-04T09:27:21Z</time>
      </trkpt>
      <trkpt lat="43.78685" lon="7.15498">
        <ele>925</ele>
        <time>2010-09-04T09:27:26Z</time>
      </trkpt>
      <trkpt lat="43.78659" lon="7.1548">
        <ele>924</ele>
        <time>2010-09-04T09:27:31Z</time>
      </trkpt>
      <trkpt lat="43.78647" lon="7.15475">
        <ele>924</ele>
        <time>2010-09-04T09:27:33Z</time>
      </trkpt>
      <trkpt lat="43.78625" lon="7.15465">
        <ele>924</ele>
        <time>2010-09-04T09:27:38Z</time>
      </trkpt>
      <trkpt lat="43.78624" lon="7.15462">
        <ele>924</ele>
        <time>2010-09-04T09:27:39Z</time>
      </trkpt>
      <trkpt lat="43.78621" lon="7.15459">
        <ele>924</ele>
        <time>2010-09-04T09:27:41Z</time>
      </trkpt>
      <trkpt lat="43.78621" lon="7.15457">
        <ele>924</ele>
        <time>2010-09-04T09:27:51Z</time>
      </trkpt>
      <trkpt lat="43.78621" lon="7.15456">
        <ele>924</ele>
        <time>2010-09-04T09:27:55Z</time>
      </trkpt>
      <trkpt lat="43.78607" lon="7.15442">
        <ele>925</ele>
        <time>2010-09-04T09:28:01Z</time>
      </trkpt>
      <trkpt lat="43.78589" lon="7.15437">
        <ele>925</ele>
        <time>2010-09-04T09:28:06Z</time>
      </trkpt>
      <trkpt lat="43.7857" lon="7.15425">
        <ele>927</ele>
        <time>2010-09-04T09:28:11Z</time>
      </trkpt>
      <trkpt lat="43.78551" lon="7.15405">
        <ele>929</ele>
        <time>2010-09-04T09:28:17Z</time>
      </trkpt>
      <trkpt lat="43.78531" lon="7.15378">
        <ele>930</ele>
        <time>2010-09-04T09:28:25Z</time>
      </trkpt>
      <trkpt lat="43.78512" lon="7.15359">
        <ele>931</ele>
        <time>2010-09-04T09:28:32Z</time>
      </trkpt>
      <trkpt lat="43.78493" lon="7.15344">
        <ele>933</ele>
        <time>2010-09-04T09:28:39Z</time>
      </trkpt>
      <trkpt lat="43.78478" lon="7.15329">
        <ele>932</ele>
        <time>2010-09-04T09:28:45Z</time>
      </trkpt>
      <trkpt lat="43.78471" lon="7.15329">
        <ele>932</ele>
        <time>2010-09-04T09:28:47Z</time>
      </trkpt>
      <trkpt lat="43.78459" lon="7.15317">
        <ele>932</ele>
        <time>2010-09-04T09:28:51Z</time>
      </trkpt>
      <trkpt lat="43.78437" lon="7.15295">
        <ele>931</ele>
        <time>2010-09-04T09:28:57Z</time>
      </trkpt>
      <trkpt lat="43.78432" lon="7.15285">
        <ele>932</ele>
        <time>2010-09-04T09:28:59Z</time>
      </trkpt>
      <trkpt lat="43.78415" lon="7.15273">
        <ele>931</ele>
        <time>2010-09-04T09:29:04Z</time>
      </trkpt>
      <trkpt lat="43.78399" lon="7.15268">
        <ele>931</ele>
        <time>2010-09-04T09:29:08Z</time>
      </trkpt>
      <trkpt lat="43.78395" lon="7.15261">
        <ele>931</ele>
        <time>2010-09-04T09:29:10Z</time>
      </trkpt>
      <trkpt lat="43.78382" lon="7.15243">
        <ele>933</ele>
        <time>2010-09-04T09:29:16Z</time>
      </trkpt>
      <trkpt lat="43.78365" lon="7.15242">
        <ele>932</ele>
        <time>2010-09-04T09:29:22Z</time>
      </trkpt>
      <trkpt lat="43.78355" lon="7.15231">
        <ele>932</ele>
        <time>2010-09-04T09:29:28Z</time>
      </trkpt>
      <trkpt lat="43.78358" lon="7.15218">
        <ele>933</ele>
        <time>2010-09-04T09:29:33Z</time>
      </trkpt>
      <trkpt lat="43.78354" lon="7.15207">
        <ele>933</ele>
        <time>2010-09-04T09:29:39Z</time>
      </trkpt>
      <trkpt lat="43.78349" lon="7.15202">
        <ele>933</ele>
        <time>2010-09-04T09:29:44Z</time>
      </trkpt>
      <trkpt lat="43.7835" lon="7.15203">
        <ele>933</ele>
        <time>2010-09-04T09:29:55Z</time>
      </trkpt>
      <trkpt lat="43.7835" lon="7.15202">
        <ele>933</ele>
        <time>2010-09-04T09:30:06Z</time>
      </trkpt>
      <trkpt lat="43.7835" lon="7.15203">
        <ele>933</ele>
        <time>2010-09-04T09:30:26Z</time>
      </trkpt>
      <trkpt lat="43.78349" lon="7.15203">
        <ele>933</ele>
        <time>2010-09-04T09:31:09Z</time>
      </trkpt>
      <trkpt lat="43.78349" lon="7.15203">
        <ele>933</ele>
        <time>2010-09-04T09:31:18Z</time>
      </trkpt>
      <trkpt lat="43.7835" lon="7.15204">
        <ele>933</ele>
        <time>2010-09-04T09:31:40Z</time>
      </trkpt>
      <trkpt lat="43.7835" lon="7.15204">
        <ele>933</ele>
        <time>2010-09-04T09:31:45Z</time>
      </trkpt>
      <trkpt lat="43.78351" lon="7.15203">
        <ele>933</ele>
        <time>2010-09-04T09:31:58Z</time>
      </trkpt>
      <trkpt lat="43.78351" lon="7.15203">
        <ele>933</ele>
        <time>2010-09-04T09:32:06Z</time>
      </trkpt>
      <trkpt lat="43.7835" lon="7.15201">
        <ele>933</ele>
        <time>2010-09-04T09:32:14Z</time>
      </trkpt>
      <trkpt lat="43.78344" lon="7.1519">
        <ele>933</ele>
        <time>2010-09-04T09:32:18Z</time>
      </trkpt>
      <trkpt lat="43.78338" lon="7.15171">
        <ele>934</ele>
        <time>2010-09-04T09:32:22Z</time>
      </trkpt>
      <trkpt lat="43.78326" lon="7.15151">
        <ele>932</ele>
        <time>2010-09-04T09:32:26Z</time>
      </trkpt>
      <trkpt lat="43.78306" lon="7.15141">
        <ele>930</ele>
        <time>2010-09-04T09:32:30Z</time>
      </trkpt>
      <trkpt lat="43.78301" lon="7.15139">
        <ele>930</ele>
        <time>2010-09-04T09:32:31Z</time>
      </trkpt>
      <trkpt lat="43.78291" lon="7.15135">
        <ele>929</ele>
        <time>2010-09-04T09:32:33Z</time>
      </trkpt>
      <trkpt lat="43.78283" lon="7.15129">
        <ele>929</ele>
        <time>2010-09-04T09:32:35Z</time>
      </trkpt>
      <trkpt lat="43.78266" lon="7.15119">
        <ele>928</ele>
        <time>2010-09-04T09:32:38Z</time>
      </trkpt>
      <trkpt lat="43.78245" lon="7.15106">
        <ele>922</ele>
        <time>2010-09-04T09:32:43Z</time>
      </trkpt>
      <trkpt lat="43.78234" lon="7.15106">
        <ele>922</ele>
        <time>2010-09-04T09:32:46Z</time>
      </trkpt>
      <trkpt lat="43.78217" lon="7.15107">
        <ele>921</ele>
        <time>2010-09-04T09:32:51Z</time>
      </trkpt>
      <trkpt lat="43.78194" lon="7.15099">
        <ele>919</ele>
        <time>2010-09-04T09:32:57Z</time>
      </trkpt>
      <trkpt lat="43.78187" lon="7.15113">
        <ele>919</ele>
        <time>2010-09-04T09:33:00Z</time>
      </trkpt>
      <trkpt lat="43.7818" lon="7.15128">
        <ele>918</ele>
        <time>2010-09-04T09:33:03Z</time>
      </trkpt>
      <trkpt lat="43.78153" lon="7.15145">
        <ele>913</ele>
        <time>2010-09-04T09:33:08Z</time>
      </trkpt>
      <trkpt lat="43.78141" lon="7.15149">
        <ele>912</ele>
        <time>2010-09-04T09:33:10Z</time>
      </trkpt>
      <trkpt lat="43.78117" lon="7.1516">
        <ele>911</ele>
        <time>2010-09-04T09:33:14Z</time>
      </trkpt>
      <trkpt lat="43.78098" lon="7.15158">
        <ele>911</ele>
        <time>2010-09-04T09:33:17Z</time>
      </trkpt>
      <trkpt lat="43.78086" lon="7.15163">
        <ele>910</ele>
        <time>2010-09-04T09:33:19Z</time>
      </trkpt>
      <trkpt lat="43.78069" lon="7.15174">
        <ele>906</ele>
        <time>2010-09-04T09:33:22Z</time>
      </trkpt>
      <trkpt lat="43.7805" lon="7.15168">
        <ele>905</ele>
        <time>2010-09-04T09:33:25Z</time>
      </trkpt>
      <trkpt lat="43.78029" lon="7.15166">
        <ele>904</ele>
        <time>2010-09-04T09:33:28Z</time>
      </trkpt>
      <trkpt lat="43.78009" lon="7.15158">
        <ele>902</ele>
        <time>2010-09-04T09:33:31Z</time>
      </trkpt>
      <trkpt lat="43.77996" lon="7.15159">
        <ele>899</ele>
        <time>2010-09-04T09:33:33Z</time>
      </trkpt>
      <trkpt lat="43.77975" lon="7.15143">
        <ele>898</ele>
        <time>2010-09-04T09:33:37Z</time>
      </trkpt>
      <trkpt lat="43.77964" lon="7.15133">
        <ele>897</ele>
        <time>2010-09-04T09:33:39Z</time>
      </trkpt>
      <trkpt lat="43.77953" lon="7.15102">
        <ele>897</ele>
        <time>2010-09-04T09:33:43Z</time>
      </trkpt>
      <trkpt lat="43.77949" lon="7.15082">
        <ele>899</ele>
        <time>2010-09-04T09:33:46Z</time>
      </trkpt>
      <trkpt lat="43.77943" lon="7.15062">
        <ele>899</ele>
        <time>2010-09-04T09:33:49Z</time>
      </trkpt>
      <trkpt lat="43.77936" lon="7.15053">
        <ele>898</ele>
        <time>2010-09-04T09:33:52Z</time>
      </trkpt>
      <trkpt lat="43.77933" lon="7.15049">
        <ele>898</ele>
        <time>2010-09-04T09:33:53Z</time>
      </trkpt>
      <trkpt lat="43.77924" lon="7.1504">
        <ele>898</ele>
        <time>2010-09-04T09:33:55Z</time>
      </trkpt>
      <trkpt lat="43.77898" lon="7.15035">
        <ele>889</ele>
        <time>2010-09-04T09:33:59Z</time>
      </trkpt>
      <trkpt lat="43.77865" lon="7.15045">
        <ele>886</ele>
        <time>2010-09-04T09:34:05Z</time>
      </trkpt>
      <trkpt lat="43.77847" lon="7.15049">
        <ele>885</ele>
        <time>2010-09-04T09:34:09Z</time>
      </trkpt>
      <trkpt lat="43.77828" lon="7.15049">
        <ele>876</ele>
        <time>2010-09-04T09:34:13Z</time>
      </trkpt>
      <trkpt lat="43.7781" lon="7.15057">
        <ele>876</ele>
        <time>2010-09-04T09:34:17Z</time>
      </trkpt>
      <trkpt lat="43.77807" lon="7.15061">
        <ele>876</ele>
        <time>2010-09-04T09:34:18Z</time>
      </trkpt>
      <trkpt lat="43.77791" lon="7.15081">
        <ele>875</ele>
        <time>2010-09-04T09:34:22Z</time>
      </trkpt>
      <trkpt lat="43.77758" lon="7.15102">
        <ele>875</ele>
        <time>2010-09-04T09:34:29Z</time>
      </trkpt>
      <trkpt lat="43.77753" lon="7.15105">
        <ele>875</ele>
        <time>2010-09-04T09:34:30Z</time>
      </trkpt>
      <trkpt lat="43.77738" lon="7.15125">
        <ele>872</ele>
        <time>2010-09-04T09:34:34Z</time>
      </trkpt>
      <trkpt lat="43.77734" lon="7.15146">
        <ele>873</ele>
        <time>2010-09-04T09:34:37Z</time>
      </trkpt>
      <trkpt lat="43.77728" lon="7.15163">
        <ele>873</ele>
        <time>2010-09-04T09:34:40Z</time>
      </trkpt>
      <trkpt lat="43.77713" lon="7.15188">
        <ele>875</ele>
        <time>2010-09-04T09:34:45Z</time>
      </trkpt>
      <trkpt lat="43.77704" lon="7.15212">
        <ele>874</ele>
        <time>2010-09-04T09:34:49Z</time>
      </trkpt>
      <trkpt lat="43.77704" lon="7.15219">
        <ele>874</ele>
        <time>2010-09-04T09:34:50Z</time>
      </trkpt>
      <trkpt lat="43.77705" lon="7.15237">
        <ele>875</ele>
        <time>2010-09-04T09:34:53Z</time>
      </trkpt>
      <trkpt lat="43.77706" lon="7.15256">
        <ele>875</ele>
        <time>2010-09-04T09:34:56Z</time>
      </trkpt>
      <trkpt lat="43.77698" lon="7.15276">
        <ele>875</ele>
        <time>2010-09-04T09:35:00Z</time>
      </trkpt>
      <trkpt lat="43.77688" lon="7.15293">
        <ele>875</ele>
        <time>2010-09-04T09:35:04Z</time>
      </trkpt>
      <trkpt lat="43.77686" lon="7.15298">
        <ele>875</ele>
        <time>2010-09-04T09:35:05Z</time>
      </trkpt>
      <trkpt lat="43.77683" lon="7.15306">
        <ele>875</ele>
        <time>2010-09-04T09:35:07Z</time>
      </trkpt>
      <trkpt lat="43.77672" lon="7.15324">
        <ele>875</ele>
        <time>2010-09-04T09:35:12Z</time>
      </trkpt>
      <trkpt lat="43.77665" lon="7.15333">
        <ele>875</ele>
        <time>2010-09-04T09:35:15Z</time>
      </trkpt>
      <trkpt lat="43.77652" lon="7.15353">
        <ele>874</ele>
        <time>2010-09-04T09:35:22Z</time>
      </trkpt>
      <trkpt lat="43.77648" lon="7.15358">
        <ele>874</ele>
        <time>2010-09-04T09:35:24Z</time>
      </trkpt>
      <trkpt lat="43.77633" lon="7.15358">
        <ele>874</ele>
        <time>2010-09-04T09:35:30Z</time>
      </trkpt>
      <trkpt lat="43.7763" lon="7.15356">
        <ele>874</ele>
        <time>2010-09-04T09:35:31Z</time>
      </trkpt>
      <trkpt lat="43.77614" lon="7.15353">
        <ele>874</ele>
        <time>2010-09-04T09:35:36Z</time>
      </trkpt>
      <trkpt lat="43.77599" lon="7.15355">
        <ele>874</ele>
        <time>2010-09-04T09:35:40Z</time>
      </trkpt>
      <trkpt lat="43.77582" lon="7.15357">
        <ele>872</ele>
        <time>2010-09-04T09:35:44Z</time>
      </trkpt>
      <trkpt lat="43.77563" lon="7.15366">
        <ele>871</ele>
        <time>2010-09-04T09:35:49Z</time>
      </trkpt>
      <trkpt lat="43.77539" lon="7.15377">
        <ele>870</ele>
        <time>2010-09-04T09:35:54Z</time>
      </trkpt>
      <trkpt lat="43.77526" lon="7.15381">
        <ele>870</ele>
        <time>2010-09-04T09:35:56Z</time>
      </trkpt>
      <trkpt lat="43.77501" lon="7.15382">
        <ele>869</ele>
        <time>2010-09-04T09:36:00Z</time>
      </trkpt>
      <trkpt lat="43.77485" lon="7.15369">
        <ele>869</ele>
        <time>2010-09-04T09:36:03Z</time>
      </trkpt>
      <trkpt lat="43.77473" lon="7.15354">
        <ele>869</ele>
        <time>2010-09-04T09:36:06Z</time>
      </trkpt>
      <trkpt lat="43.77455" lon="7.15343">
        <ele>869</ele>
        <time>2010-09-04T09:36:10Z</time>
      </trkpt>
      <trkpt lat="43.77439" lon="7.15335">
        <ele>870</ele>
        <time>2010-09-04T09:36:14Z</time>
      </trkpt>
      <trkpt lat="43.77424" lon="7.15319">
        <ele>869</ele>
        <time>2010-09-04T09:36:19Z</time>
      </trkpt>
      <trkpt lat="43.7742" lon="7.15316">
        <ele>868</ele>
        <time>2010-09-04T09:36:20Z</time>
      </trkpt>
      <trkpt lat="43.77412" lon="7.15313">
        <ele>871</ele>
        <time>2010-09-04T09:36:22Z</time>
      </trkpt>
      <trkpt lat="43.77405" lon="7.15311">
        <ele>871</ele>
        <time>2010-09-04T09:36:24Z</time>
      </trkpt>
      <trkpt lat="43.77388" lon="7.15296">
        <ele>872</ele>
        <time>2010-09-04T09:36:30Z</time>
      </trkpt>
      <trkpt lat="43.77375" lon="7.15291">
        <ele>873</ele>
        <time>2010-09-04T09:36:36Z</time>
      </trkpt>
      <trkpt lat="43.77363" lon="7.15286">
        <ele>873</ele>
        <time>2010-09-04T09:36:42Z</time>
      </trkpt>
      <trkpt lat="43.7735" lon="7.15281">
        <ele>874</ele>
        <time>2010-09-04T09:36:48Z</time>
      </trkpt>
      <trkpt lat="43.77338" lon="7.15274">
        <ele>875</ele>
        <time>2010-09-04T09:36:54Z</time>
      </trkpt>
      <trkpt lat="43.77328" lon="7.15267">
        <ele>879</ele>
        <time>2010-09-04T09:37:01Z</time>
      </trkpt>
      <trkpt lat="43.77321" lon="7.15262">
        <ele>879</ele>
        <time>2010-09-04T09:37:07Z</time>
      </trkpt>
      <trkpt lat="43.77305" lon="7.15253">
        <ele>879</ele>
        <time>2010-09-04T09:37:13Z</time>
      </trkpt>
      <trkpt lat="43.77302" lon="7.15251">
        <ele>879</ele>
        <time>2010-09-04T09:37:14Z</time>
      </trkpt>
      <trkpt lat="43.77288" lon="7.15254">
        <ele>879</ele>
        <time>2010-09-04T09:37:19Z</time>
      </trkpt>
      <trkpt lat="43.77275" lon="7.15255">
        <ele>879</ele>
        <time>2010-09-04T09:37:24Z</time>
      </trkpt>
      <trkpt lat="43.77269" lon="7.15257">
        <ele>879</ele>
        <time>2010-09-04T09:37:26Z</time>
      </trkpt>
      <trkpt lat="43.77245" lon="7.15267">
        <ele>881</ele>
        <time>2010-09-04T09:37:33Z</time>
      </trkpt>
      <trkpt lat="43.77235" lon="7.15279">
        <ele>881</ele>
        <time>2010-09-04T09:37:38Z</time>
      </trkpt>
      <trkpt lat="43.77233" lon="7.15281">
        <ele>882</ele>
        <time>2010-09-04T09:37:39Z</time>
      </trkpt>
      <trkpt lat="43.77215" lon="7.15289">
        <ele>882</ele>
        <time>2010-09-04T09:37:45Z</time>
      </trkpt>
      <trkpt lat="43.77211" lon="7.15289">
        <ele>882</ele>
        <time>2010-09-04T09:37:46Z</time>
      </trkpt>
      <trkpt lat="43.77194" lon="7.1529">
        <ele>882</ele>
        <time>2010-09-04T09:37:51Z</time>
      </trkpt>
      <trkpt lat="43.77188" lon="7.15289">
        <ele>882</ele>
        <time>2010-09-04T09:37:53Z</time>
      </trkpt>
      <trkpt lat="43.77177" lon="7.15269">
        <ele>882</ele>
        <time>2010-09-04T09:37:59Z</time>
      </trkpt>
      <trkpt lat="43.77167" lon="7.15256">
        <ele>882</ele>
        <time>2010-09-04T09:38:04Z</time>
      </trkpt>
      <trkpt lat="43.7716" lon="7.15251">
        <ele>883</ele>
        <time>2010-09-04T09:38:09Z</time>
      </trkpt>
      <trkpt lat="43.77153" lon="7.15244">
        <ele>883</ele>
        <time>2010-09-04T09:38:13Z</time>
      </trkpt>
      <trkpt lat="43.77144" lon="7.15228">
        <ele>883</ele>
        <time>2010-09-04T09:38:19Z</time>
      </trkpt>
      <trkpt lat="43.77136" lon="7.15212">
        <ele>882</ele>
        <time>2010-09-04T09:38:25Z</time>
      </trkpt>
      <trkpt lat="43.77124" lon="7.15192">
        <ele>882</ele>
        <time>2010-09-04T09:38:32Z</time>
      </trkpt>
      <trkpt lat="43.77114" lon="7.15169">
        <ele>883</ele>
        <time>2010-09-04T09:38:38Z</time>
      </trkpt>
      <trkpt lat="43.77105" lon="7.15147">
        <ele>879</ele>
        <time>2010-09-04T09:38:43Z</time>
      </trkpt>
      <trkpt lat="43.77088" lon="7.15112">
        <ele>879</ele>
        <time>2010-09-04T09:38:49Z</time>
      </trkpt>
      <trkpt lat="43.77076" lon="7.15098">
        <ele>883</ele>
        <time>2010-09-04T09:38:53Z</time>
      </trkpt>
      <trkpt lat="43.77066" lon="7.15084">
        <ele>883</ele>
        <time>2010-09-04T09:38:57Z</time>
      </trkpt>
      <trkpt lat="43.77054" lon="7.15059">
        <ele>878</ele>
        <time>2010-09-04T09:39:02Z</time>
      </trkpt>
      <trkpt lat="43.77048" lon="7.15047">
        <ele>878</ele>
        <time>2010-09-04T09:39:04Z</time>
      </trkpt>
      <trkpt lat="43.77028" lon="7.15026">
        <ele>876</ele>
        <time>2010-09-04T09:39:08Z</time>
      </trkpt>
      <trkpt lat="43.76996" lon="7.15015">
        <ele>873</ele>
        <time>2010-09-04T09:39:13Z</time>
      </trkpt>
      <trkpt lat="43.76989" lon="7.15016">
        <ele>873</ele>
        <time>2010-09-04T09:39:14Z</time>
      </trkpt>
      <trkpt lat="43.76977" lon="7.15021">
        <ele>874</ele>
        <time>2010-09-04T09:39:16Z</time>
      </trkpt>
      <trkpt lat="43.76945" lon="7.15035">
        <ele>874</ele>
        <time>2010-09-04T09:39:22Z</time>
      </trkpt>
      <trkpt lat="43.76935" lon="7.1504">
        <ele>875</ele>
        <time>2010-09-04T09:39:24Z</time>
      </trkpt>
      <trkpt lat="43.76922" lon="7.1505">
        <ele>875</ele>
        <time>2010-09-04T09:39:28Z</time>
      </trkpt>
      <trkpt lat="43.76904" lon="7.15063">
        <ele>874</ele>
        <time>2010-09-04T09:39:33Z</time>
      </trkpt>
      <trkpt lat="43.76877" lon="7.15071">
        <ele>872</ele>
        <time>2010-09-04T09:39:39Z</time>
      </trkpt>
      <trkpt lat="43.76861" lon="7.15069">
        <ele>872</ele>
        <time>2010-09-04T09:39:42Z</time>
      </trkpt>
      <trkpt lat="43.76841" lon="7.15057">
        <ele>871</ele>
        <time>2010-09-04T09:39:46Z</time>
      </trkpt>
      <trkpt lat="43.76827" lon="7.15041">
        <ele>866</ele>
        <time>2010-09-04T09:39:51Z</time>
      </trkpt>
      <trkpt lat="43.76826" lon="7.15039">
        <ele>866</ele>
        <time>2010-09-04T09:39:52Z</time>
      </trkpt>
      <trkpt lat="43.76814" lon="7.15032">
        <ele>865</ele>
        <time>2010-09-04T09:39:56Z</time>
      </trkpt>
      <trkpt lat="43.76796" lon="7.15026">
        <ele>865</ele>
        <time>2010-09-04T09:39:59Z</time>
      </trkpt>
      <trkpt lat="43.76785" lon="7.15024">
        <ele>865</ele>
        <time>2010-09-04T09:40:01Z</time>
      </trkpt>
      <trkpt lat="43.76772" lon="7.15021">
        <ele>864</ele>
        <time>2010-09-04T09:40:04Z</time>
      </trkpt>
      <trkpt lat="43.76762" lon="7.1502">
        <ele>864</ele>
        <time>2010-09-04T09:40:07Z</time>
      </trkpt>
      <trkpt lat="43.76752" lon="7.15012">
        <ele>863</ele>
        <time>2010-09-04T09:40:11Z</time>
      </trkpt>
      <trkpt lat="43.76744" lon="7.15003">
        <ele>862</ele>
        <time>2010-09-04T09:40:15Z</time>
      </trkpt>
      <trkpt lat="43.76745" lon="7.15004">
        <ele>862</ele>
        <time>2010-09-04T09:40:20Z</time>
      </trkpt>
      <trkpt lat="43.76749" lon="7.1501">
        <ele>862</ele>
        <time>2010-09-04T09:40:27Z</time>
      </trkpt>
      <trkpt lat="43.76751" lon="7.1501">
        <ele>863</ele>
        <time>2010-09-04T09:40:33Z</time>
      </trkpt>
      <trkpt lat="43.76751" lon="7.1501">
        <ele>863</ele>
        <time>2010-09-04T09:40:39Z</time>
      </trkpt>
      <trkpt lat="43.76751" lon="7.1501">
        <ele>863</ele>
        <time>2010-09-04T09:40:50Z</time>
      </trkpt>
      <trkpt lat="43.76751" lon="7.1501">
        <ele>863</ele>
        <time>2010-09-04T09:41:04Z</time>
      </trkpt>
      <trkpt lat="43.76751" lon="7.1501">
        <ele>863</ele>
        <time>2010-09-04T09:41:32Z</time>
      </trkpt>
      <trkpt lat="43.76751" lon="7.1501">
        <ele>863</ele>
        <time>2010-09-04T09:41:38Z</time>
      </trkpt>
      <trkpt lat="43.76752" lon="7.15012">
        <ele>863</ele>
        <time>2010-09-04T09:42:00Z</time>
      </trkpt>
      <trkpt lat="43.76752" lon="7.15012">
        <ele>863</ele>
        <time>2010-09-04T09:42:11Z</time>
      </trkpt>
      <trkpt lat="43.76751" lon="7.15013">
        <ele>863</ele>
        <time>2010-09-04T09:42:23Z</time>
      </trkpt>
      <trkpt lat="43.76752" lon="7.15012">
        <ele>863</ele>
        <time>2010-09-04T09:42:44Z</time>
      </trkpt>
      <trkpt lat="43.76752" lon="7.15012">
        <ele>863</ele>
        <time>2010-09-04T09:42:51Z</time>
      </trkpt>
      <trkpt lat="43.76752" lon="7.15012">
        <ele>863</ele>
        <time>2010-09-04T09:43:05Z</time>
      </trkpt>
      <trkpt lat="43.76752" lon="7.15012">
        <ele>863</ele>
        <time>2010-09-04T09:43:18Z</time>
      </trkpt>
      <trkpt lat="43.76751" lon="7.15013">
        <ele>863</ele>
        <time>2010-09-04T09:43:24Z</time>
      </trkpt>
      <trkpt lat="43.76752" lon="7.15012">
        <ele>863</ele>
        <time>2010-09-04T09:43:37Z</time>
      </trkpt>
      <trkpt lat="43.76751" lon="7.15012">
        <ele>863</ele>
        <time>2010-09-04T09:43:45Z</time>
      </trkpt>
      <trkpt lat="43.7675" lon="7.15011">
        <ele>863</ele>
        <time>2010-09-04T09:43:50Z</time>
      </trkpt>
      <trkpt lat="43.76751" lon="7.15011">
        <ele>863</ele>
        <time>2010-09-04T09:43:59Z</time>
      </trkpt>
      <trkpt lat="43.76751" lon="7.15011">
        <ele>863</ele>
        <time>2010-09-04T09:44:07Z</time>
      </trkpt>
      <trkpt lat="43.76751" lon="7.15011">
        <ele>863</ele>
        <time>2010-09-04T09:44:20Z</time>
      </trkpt>
      <trkpt lat="43.76751" lon="7.15012">
        <ele>863</ele>
        <time>2010-09-04T09:44:27Z</time>
      </trkpt>
      <trkpt lat="43.76751" lon="7.15011">
        <ele>863</ele>
        <time>2010-09-04T09:44:46Z</time>
      </trkpt>
      <trkpt lat="43.76752" lon="7.15011">
        <ele>863</ele>
        <time>2010-09-04T09:45:06Z</time>
      </trkpt>
      <trkpt lat="43.76752" lon="7.1501">
        <ele>863</ele>
        <time>2010-09-04T09:45:23Z</time>
      </trkpt>
      <trkpt lat="43.76752" lon="7.1501">
        <ele>863</ele>
        <time>2010-09-04T09:45:45Z</time>
      </trkpt>
      <trkpt lat="43.76753" lon="7.15011">
        <ele>863</ele>
        <time>2010-09-04T09:45:54Z</time>
      </trkpt>
      <trkpt lat="43.76752" lon="7.15011">
        <ele>863</ele>
        <time>2010-09-04T09:46:04Z</time>
      </trkpt>
      <trkpt lat="43.76752" lon="7.1501">
        <ele>863</ele>
        <time>2010-09-04T09:46:13Z</time>
      </trkpt>
      <trkpt lat="43.76752" lon="7.15011">
        <ele>863</ele>
        <time>2010-09-04T09:46:22Z</time>
      </trkpt>
      <trkpt lat="43.76751" lon="7.15011">
        <ele>863</ele>
        <time>2010-09-04T09:46:47Z</time>
      </trkpt>
      <trkpt lat="43.76751" lon="7.15011">
        <ele>863</ele>
        <time>2010-09-04T09:46:57Z</time>
      </trkpt>
      <trkpt lat="43.76751" lon="7.15012">
        <ele>863</ele>
        <time>2010-09-04T09:47:03Z</time>
      </trkpt>
      <trkpt lat="43.76751" lon="7.15012">
        <ele>863</ele>
        <time>2010-09-04T09:47:18Z</time>
      </trkpt>
      <trkpt lat="43.76751" lon="7.15012">
        <ele>863</ele>
        <time>2010-09-04T09:47:31Z</time>
      </trkpt>
      <trkpt lat="43.76751" lon="7.15011">
        <ele>863</ele>
        <time>2010-09-04T09:47:38Z</time>
      </trkpt>
      <trkpt lat="43.76751" lon="7.1501">
        <ele>863</ele>
        <time>2010-09-04T09:47:48Z</time>
      </trkpt>
      <trkpt lat="43.76751" lon="7.1501">
        <ele>863</ele>
        <time>2010-09-04T09:47:54Z</time>
      </trkpt>
      <trkpt lat="43.76752" lon="7.15011">
        <ele>863</ele>
        <time>2010-09-04T09:48:02Z</time>
      </trkpt>
      <trkpt lat="43.76751" lon="7.15012">
        <ele>863</ele>
        <time>2010-09-04T09:48:17Z</time>
      </trkpt>
      <trkpt lat="43.76751" lon="7.15011">
        <ele>863</ele>
        <time>2010-09-04T09:48:21Z</time>
      </trkpt>
      <trkpt lat="43.76751" lon="7.15011">
        <ele>863</ele>
        <time>2010-09-04T09:48:33Z</time>
      </trkpt>
      <trkpt lat="43.76751" lon="7.15012">
        <ele>863</ele>
        <time>2010-09-04T09:48:47Z</time>
      </trkpt>
      <trkpt lat="43.7675" lon="7.15012">
        <ele>863</ele>
        <time>2010-09-04T09:49:01Z</time>
      </trkpt>
      <trkpt lat="43.7675" lon="7.15012">
        <ele>862</ele>
        <time>2010-09-04T09:49:10Z</time>
      </trkpt>
      <trkpt lat="43.76749" lon="7.15012">
        <ele>862</ele>
        <time>2010-09-04T09:49:28Z</time>
      </trkpt>
      <trkpt lat="43.7675" lon="7.15012">
        <ele>862</ele>
        <time>2010-09-04T09:49:43Z</time>
      </trkpt>
      <trkpt lat="43.7675" lon="7.15012">
        <ele>863</ele>
        <time>2010-09-04T09:49:53Z</time>
      </trkpt>
      <trkpt lat="43.76751" lon="7.15011">
        <ele>863</ele>
        <time>2010-09-04T09:49:59Z</time>
      </trkpt>
      <trkpt lat="43.76751" lon="7.15011">
        <ele>863</ele>
        <time>2010-09-04T09:50:04Z</time>
      </trkpt>
      <trkpt lat="43.76752" lon="7.15011">
        <ele>863</ele>
        <time>2010-09-04T09:50:13Z</time>
      </trkpt>
      <trkpt lat="43.76752" lon="7.15011">
        <ele>863</ele>
        <time>2010-09-04T09:50:23Z</time>
      </trkpt>
      <trkpt lat="43.76752" lon="7.15011">
        <ele>863</ele>
        <time>2010-09-04T09:50:31Z</time>
      </trkpt>
      <trkpt lat="43.76752" lon="7.15011">
        <ele>863</ele>
        <time>2010-09-04T09:50:45Z</time>
      </trkpt>
      <trkpt lat="43.76752" lon="7.15012">
        <ele>863</ele>
        <time>2010-09-04T09:51:05Z</time>
      </trkpt>
      <trkpt lat="43.76752" lon="7.15013">
        <ele>863</ele>
        <time>2010-09-04T09:51:18Z</time>
      </trkpt>
      <trkpt lat="43.76753" lon="7.15012">
        <ele>863</ele>
        <time>2010-09-04T09:53:07Z</time>
      </trkpt>
      <trkpt lat="43.76753" lon="7.15013">
        <ele>863</ele>
        <time>2010-09-04T09:53:20Z</time>
      </trkpt>
      <trkpt lat="43.76753" lon="7.15012">
        <ele>863</ele>
        <time>2010-09-04T09:53:29Z</time>
      </trkpt>
      <trkpt lat="43.76753" lon="7.15011">
        <ele>863</ele>
        <time>2010-09-04T09:54:25Z</time>
      </trkpt>
      <trkpt lat="43.76751" lon="7.15012">
        <ele>863</ele>
        <time>2010-09-04T09:54:52Z</time>
      </trkpt>
      <trkpt lat="43.76751" lon="7.15012">
        <ele>863</ele>
        <time>2010-09-04T09:55:06Z</time>
      </trkpt>
      <trkpt lat="43.76752" lon="7.15012">
        <ele>863</ele>
        <time>2010-09-04T09:55:18Z</time>
      </trkpt>
      <trkpt lat="43.76752" lon="7.15013">
        <ele>863</ele>
        <time>2010-09-04T09:55:45Z</time>
      </trkpt>
      <trkpt lat="43.76752" lon="7.15013">
        <ele>863</ele>
        <time>2010-09-04T09:55:50Z</time>
      </trkpt>
      <trkpt lat="43.76752" lon="7.15012">
        <ele>863</ele>
        <time>2010-09-04T09:55:55Z</time>
      </trkpt>
      <trkpt lat="43.76752" lon="7.15011">
        <ele>863</ele>
        <time>2010-09-04T09:56:02Z</time>
      </trkpt>
      <trkpt lat="43.76751" lon="7.15011">
        <ele>863</ele>
        <time>2010-09-04T09:56:12Z</time>
      </trkpt>
      <trkpt lat="43.76751" lon="7.15012">
        <ele>863</ele>
        <time>2010-09-04T09:56:20Z</time>
      </trkpt>
      <trkpt lat="43.76752" lon="7.15012">
        <ele>863</ele>
        <time>2010-09-04T09:56:29Z</time>
      </trkpt>
      <trkpt lat="43.76752" lon="7.15012">
        <ele>863</ele>
        <time>2010-09-04T09:56:36Z</time>
      </trkpt>
      <trkpt lat="43.76752" lon="7.15011">
        <ele>863</ele>
        <time>2010-09-04T09:56:44Z</time>
      </trkpt>
      <trkpt lat="43.76752" lon="7.15011">
        <ele>863</ele>
        <time>2010-09-04T09:56:49Z</time>
      </trkpt>
      <trkpt lat="43.76753" lon="7.15009">
        <ele>863</ele>
        <time>2010-09-04T09:57:43Z</time>
      </trkpt>
      <trkpt lat="43.76752" lon="7.15009">
        <ele>863</ele>
        <time>2010-09-04T09:58:06Z</time>
      </trkpt>
      <trkpt lat="43.76751" lon="7.15009">
        <ele>863</ele>
        <time>2010-09-04T09:58:58Z</time>
      </trkpt>
      <trkpt lat="43.76751" lon="7.15009">
        <ele>863</ele>
        <time>2010-09-04T09:59:07Z</time>
      </trkpt>
      <trkpt lat="43.76751" lon="7.15009">
        <ele>863</ele>
        <time>2010-09-04T09:59:16Z</time>
      </trkpt>
      <trkpt lat="43.7675" lon="7.15009">
        <ele>863</ele>
        <time>2010-09-04T09:59:21Z</time>
      </trkpt>
      <trkpt lat="43.7675" lon="7.15008">
        <ele>863</ele>
        <time>2010-09-04T09:59:51Z</time>
      </trkpt>
      <trkpt lat="43.76751" lon="7.15009">
        <ele>863</ele>
        <time>2010-09-04T09:59:54Z</time>
      </trkpt>
      <trkpt lat="43.76751" lon="7.15009">
        <ele>863</ele>
        <time>2010-09-04T10:00:01Z</time>
      </trkpt>
      <trkpt lat="43.76751" lon="7.15009">
        <ele>863</ele>
        <time>2010-09-04T10:00:07Z</time>
      </trkpt>
      <trkpt lat="43.76751" lon="7.15009">
        <ele>863</ele>
        <time>2010-09-04T10:00:11Z</time>
      </trkpt>
      <trkpt lat="43.76751" lon="7.15009">
        <ele>863</ele>
        <time>2010-09-04T10:00:18Z</time>
      </trkpt>
      <trkpt lat="43.76751" lon="7.15009">
        <ele>863</ele>
        <time>2010-09-04T10:00:30Z</time>
      </trkpt>
      <trkpt lat="43.76752" lon="7.15009">
        <ele>863</ele>
        <time>2010-09-04T10:00:38Z</time>
      </trkpt>
      <trkpt lat="43.76751" lon="7.15008">
        <ele>863</ele>
        <time>2010-09-04T10:00:46Z</time>
      </trkpt>
      <trkpt lat="43.76751" lon="7.15008">
        <ele>863</ele>
        <time>2010-09-04T10:00:53Z</time>
      </trkpt>
      <trkpt lat="43.7675" lon="7.15008">
        <ele>862</ele>
        <time>2010-09-04T10:00:59Z</time>
      </trkpt>
      <trkpt lat="43.7675" lon="7.15008">
        <ele>862</ele>
        <time>2010-09-04T10:01:08Z</time>
      </trkpt>
      <trkpt lat="43.7675" lon="7.15007">
        <ele>862</ele>
        <time>2010-09-04T10:01:16Z</time>
      </trkpt>
      <trkpt lat="43.76746" lon="7.15004">
        <ele>862</ele>
        <time>2010-09-04T10:01:22Z</time>
      </trkpt>
      <trkpt lat="43.76745" lon="7.15004">
        <ele>862</ele>
        <time>2010-09-04T10:01:28Z</time>
      </trkpt>
      <trkpt lat="43.76745" lon="7.15002">
        <ele>862</ele>
        <time>2010-09-04T10:01:37Z</time>
      </trkpt>
      <trkpt lat="43.76742" lon="7.15">
        <ele>862</ele>
        <time>2010-09-04T10:01:45Z</time>
      </trkpt>
      <trkpt lat="43.76736" lon="7.14989">
        <ele>860</ele>
        <time>2010-09-04T10:01:51Z</time>
      </trkpt>
      <trkpt lat="43.76731" lon="7.14973">
        <ele>859</ele>
        <time>2010-09-04T10:01:56Z</time>
      </trkpt>
      <trkpt lat="43.76728" lon="7.14964">
        <ele>859</ele>
        <time>2010-09-04T10:01:59Z</time>
      </trkpt>
      <trkpt lat="43.76723" lon="7.14959">
        <ele>859</ele>
        <time>2010-09-04T10:02:05Z</time>
      </trkpt>
      <trkpt lat="43.76722" lon="7.14958">
        <ele>859</ele>
        <time>2010-09-04T10:02:11Z</time>
      </trkpt>
      <trkpt lat="43.76718" lon="7.14954">
        <ele>859</ele>
        <time>2010-09-04T10:02:15Z</time>
      </trkpt>
      <trkpt lat="43.76711" lon="7.14947">
        <ele>858</ele>
        <time>2010-09-04T10:02:23Z</time>
      </trkpt>
      <trkpt lat="43.76705" lon="7.14946">
        <ele>858</ele>
        <time>2010-09-04T10:02:28Z</time>
      </trkpt>
      <trkpt lat="43.76703" lon="7.14947">
        <ele>858</ele>
        <time>2010-09-04T10:02:30Z</time>
      </trkpt>
      <trkpt lat="43.76698" lon="7.14947">
        <ele>858</ele>
        <time>2010-09-04T10:02:36Z</time>
      </trkpt>
      <trkpt lat="43.76699" lon="7.14947">
        <ele>858</ele>
        <time>2010-09-04T10:02:45Z</time>
      </trkpt>
      <trkpt lat="43.76698" lon="7.14947">
        <ele>858</ele>
        <time>2010-09-04T10:02:53Z</time>
      </trkpt>
      <trkpt lat="43.76694" lon="7.14948">
        <ele>858</ele>
        <time>2010-09-04T10:02:58Z</time>
      </trkpt>
      <trkpt lat="43.76684" lon="7.14947">
        <ele>858</ele>
        <time>2010-09-04T10:03:03Z</time>
      </trkpt>
      <trkpt lat="43.76667" lon="7.14947">
        <ele>858</ele>
        <time>2010-09-04T10:03:09Z</time>
      </trkpt>
      <trkpt lat="43.76657" lon="7.14949">
        <ele>855</ele>
        <time>2010-09-04T10:03:13Z</time>
      </trkpt>
      <trkpt lat="43.76645" lon="7.14945">
        <ele>854</ele>
        <time>2010-09-04T10:03:18Z</time>
      </trkpt>
      <trkpt lat="43.7663" lon="7.14947">
        <ele>853</ele>
        <time>2010-09-04T10:03:22Z</time>
      </trkpt>
      <trkpt lat="43.76627" lon="7.14949">
        <ele>853</ele>
        <time>2010-09-04T10:03:23Z</time>
      </trkpt>
      <trkpt lat="43.76617" lon="7.14944">
        <ele>852</ele>
        <time>2010-09-04T10:03:27Z</time>
      </trkpt>
      <trkpt lat="43.76609" lon="7.14945">
        <ele>851</ele>
        <time>2010-09-04T10:03:30Z</time>
      </trkpt>
      <trkpt lat="43.76593" lon="7.1494">
        <ele>850</ele>
        <time>2010-09-04T10:03:36Z</time>
      </trkpt>
      <trkpt lat="43.7658" lon="7.14941">
        <ele>842</ele>
        <time>2010-09-04T10:03:41Z</time>
      </trkpt>
      <trkpt lat="43.7657" lon="7.14941">
        <ele>841</ele>
        <time>2010-09-04T10:03:45Z</time>
      </trkpt>
      <trkpt lat="43.76559" lon="7.14946">
        <ele>840</ele>
        <time>2010-09-04T10:03:49Z</time>
      </trkpt>
      <trkpt lat="43.76542" lon="7.14949">
        <ele>839</ele>
        <time>2010-09-04T10:03:54Z</time>
      </trkpt>
      <trkpt lat="43.76531" lon="7.14953">
        <ele>838</ele>
        <time>2010-09-04T10:03:58Z</time>
      </trkpt>
      <trkpt lat="43.76514" lon="7.14955">
        <ele>837</ele>
        <time>2010-09-04T10:04:03Z</time>
      </trkpt>
      <trkpt lat="43.765" lon="7.14957">
        <ele>836</ele>
        <time>2010-09-04T10:04:07Z</time>
      </trkpt>
      <trkpt lat="43.76483" lon="7.14949">
        <ele>826</ele>
        <time>2010-09-04T10:04:11Z</time>
      </trkpt>
      <trkpt lat="43.76464" lon="7.14946">
        <ele>825</ele>
        <time>2010-09-04T10:04:15Z</time>
      </trkpt>
      <trkpt lat="43.76454" lon="7.14946">
        <ele>824</ele>
        <time>2010-09-04T10:04:17Z</time>
      </trkpt>
      <trkpt lat="43.7644" lon="7.14937">
        <ele>822</ele>
        <time>2010-09-04T10:04:21Z</time>
      </trkpt>
      <trkpt lat="43.76421" lon="7.14933">
        <ele>821</ele>
        <time>2010-09-04T10:04:26Z</time>
      </trkpt>
      <trkpt lat="43.76403" lon="7.14932">
        <ele>816</ele>
        <time>2010-09-04T10:04:32Z</time>
      </trkpt>
      <trkpt lat="43.76394" lon="7.14932">
        <ele>816</ele>
        <time>2010-09-04T10:04:35Z</time>
      </trkpt>
      <trkpt lat="43.76391" lon="7.14936">
        <ele>815</ele>
        <time>2010-09-04T10:04:39Z</time>
      </trkpt>
      <trkpt lat="43.76391" lon="7.14935">
        <ele>815</ele>
        <time>2010-09-04T10:04:45Z</time>
      </trkpt>
      <trkpt lat="43.76391" lon="7.14935">
        <ele>816</ele>
        <time>2010-09-04T10:04:51Z</time>
      </trkpt>
      <trkpt lat="43.76391" lon="7.14935">
        <ele>815</ele>
        <time>2010-09-04T10:05:02Z</time>
      </trkpt>
      <trkpt lat="43.76391" lon="7.14934">
        <ele>816</ele>
        <time>2010-09-04T10:05:07Z</time>
      </trkpt>
      <trkpt lat="43.76391" lon="7.14936">
        <ele>815</ele>
        <time>2010-09-04T10:05:36Z</time>
      </trkpt>
      <trkpt lat="43.76391" lon="7.14936">
        <ele>815</ele>
        <time>2010-09-04T10:05:47Z</time>
      </trkpt>
      <trkpt lat="43.76391" lon="7.14937">
        <ele>815</ele>
        <time>2010-09-04T10:06:06Z</time>
      </trkpt>
      <trkpt lat="43.76392" lon="7.14936">
        <ele>815</ele>
        <time>2010-09-04T10:06:22Z</time>
      </trkpt>
      <trkpt lat="43.76391" lon="7.14937">
        <ele>815</ele>
        <time>2010-09-04T10:06:27Z</time>
      </trkpt>
      <trkpt lat="43.76391" lon="7.14936">
        <ele>815</ele>
        <time>2010-09-04T10:06:37Z</time>
      </trkpt>
      <trkpt lat="43.76391" lon="7.14937">
        <ele>815</ele>
        <time>2010-09-04T10:06:43Z</time>
      </trkpt>
      <trkpt lat="43.76391" lon="7.14934">
        <ele>816</ele>
        <time>2010-09-04T10:06:58Z</time>
      </trkpt>
      <trkpt lat="43.76395" lon="7.14913">
        <ele>815</ele>
        <time>2010-09-04T10:07:04Z</time>
      </trkpt>
      <trkpt lat="43.76395" lon="7.14913">
        <ele>815</ele>
        <time>2010-09-04T10:07:05Z</time>
      </trkpt>
      <trkpt lat="43.76393" lon="7.1493">
        <ele>816</ele>
        <time>2010-09-04T10:07:11Z</time>
      </trkpt>
      <trkpt lat="43.76391" lon="7.14936">
        <ele>815</ele>
        <time>2010-09-04T10:07:16Z</time>
      </trkpt>
      <trkpt lat="43.7639" lon="7.14935">
        <ele>815</ele>
        <time>2010-09-04T10:07:40Z</time>
      </trkpt>
      <trkpt lat="43.7639" lon="7.14935">
        <ele>815</ele>
        <time>2010-09-04T10:08:17Z</time>
      </trkpt>
      <trkpt lat="43.76389" lon="7.14935">
        <ele>815</ele>
        <time>2010-09-04T10:08:22Z</time>
      </trkpt>
      <trkpt lat="43.76391" lon="7.14933">
        <ele>816</ele>
        <time>2010-09-04T10:08:28Z</time>
      </trkpt>
      <trkpt lat="43.76391" lon="7.14934">
        <ele>816</ele>
        <time>2010-09-04T10:08:35Z</time>
      </trkpt>
      <trkpt lat="43.76389" lon="7.14935">
        <ele>815</ele>
        <time>2010-09-04T10:08:41Z</time>
      </trkpt>
      <trkpt lat="43.76383" lon="7.14947">
        <ele>815</ele>
        <time>2010-09-04T10:08:47Z</time>
      </trkpt>
      <trkpt lat="43.76379" lon="7.14965">
        <ele>814</ele>
        <time>2010-09-04T10:08:51Z</time>
      </trkpt>
      <trkpt lat="43.7637" lon="7.14988">
        <ele>813</ele>
        <time>2010-09-04T10:08:55Z</time>
      </trkpt>
      <trkpt lat="43.76364" lon="7.15006">
        <ele>807</ele>
        <time>2010-09-04T10:08:58Z</time>
      </trkpt>
      <trkpt lat="43.76355" lon="7.15022">
        <ele>807</ele>
        <time>2010-09-04T10:09:01Z</time>
      </trkpt>
      <trkpt lat="43.76342" lon="7.15048">
        <ele>804</ele>
        <time>2010-09-04T10:09:05Z</time>
      </trkpt>
      <trkpt lat="43.76334" lon="7.15061">
        <ele>802</ele>
        <time>2010-09-04T10:09:07Z</time>
      </trkpt>
      <trkpt lat="43.76323" lon="7.15084">
        <ele>794</ele>
        <time>2010-09-04T10:09:10Z</time>
      </trkpt>
      <trkpt lat="43.76306" lon="7.15104">
        <ele>791</ele>
        <time>2010-09-04T10:09:14Z</time>
      </trkpt>
      <trkpt lat="43.76298" lon="7.15115">
        <ele>790</ele>
        <time>2010-09-04T10:09:16Z</time>
      </trkpt>
      <trkpt lat="43.76289" lon="7.15126">
        <ele>788</ele>
        <time>2010-09-04T10:09:18Z</time>
      </trkpt>
      <trkpt lat="43.76279" lon="7.15142">
        <ele>786</ele>
        <time>2010-09-04T10:09:22Z</time>
      </trkpt>
      <trkpt lat="43.76281" lon="7.15153">
        <ele>785</ele>
        <time>2010-09-04T10:09:25Z</time>
      </trkpt>
      <trkpt lat="43.76285" lon="7.15164">
        <ele>785</ele>
        <time>2010-09-04T10:09:28Z</time>
      </trkpt>
      <trkpt lat="43.76283" lon="7.15181">
        <ele>772</ele>
        <time>2010-09-04T10:09:34Z</time>
      </trkpt>
      <trkpt lat="43.76283" lon="7.15184">
        <ele>772</ele>
        <time>2010-09-04T10:09:36Z</time>
      </trkpt>
      <trkpt lat="43.76281" lon="7.15187">
        <ele>772</ele>
        <time>2010-09-04T10:09:49Z</time>
      </trkpt>
      <trkpt lat="43.76282" lon="7.1519">
        <ele>771</ele>
        <time>2010-09-04T10:09:56Z</time>
      </trkpt>
      <trkpt lat="43.76283" lon="7.15194">
        <ele>771</ele>
        <time>2010-09-04T10:10:01Z</time>
      </trkpt>
      <trkpt lat="43.76282" lon="7.15196">
        <ele>771</ele>
        <time>2010-09-04T10:10:06Z</time>
      </trkpt>
      <trkpt lat="43.76275" lon="7.15209">
        <ele>769</ele>
        <time>2010-09-04T10:10:11Z</time>
      </trkpt>
      <trkpt lat="43.76271" lon="7.15221">
        <ele>767</ele>
        <time>2010-09-04T10:10:15Z</time>
      </trkpt>
      <trkpt lat="43.76261" lon="7.15239">
        <ele>764</ele>
        <time>2010-09-04T10:10:20Z</time>
      </trkpt>
      <trkpt lat="43.76258" lon="7.15246">
        <ele>762</ele>
        <time>2010-09-04T10:10:22Z</time>
      </trkpt>
      <trkpt lat="43.76251" lon="7.1526">
        <ele>758</ele>
        <time>2010-09-04T10:10:27Z</time>
      </trkpt>
      <trkpt lat="43.76242" lon="7.1527">
        <ele>754</ele>
        <time>2010-09-04T10:10:31Z</time>
      </trkpt>
      <trkpt lat="43.7624" lon="7.15272">
        <ele>753</ele>
        <time>2010-09-04T10:10:32Z</time>
      </trkpt>
      <trkpt lat="43.76235" lon="7.15279">
        <ele>752</ele>
        <time>2010-09-04T10:10:35Z</time>
      </trkpt>
      <trkpt lat="43.76232" lon="7.15289">
        <ele>751</ele>
        <time>2010-09-04T10:10:39Z</time>
      </trkpt>
      <trkpt lat="43.76221" lon="7.15302">
        <ele>750</ele>
        <time>2010-09-04T10:10:44Z</time>
      </trkpt>
      <trkpt lat="43.7621" lon="7.15315">
        <ele>749</ele>
        <time>2010-09-04T10:10:49Z</time>
      </trkpt>
      <trkpt lat="43.76208" lon="7.15328">
        <ele>748</ele>
        <time>2010-09-04T10:10:51Z</time>
      </trkpt>
      <trkpt lat="43.76199" lon="7.15338">
        <ele>748</ele>
        <time>2010-09-04T10:10:55Z</time>
      </trkpt>
      <trkpt lat="43.762" lon="7.15338">
        <ele>748</ele>
        <time>2010-09-04T10:11:02Z</time>
      </trkpt>
      <trkpt lat="43.76198" lon="7.15338">
        <ele>748</ele>
        <time>2010-09-04T10:11:15Z</time>
      </trkpt>
      <trkpt lat="43.76198" lon="7.1534">
        <ele>748</ele>
        <time>2010-09-04T10:11:38Z</time>
      </trkpt>
      <trkpt lat="43.76198" lon="7.15341">
        <ele>748</ele>
        <time>2010-09-04T10:11:45Z</time>
      </trkpt>
      <trkpt lat="43.76195" lon="7.1534">
        <ele>748</ele>
        <time>2010-09-04T10:11:50Z</time>
      </trkpt>
      <trkpt lat="43.76195" lon="7.1534">
        <ele>748</ele>
        <time>2010-09-04T10:11:57Z</time>
      </trkpt>
      <trkpt lat="43.76185" lon="7.1534">
        <ele>746</ele>
        <time>2010-09-04T10:12:02Z</time>
      </trkpt>
      <trkpt lat="43.76178" lon="7.15337">
        <ele>744</ele>
        <time>2010-09-04T10:12:04Z</time>
      </trkpt>
      <trkpt lat="43.76165" lon="7.15325">
        <ele>739</ele>
        <time>2010-09-04T10:12:09Z</time>
      </trkpt>
      <trkpt lat="43.76157" lon="7.15326">
        <ele>739</ele>
        <time>2010-09-04T10:12:12Z</time>
      </trkpt>
      <trkpt lat="43.76152" lon="7.15327">
        <ele>739</ele>
        <time>2010-09-04T10:12:14Z</time>
      </trkpt>
      <trkpt lat="43.76145" lon="7.1533">
        <ele>739</ele>
        <time>2010-09-04T10:12:19Z</time>
      </trkpt>
      <trkpt lat="43.76129" lon="7.15332">
        <ele>737</ele>
        <time>2010-09-04T10:12:25Z</time>
      </trkpt>
      <trkpt lat="43.76121" lon="7.15339">
        <ele>734</ele>
        <time>2010-09-04T10:12:29Z</time>
      </trkpt>
      <trkpt lat="43.76115" lon="7.15344">
        <ele>734</ele>
        <time>2010-09-04T10:12:33Z</time>
      </trkpt>
      <trkpt lat="43.76109" lon="7.15346">
        <ele>733</ele>
        <time>2010-09-04T10:12:36Z</time>
      </trkpt>
      <trkpt lat="43.76095" lon="7.15348">
        <ele>731</ele>
        <time>2010-09-04T10:12:40Z</time>
      </trkpt>
      <trkpt lat="43.7609" lon="7.15351">
        <ele>730</ele>
        <time>2010-09-04T10:12:41Z</time>
      </trkpt>
      <trkpt lat="43.76064" lon="7.15362">
        <ele>720</ele>
        <time>2010-09-04T10:12:46Z</time>
      </trkpt>
      <trkpt lat="43.76048" lon="7.15369">
        <ele>718</ele>
        <time>2010-09-04T10:12:51Z</time>
      </trkpt>
      <trkpt lat="43.76036" lon="7.15374">
        <ele>716</ele>
        <time>2010-09-04T10:12:55Z</time>
      </trkpt>
      <trkpt lat="43.76025" lon="7.1538">
        <ele>715</ele>
        <time>2010-09-04T10:13:00Z</time>
      </trkpt>
      <trkpt lat="43.7601" lon="7.15391">
        <ele>713</ele>
        <time>2010-09-04T10:13:05Z</time>
      </trkpt>
      <trkpt lat="43.76005" lon="7.15392">
        <ele>712</ele>
        <time>2010-09-04T10:13:06Z</time>
      </trkpt>
      <trkpt lat="43.75989" lon="7.15401">
        <ele>698</ele>
        <time>2010-09-04T10:13:12Z</time>
      </trkpt>
      <trkpt lat="43.75976" lon="7.15411">
        <ele>695</ele>
        <time>2010-09-04T10:13:16Z</time>
      </trkpt>
      <trkpt lat="43.75964" lon="7.1542">
        <ele>695</ele>
        <time>2010-09-04T10:13:19Z</time>
      </trkpt>
      <trkpt lat="43.75952" lon="7.15434">
        <ele>693</ele>
        <time>2010-09-04T10:13:23Z</time>
      </trkpt>
      <trkpt lat="43.7594" lon="7.15452">
        <ele>692</ele>
        <time>2010-09-04T10:13:29Z</time>
      </trkpt>
      <trkpt lat="43.75939" lon="7.15453">
        <ele>692</ele>
        <time>2010-09-04T10:13:32Z</time>
      </trkpt>
      <trkpt lat="43.75934" lon="7.1545">
        <ele>691</ele>
        <time>2010-09-04T10:13:48Z</time>
      </trkpt>
      <trkpt lat="43.75934" lon="7.1545">
        <ele>691</ele>
        <time>2010-09-04T10:14:03Z</time>
      </trkpt>
      <trkpt lat="43.75933" lon="7.1545">
        <ele>691</ele>
        <time>2010-09-04T10:14:30Z</time>
      </trkpt>
      <trkpt lat="43.75932" lon="7.15451">
        <ele>691</ele>
        <time>2010-09-04T10:14:58Z</time>
      </trkpt>
      <trkpt lat="43.75928" lon="7.15458">
        <ele>691</ele>
        <time>2010-09-04T10:15:09Z</time>
      </trkpt>
      <trkpt lat="43.75919" lon="7.15469">
        <ele>691</ele>
        <time>2010-09-04T10:15:13Z</time>
      </trkpt>
      <trkpt lat="43.7591" lon="7.1548">
        <ele>671</ele>
        <time>2010-09-04T10:15:17Z</time>
      </trkpt>
      <trkpt lat="43.75898" lon="7.15492">
        <ele>670</ele>
        <time>2010-09-04T10:15:21Z</time>
      </trkpt>
      <trkpt lat="43.75893" lon="7.15501">
        <ele>674</ele>
        <time>2010-09-04T10:15:24Z</time>
      </trkpt>
      <trkpt lat="43.75889" lon="7.1551">
        <ele>672</ele>
        <time>2010-09-04T10:15:28Z</time>
      </trkpt>
      <trkpt lat="43.75879" lon="7.15537">
        <ele>669</ele>
        <time>2010-09-04T10:15:34Z</time>
      </trkpt>
      <trkpt lat="43.7587" lon="7.1556">
        <ele>667</ele>
        <time>2010-09-04T10:15:38Z</time>
      </trkpt>
      <trkpt lat="43.75864" lon="7.15586">
        <ele>668</ele>
        <time>2010-09-04T10:15:42Z</time>
      </trkpt>
      <trkpt lat="43.75858" lon="7.15612">
        <ele>667</ele>
        <time>2010-09-04T10:15:47Z</time>
      </trkpt>
      <trkpt lat="43.75856" lon="7.15628">
        <ele>667</ele>
        <time>2010-09-04T10:15:50Z</time>
      </trkpt>
      <trkpt lat="43.75855" lon="7.15651">
        <ele>664</ele>
        <time>2010-09-04T10:15:55Z</time>
      </trkpt>
      <trkpt lat="43.75853" lon="7.15669">
        <ele>658</ele>
        <time>2010-09-04T10:15:59Z</time>
      </trkpt>
      <trkpt lat="43.75854" lon="7.15699">
        <ele>660</ele>
        <time>2010-09-04T10:16:04Z</time>
      </trkpt>
      <trkpt lat="43.75852" lon="7.1572">
        <ele>658</ele>
        <time>2010-09-04T10:16:10Z</time>
      </trkpt>
      <trkpt lat="43.75853" lon="7.15736">
        <ele>655</ele>
        <time>2010-09-04T10:16:14Z</time>
      </trkpt>
      <trkpt lat="43.75853" lon="7.1574">
        <ele>654</ele>
        <time>2010-09-04T10:16:15Z</time>
      </trkpt>
      <trkpt lat="43.75852" lon="7.15746">
        <ele>653</ele>
        <time>2010-09-04T10:16:17Z</time>
      </trkpt>
      <trkpt lat="43.75852" lon="7.15758">
        <ele>645</ele>
        <time>2010-09-04T10:16:20Z</time>
      </trkpt>
      <trkpt lat="43.75856" lon="7.15776">
        <ele>645</ele>
        <time>2010-09-04T10:16:24Z</time>
      </trkpt>
      <trkpt lat="43.75862" lon="7.15796">
        <ele>644</ele>
        <time>2010-09-04T10:16:28Z</time>
      </trkpt>
      <trkpt lat="43.75867" lon="7.15809">
        <ele>643</ele>
        <time>2010-09-04T10:16:32Z</time>
      </trkpt>
      <trkpt lat="43.75879" lon="7.15829">
        <ele>644</ele>
        <time>2010-09-04T10:16:37Z</time>
      </trkpt>
      <trkpt lat="43.75892" lon="7.1584">
        <ele>630</ele>
        <time>2010-09-04T10:16:40Z</time>
      </trkpt>
      <trkpt lat="43.75895" lon="7.15842">
        <ele>631</ele>
        <time>2010-09-04T10:16:41Z</time>
      </trkpt>
      <trkpt lat="43.75903" lon="7.15846">
        <ele>633</ele>
        <time>2010-09-04T10:16:46Z</time>
      </trkpt>
      <trkpt lat="43.75902" lon="7.15847">
        <ele>632</ele>
        <time>2010-09-04T10:17:10Z</time>
      </trkpt>
      <trkpt lat="43.759" lon="7.15847">
        <ele>632</ele>
        <time>2010-09-04T10:17:37Z</time>
      </trkpt>
      <trkpt lat="43.759" lon="7.15847">
        <ele>631</ele>
        <time>2010-09-04T10:17:54Z</time>
      </trkpt>
      <trkpt lat="43.759" lon="7.15847">
        <ele>632</ele>
        <time>2010-09-04T10:18:01Z</time>
      </trkpt>
      <trkpt lat="43.759" lon="7.15847">
        <ele>632</ele>
        <time>2010-09-04T10:18:17Z</time>
      </trkpt>
      <trkpt lat="43.759" lon="7.15846">
        <ele>632</ele>
        <time>2010-09-04T10:18:44Z</time>
      </trkpt>
      <trkpt lat="43.75899" lon="7.15842">
        <ele>633</ele>
        <time>2010-09-04T10:19:17Z</time>
      </trkpt>
      <trkpt lat="43.75901" lon="7.15843">
        <ele>633</ele>
        <time>2010-09-04T10:19:39Z</time>
      </trkpt>
      <trkpt lat="43.75905" lon="7.15846">
        <ele>634</ele>
        <time>2010-09-04T10:19:44Z</time>
      </trkpt>
      <trkpt lat="43.75916" lon="7.15858">
        <ele>630</ele>
        <time>2010-09-04T10:19:48Z</time>
      </trkpt>
      <trkpt lat="43.75924" lon="7.15866">
        <ele>641</ele>
        <time>2010-09-04T10:19:51Z</time>
      </trkpt>
      <trkpt lat="43.75923" lon="7.1587">
        <ele>639</ele>
        <time>2010-09-04T10:19:55Z</time>
      </trkpt>
      <trkpt lat="43.75917" lon="7.1587">
        <ele>639</ele>
        <time>2010-09-04T10:19:57Z</time>
      </trkpt>
      <trkpt lat="43.75904" lon="7.15869">
        <ele>624</ele>
        <time>2010-09-04T10:20:02Z</time>
      </trkpt>
      <trkpt lat="43.75907" lon="7.15876">
        <ele>622</ele>
        <time>2010-09-04T10:20:06Z</time>
      </trkpt>
      <trkpt lat="43.7591" lon="7.15878">
        <ele>622</ele>
        <time>2010-09-04T10:20:07Z</time>
      </trkpt>
      <trkpt lat="43.75921" lon="7.1589">
        <ele>632</ele>
        <time>2010-09-04T10:20:12Z</time>
      </trkpt>
      <trkpt lat="43.75923" lon="7.15892">
        <ele>632</ele>
        <time>2010-09-04T10:20:13Z</time>
      </trkpt>
      <trkpt lat="43.75924" lon="7.15894">
        <ele>631</ele>
        <time>2010-09-04T10:20:24Z</time>
      </trkpt>
      <trkpt lat="43.75925" lon="7.15895">
        <ele>630</ele>
        <time>2010-09-04T10:20:30Z</time>
      </trkpt>
      <trkpt lat="43.75924" lon="7.15895">
        <ele>630</ele>
        <time>2010-09-04T10:20:40Z</time>
      </trkpt>
      <trkpt lat="43.75927" lon="7.15896">
        <ele>630</ele>
        <time>2010-09-04T10:20:47Z</time>
      </trkpt>
      <trkpt lat="43.7593" lon="7.15897">
        <ele>630</ele>
        <time>2010-09-04T10:20:49Z</time>
      </trkpt>
      <trkpt lat="43.75938" lon="7.15907">
        <ele>630</ele>
        <time>2010-09-04T10:20:53Z</time>
      </trkpt>
      <trkpt lat="43.7594" lon="7.15907">
        <ele>631</ele>
        <time>2010-09-04T10:20:56Z</time>
      </trkpt>
      <trkpt lat="43.7594" lon="7.15907">
        <ele>630</ele>
        <time>2010-09-04T10:21:02Z</time>
      </trkpt>
      <trkpt lat="43.7594" lon="7.15909">
        <ele>630</ele>
        <time>2010-09-04T10:21:13Z</time>
      </trkpt>
      <trkpt lat="43.7594" lon="7.1591">
        <ele>630</ele>
        <time>2010-09-04T10:21:20Z</time>
      </trkpt>
      <trkpt lat="43.75951" lon="7.15923">
        <ele>611</ele>
        <time>2010-09-04T10:21:25Z</time>
      </trkpt>
      <trkpt lat="43.75963" lon="7.15933">
        <ele>611</ele>
        <time>2010-09-04T10:21:29Z</time>
      </trkpt>
      <trkpt lat="43.75969" lon="7.15938">
        <ele>611</ele>
        <time>2010-09-04T10:21:32Z</time>
      </trkpt>
      <trkpt lat="43.75969" lon="7.15944">
        <ele>610</ele>
        <time>2010-09-04T10:21:36Z</time>
      </trkpt>
      <trkpt lat="43.75966" lon="7.15944">
        <ele>610</ele>
        <time>2010-09-04T10:21:37Z</time>
      </trkpt>
      <trkpt lat="43.75941" lon="7.15943">
        <ele>607</ele>
        <time>2010-09-04T10:21:43Z</time>
      </trkpt>
      <trkpt lat="43.75927" lon="7.15943">
        <ele>607</ele>
        <time>2010-09-04T10:21:47Z</time>
      </trkpt>
      <trkpt lat="43.75928" lon="7.15948">
        <ele>605</ele>
        <time>2010-09-04T10:21:51Z</time>
      </trkpt>
      <trkpt lat="43.75931" lon="7.15951">
        <ele>605</ele>
        <time>2010-09-04T10:21:52Z</time>
      </trkpt>
      <trkpt lat="43.7595" lon="7.15975">
        <ele>601</ele>
        <time>2010-09-04T10:21:58Z</time>
      </trkpt>
      <trkpt lat="43.7596" lon="7.15988">
        <ele>601</ele>
        <time>2010-09-04T10:22:01Z</time>
      </trkpt>
      <trkpt lat="43.75968" lon="7.15994">
        <ele>601</ele>
        <time>2010-09-04T10:22:03Z</time>
      </trkpt>
      <trkpt lat="43.7598" lon="7.16005">
        <ele>584</ele>
        <time>2010-09-04T10:22:07Z</time>
      </trkpt>
      <trkpt lat="43.75979" lon="7.1601">
        <ele>582</ele>
        <time>2010-09-04T10:22:10Z</time>
      </trkpt>
      <trkpt lat="43.75979" lon="7.1601">
        <ele>582</ele>
        <time>2010-09-04T10:22:15Z</time>
      </trkpt>
      <trkpt lat="43.75981" lon="7.1601">
        <ele>583</ele>
        <time>2010-09-04T10:22:21Z</time>
      </trkpt>
      <trkpt lat="43.75982" lon="7.16011">
        <ele>583</ele>
        <time>2010-09-04T10:22:28Z</time>
      </trkpt>
      <trkpt lat="43.75985" lon="7.16014">
        <ele>583</ele>
        <time>2010-09-04T10:22:33Z</time>
      </trkpt>
      <trkpt lat="43.75992" lon="7.16021">
        <ele>582</ele>
        <time>2010-09-04T10:22:37Z</time>
      </trkpt>
      <trkpt lat="43.76002" lon="7.16034">
        <ele>591</ele>
        <time>2010-09-04T10:22:42Z</time>
      </trkpt>
      <trkpt lat="43.76003" lon="7.16043">
        <ele>589</ele>
        <time>2010-09-04T10:22:46Z</time>
      </trkpt>
      <trkpt lat="43.76" lon="7.16044">
        <ele>588</ele>
        <time>2010-09-04T10:22:47Z</time>
      </trkpt>
      <trkpt lat="43.75987" lon="7.16043">
        <ele>574</ele>
        <time>2010-09-04T10:22:52Z</time>
      </trkpt>
      <trkpt lat="43.75974" lon="7.16041">
        <ele>574</ele>
        <time>2010-09-04T10:22:58Z</time>
      </trkpt>
      <trkpt lat="43.75968" lon="7.16041">
        <ele>573</ele>
        <time>2010-09-04T10:23:00Z</time>
      </trkpt>
      <trkpt lat="43.75953" lon="7.16041">
        <ele>572</ele>
        <time>2010-09-04T10:23:04Z</time>
      </trkpt>
      <trkpt lat="43.75949" lon="7.1604">
        <ele>572</ele>
        <time>2010-09-04T10:23:05Z</time>
      </trkpt>
      <trkpt lat="43.75939" lon="7.16037">
        <ele>571</ele>
        <time>2010-09-04T10:23:08Z</time>
      </trkpt>
      <trkpt lat="43.75939" lon="7.1604">
        <ele>571</ele>
        <time>2010-09-04T10:23:12Z</time>
      </trkpt>
      <trkpt lat="43.7595" lon="7.16051">
        <ele>570</ele>
        <time>2010-09-04T10:23:17Z</time>
      </trkpt>
      <trkpt lat="43.75961" lon="7.16063">
        <ele>569</ele>
        <time>2010-09-04T10:23:21Z</time>
      </trkpt>
      <trkpt lat="43.75973" lon="7.16075">
        <ele>568</ele>
        <time>2010-09-04T10:23:26Z</time>
      </trkpt>
      <trkpt lat="43.75973" lon="7.16081">
        <ele>568</ele>
        <time>2010-09-04T10:23:30Z</time>
      </trkpt>
      <trkpt lat="43.75969" lon="7.1608">
        <ele>568</ele>
        <time>2010-09-04T10:23:32Z</time>
      </trkpt>
      <trkpt lat="43.75954" lon="7.16081">
        <ele>565</ele>
        <time>2010-09-04T10:23:37Z</time>
      </trkpt>
      <trkpt lat="43.75939" lon="7.16083">
        <ele>561</ele>
        <time>2010-09-04T10:23:42Z</time>
      </trkpt>
      <trkpt lat="43.75937" lon="7.16084">
        <ele>546</ele>
        <time>2010-09-04T10:23:47Z</time>
      </trkpt>
      <trkpt lat="43.75935" lon="7.16084">
        <ele>546</ele>
        <time>2010-09-04T10:23:49Z</time>
      </trkpt>
      <trkpt lat="43.7593" lon="7.16085">
        <ele>546</ele>
        <time>2010-09-04T10:23:53Z</time>
      </trkpt>
      <trkpt lat="43.75929" lon="7.16086">
        <ele>546</ele>
        <time>2010-09-04T10:24:00Z</time>
      </trkpt>
      <trkpt lat="43.75929" lon="7.16087">
        <ele>546</ele>
        <time>2010-09-04T10:24:08Z</time>
      </trkpt>
      <trkpt lat="43.75928" lon="7.16086">
        <ele>546</ele>
        <time>2010-09-04T10:24:15Z</time>
      </trkpt>
      <trkpt lat="43.75928" lon="7.16086">
        <ele>546</ele>
        <time>2010-09-04T10:24:26Z</time>
      </trkpt>
      <trkpt lat="43.75928" lon="7.16087">
        <ele>546</ele>
        <time>2010-09-04T10:24:37Z</time>
      </trkpt>
      <trkpt lat="43.75929" lon="7.16089">
        <ele>546</ele>
        <time>2010-09-04T10:24:43Z</time>
      </trkpt>
      <trkpt lat="43.7593" lon="7.1609">
        <ele>545</ele>
        <time>2010-09-04T10:24:47Z</time>
      </trkpt>
      <trkpt lat="43.75932" lon="7.16092">
        <ele>545</ele>
        <time>2010-09-04T10:24:51Z</time>
      </trkpt>
      <trkpt lat="43.75941" lon="7.16104">
        <ele>544</ele>
        <time>2010-09-04T10:24:56Z</time>
      </trkpt>
      <trkpt lat="43.75944" lon="7.16109">
        <ele>544</ele>
        <time>2010-09-04T10:25:01Z</time>
      </trkpt>
      <trkpt lat="43.75945" lon="7.16112">
        <ele>544</ele>
        <time>2010-09-04T10:25:04Z</time>
      </trkpt>
      <trkpt lat="43.75955" lon="7.16125">
        <ele>543</ele>
        <time>2010-09-04T10:25:09Z</time>
      </trkpt>
      <trkpt lat="43.75957" lon="7.16127">
        <ele>543</ele>
        <time>2010-09-04T10:25:10Z</time>
      </trkpt>
      <trkpt lat="43.75954" lon="7.16132">
        <ele>541</ele>
        <time>2010-09-04T10:25:14Z</time>
      </trkpt>
      <trkpt lat="43.75952" lon="7.16131">
        <ele>541</ele>
        <time>2010-09-04T10:25:15Z</time>
      </trkpt>
      <trkpt lat="43.75936" lon="7.16132">
        <ele>539</ele>
        <time>2010-09-04T10:25:21Z</time>
      </trkpt>
      <trkpt lat="43.75927" lon="7.16131">
        <ele>539</ele>
        <time>2010-09-04T10:25:24Z</time>
      </trkpt>
      <trkpt lat="43.75927" lon="7.16133">
        <ele>538</ele>
        <time>2010-09-04T10:25:28Z</time>
      </trkpt>
      <trkpt lat="43.75933" lon="7.16141">
        <ele>536</ele>
        <time>2010-09-04T10:25:31Z</time>
      </trkpt>
      <trkpt lat="43.75942" lon="7.16154">
        <ele>535</ele>
        <time>2010-09-04T10:25:35Z</time>
      </trkpt>
      <trkpt lat="43.75949" lon="7.16161">
        <ele>536</ele>
        <time>2010-09-04T10:25:38Z</time>
      </trkpt>
      <trkpt lat="43.75957" lon="7.16175">
        <ele>522</ele>
        <time>2010-09-04T10:25:43Z</time>
      </trkpt>
      <trkpt lat="43.75959" lon="7.16182">
        <ele>521</ele>
        <time>2010-09-04T10:25:46Z</time>
      </trkpt>
      <trkpt lat="43.75955" lon="7.16181">
        <ele>521</ele>
        <time>2010-09-04T10:25:49Z</time>
      </trkpt>
      <trkpt lat="43.75956" lon="7.16185">
        <ele>520</ele>
        <time>2010-09-04T10:25:52Z</time>
      </trkpt>
      <trkpt lat="43.75958" lon="7.16188">
        <ele>520</ele>
        <time>2010-09-04T10:25:53Z</time>
      </trkpt>
      <trkpt lat="43.75967" lon="7.16206">
        <ele>519</ele>
        <time>2010-09-04T10:25:58Z</time>
      </trkpt>
      <trkpt lat="43.75977" lon="7.16216">
        <ele>518</ele>
        <time>2010-09-04T10:26:02Z</time>
      </trkpt>
      <trkpt lat="43.75979" lon="7.1622">
        <ele>518</ele>
        <time>2010-09-04T10:26:06Z</time>
      </trkpt>
      <trkpt lat="43.75979" lon="7.1622">
        <ele>518</ele>
        <time>2010-09-04T10:26:12Z</time>
      </trkpt>
      <trkpt lat="43.75979" lon="7.1622">
        <ele>518</ele>
        <time>2010-09-04T10:26:25Z</time>
      </trkpt>
      <trkpt lat="43.75979" lon="7.1622">
        <ele>518</ele>
        <time>2010-09-04T10:26:50Z</time>
      </trkpt>
      <trkpt lat="43.7598" lon="7.1622">
        <ele>518</ele>
        <time>2010-09-04T10:26:58Z</time>
      </trkpt>
      <trkpt lat="43.7598" lon="7.1622">
        <ele>518</ele>
        <time>2010-09-04T10:27:06Z</time>
      </trkpt>
      <trkpt lat="43.75979" lon="7.1622">
        <ele>518</ele>
        <time>2010-09-04T10:27:18Z</time>
      </trkpt>
      <trkpt lat="43.75979" lon="7.16221">
        <ele>518</ele>
        <time>2010-09-04T10:27:45Z</time>
      </trkpt>
      <trkpt lat="43.7598" lon="7.1622">
        <ele>518</ele>
        <time>2010-09-04T10:28:15Z</time>
      </trkpt>
      <trkpt lat="43.7598" lon="7.16221">
        <ele>518</ele>
        <time>2010-09-04T10:28:36Z</time>
      </trkpt>
      <trkpt lat="43.75984" lon="7.16227">
        <ele>518</ele>
        <time>2010-09-04T10:28:44Z</time>
      </trkpt>
      <trkpt lat="43.75995" lon="7.16239">
        <ele>517</ele>
        <time>2010-09-04T10:28:49Z</time>
      </trkpt>
      <trkpt lat="43.76002" lon="7.16244">
        <ele>521</ele>
        <time>2010-09-04T10:28:52Z</time>
      </trkpt>
      <trkpt lat="43.76015" lon="7.16259">
        <ele>516</ele>
        <time>2010-09-04T10:28:58Z</time>
      </trkpt>
      <trkpt lat="43.7602" lon="7.16264">
        <ele>516</ele>
        <time>2010-09-04T10:29:00Z</time>
      </trkpt>
      <trkpt lat="43.76026" lon="7.16275">
        <ele>516</ele>
        <time>2010-09-04T10:29:05Z</time>
      </trkpt>
      <trkpt lat="43.76027" lon="7.16276">
        <ele>516</ele>
        <time>2010-09-04T10:29:11Z</time>
      </trkpt>
      <trkpt lat="43.76025" lon="7.1628">
        <ele>515</ele>
        <time>2010-09-04T10:29:17Z</time>
      </trkpt>
      <trkpt lat="43.76021" lon="7.16279">
        <ele>515</ele>
        <time>2010-09-04T10:29:23Z</time>
      </trkpt>
      <trkpt lat="43.7601" lon="7.16272">
        <ele>515</ele>
        <time>2010-09-04T10:29:29Z</time>
      </trkpt>
      <trkpt lat="43.75995" lon="7.16267">
        <ele>505</ele>
        <time>2010-09-04T10:29:34Z</time>
      </trkpt>
      <trkpt lat="43.75976" lon="7.16261">
        <ele>501</ele>
        <time>2010-09-04T10:29:40Z</time>
      </trkpt>
      <trkpt lat="43.75967" lon="7.1626">
        <ele>499</ele>
        <time>2010-09-04T10:29:43Z</time>
      </trkpt>
      <trkpt lat="43.75973" lon="7.16272">
        <ele>499</ele>
        <time>2010-09-04T10:29:48Z</time>
      </trkpt>
      <trkpt lat="43.75975" lon="7.16275">
        <ele>498</ele>
        <time>2010-09-04T10:29:49Z</time>
      </trkpt>
      <trkpt lat="43.75978" lon="7.16279">
        <ele>498</ele>
        <time>2010-09-04T10:29:54Z</time>
      </trkpt>
      <trkpt lat="43.75978" lon="7.16279">
        <ele>498</ele>
        <time>2010-09-04T10:29:59Z</time>
      </trkpt>
      <trkpt lat="43.75976" lon="7.16282">
        <ele>497</ele>
        <time>2010-09-04T10:30:04Z</time>
      </trkpt>
      <trkpt lat="43.75974" lon="7.1628">
        <ele>497</ele>
        <time>2010-09-04T10:30:06Z</time>
      </trkpt>
      <trkpt lat="43.75971" lon="7.16284">
        <ele>496</ele>
        <time>2010-09-04T10:30:10Z</time>
      </trkpt>
      <trkpt lat="43.75975" lon="7.1629">
        <ele>496</ele>
        <time>2010-09-04T10:30:15Z</time>
      </trkpt>
      <trkpt lat="43.75975" lon="7.16293">
        <ele>495</ele>
        <time>2010-09-04T10:30:19Z</time>
      </trkpt>
      <trkpt lat="43.75976" lon="7.16292">
        <ele>495</ele>
        <time>2010-09-04T10:30:25Z</time>
      </trkpt>
      <trkpt lat="43.75975" lon="7.16292">
        <ele>495</ele>
        <time>2010-09-04T10:30:28Z</time>
      </trkpt>
      <trkpt lat="43.75963" lon="7.16296">
        <ele>493</ele>
        <time>2010-09-04T10:30:33Z</time>
      </trkpt>
      <trkpt lat="43.75949" lon="7.16297">
        <ele>491</ele>
        <time>2010-09-04T10:30:38Z</time>
      </trkpt>
      <trkpt lat="43.75943" lon="7.16299">
        <ele>490</ele>
        <time>2010-09-04T10:30:42Z</time>
      </trkpt>
      <trkpt lat="43.75942" lon="7.163">
        <ele>490</ele>
        <time>2010-09-04T10:30:47Z</time>
      </trkpt>
      <trkpt lat="43.75944" lon="7.16306">
        <ele>489</ele>
        <time>2010-09-04T10:30:50Z</time>
      </trkpt>
      <trkpt lat="43.75949" lon="7.16319">
        <ele>488</ele>
        <time>2010-09-04T10:30:55Z</time>
      </trkpt>
      <trkpt lat="43.75946" lon="7.16323">
        <ele>487</ele>
        <time>2010-09-04T10:30:58Z</time>
      </trkpt>
      <trkpt lat="43.75936" lon="7.16323">
        <ele>484</ele>
        <time>2010-09-04T10:31:03Z</time>
      </trkpt>
      <trkpt lat="43.75934" lon="7.16324">
        <ele>483</ele>
        <time>2010-09-04T10:31:10Z</time>
      </trkpt>
      <trkpt lat="43.75932" lon="7.16328">
        <ele>481</ele>
        <time>2010-09-04T10:31:15Z</time>
      </trkpt>
      <trkpt lat="43.75932" lon="7.1633">
        <ele>481</ele>
        <time>2010-09-04T10:31:21Z</time>
      </trkpt>
      <trkpt lat="43.75931" lon="7.1633">
        <ele>481</ele>
        <time>2010-09-04T10:31:28Z</time>
      </trkpt>
      <trkpt lat="43.75931" lon="7.1633">
        <ele>481</ele>
        <time>2010-09-04T10:31:34Z</time>
      </trkpt>
      <trkpt lat="43.75931" lon="7.16331">
        <ele>481</ele>
        <time>2010-09-04T10:31:42Z</time>
      </trkpt>
      <trkpt lat="43.7593" lon="7.16328">
        <ele>481</ele>
        <time>2010-09-04T10:31:46Z</time>
      </trkpt>
      <trkpt lat="43.75932" lon="7.16324">
        <ele>482</ele>
        <time>2010-09-04T10:31:51Z</time>
      </trkpt>
      <trkpt lat="43.75932" lon="7.16322">
        <ele>483</ele>
        <time>2010-09-04T10:31:56Z</time>
      </trkpt>
      <trkpt lat="43.75931" lon="7.16321">
        <ele>483</ele>
        <time>2010-09-04T10:32:03Z</time>
      </trkpt>
      <trkpt lat="43.75922" lon="7.1631">
        <ele>485</ele>
        <time>2010-09-04T10:32:09Z</time>
      </trkpt>
      <trkpt lat="43.75913" lon="7.16297">
        <ele>475</ele>
        <time>2010-09-04T10:32:14Z</time>
      </trkpt>
      <trkpt lat="43.75904" lon="7.16286">
        <ele>476</ele>
        <time>2010-09-04T10:32:19Z</time>
      </trkpt>
      <trkpt lat="43.75903" lon="7.16285">
        <ele>477</ele>
        <time>2010-09-04T10:32:20Z</time>
      </trkpt>
      <trkpt lat="43.75901" lon="7.16283">
        <ele>477</ele>
        <time>2010-09-04T10:32:25Z</time>
      </trkpt>
      <trkpt lat="43.75899" lon="7.16279">
        <ele>477</ele>
        <time>2010-09-04T10:32:32Z</time>
      </trkpt>
      <trkpt lat="43.75898" lon="7.16278">
        <ele>477</ele>
        <time>2010-09-04T10:32:37Z</time>
      </trkpt>
      <trkpt lat="43.75895" lon="7.16275">
        <ele>478</ele>
        <time>2010-09-04T10:32:42Z</time>
      </trkpt>
      <trkpt lat="43.75893" lon="7.16272">
        <ele>478</ele>
        <time>2010-09-04T10:32:47Z</time>
      </trkpt>
      <trkpt lat="43.75883" lon="7.16262">
        <ele>477</ele>
        <time>2010-09-04T10:32:52Z</time>
      </trkpt>
      <trkpt lat="43.75877" lon="7.16254">
        <ele>476</ele>
        <time>2010-09-04T10:32:56Z</time>
      </trkpt>
      <trkpt lat="43.75866" lon="7.16239">
        <ele>490</ele>
        <time>2010-09-04T10:33:02Z</time>
      </trkpt>
      <trkpt lat="43.75858" lon="7.16225">
        <ele>490</ele>
        <time>2010-09-04T10:33:08Z</time>
      </trkpt>
      <trkpt lat="43.75849" lon="7.16212">
        <ele>492</ele>
        <time>2010-09-04T10:33:15Z</time>
      </trkpt>
      <trkpt lat="43.75839" lon="7.16198">
        <ele>494</ele>
        <time>2010-09-04T10:33:23Z</time>
      </trkpt>
      <trkpt lat="43.75827" lon="7.16184">
        <ele>485</ele>
        <time>2010-09-04T10:33:31Z</time>
      </trkpt>
      <trkpt lat="43.75817" lon="7.16172">
        <ele>486</ele>
        <time>2010-09-04T10:33:38Z</time>
      </trkpt>
      <trkpt lat="43.75804" lon="7.16158">
        <ele>497</ele>
        <time>2010-09-04T10:33:46Z</time>
      </trkpt>
      <trkpt lat="43.75789" lon="7.16144">
        <ele>496</ele>
        <time>2010-09-04T10:33:54Z</time>
      </trkpt>
      <trkpt lat="43.75774" lon="7.1613">
        <ele>496</ele>
        <time>2010-09-04T10:34:01Z</time>
      </trkpt>
      <trkpt lat="43.75768" lon="7.16122">
        <ele>496</ele>
        <time>2010-09-04T10:34:06Z</time>
      </trkpt>
      <trkpt lat="43.75763" lon="7.16117">
        <ele>497</ele>
        <time>2010-09-04T10:34:11Z</time>
      </trkpt>
      <trkpt lat="43.75762" lon="7.16116">
        <ele>497</ele>
        <time>2010-09-04T10:34:12Z</time>
      </trkpt>
      <trkpt lat="43.75763" lon="7.16116">
        <ele>497</ele>
        <time>2010-09-04T10:34:19Z</time>
      </trkpt>
      <trkpt lat="43.75761" lon="7.16114">
        <ele>497</ele>
        <time>2010-09-04T10:34:26Z</time>
      </trkpt>
      <trkpt lat="43.75756" lon="7.16108">
        <ele>497</ele>
        <time>2010-09-04T10:34:30Z</time>
      </trkpt>
      <trkpt lat="43.75755" lon="7.16108">
        <ele>497</ele>
        <time>2010-09-04T10:34:39Z</time>
      </trkpt>
      <trkpt lat="43.75751" lon="7.16105">
        <ele>497</ele>
        <time>2010-09-04T10:34:58Z</time>
      </trkpt>
      <trkpt lat="43.75743" lon="7.16095">
        <ele>488</ele>
        <time>2010-09-04T10:35:04Z</time>
      </trkpt>
      <trkpt lat="43.75744" lon="7.16094">
        <ele>488</ele>
        <time>2010-09-04T10:35:11Z</time>
      </trkpt>
      <trkpt lat="43.75743" lon="7.16095">
        <ele>487</ele>
        <time>2010-09-04T10:35:23Z</time>
      </trkpt>
      <trkpt lat="43.75743" lon="7.16094">
        <ele>487</ele>
        <time>2010-09-04T10:35:37Z</time>
      </trkpt>
      <trkpt lat="43.7574" lon="7.1609">
        <ele>488</ele>
        <time>2010-09-04T10:35:41Z</time>
      </trkpt>
      <trkpt lat="43.75727" lon="7.16076">
        <ele>496</ele>
        <time>2010-09-04T10:35:48Z</time>
      </trkpt>
      <trkpt lat="43.7571" lon="7.16065">
        <ele>494</ele>
        <time>2010-09-04T10:35:52Z</time>
      </trkpt>
      <trkpt lat="43.75691" lon="7.16053">
        <ele>491</ele>
        <time>2010-09-04T10:35:55Z</time>
      </trkpt>
      <trkpt lat="43.75661" lon="7.16024">
        <ele>476</ele>
        <time>2010-09-04T10:36:00Z</time>
      </trkpt>
      <trkpt lat="43.75655" lon="7.16018">
        <ele>476</ele>
        <time>2010-09-04T10:36:01Z</time>
      </trkpt>
      <trkpt lat="43.75635" lon="7.16007">
        <ele>472</ele>
        <time>2010-09-04T10:36:04Z</time>
      </trkpt>
      <trkpt lat="43.756" lon="7.15975">
        <ele>476</ele>
        <time>2010-09-04T10:36:09Z</time>
      </trkpt>
      <trkpt lat="43.75579" lon="7.15947">
        <ele>456</ele>
        <time>2010-09-04T10:36:13Z</time>
      </trkpt>
      <trkpt lat="43.75567" lon="7.15911">
        <ele>466</ele>
        <time>2010-09-04T10:36:17Z</time>
      </trkpt>
      <trkpt lat="43.75566" lon="7.15898">
        <ele>466</ele>
        <time>2010-09-04T10:36:18Z</time>
      </trkpt>
      <trkpt lat="43.75563" lon="7.15861">
        <ele>469</ele>
        <time>2010-09-04T10:36:21Z</time>
      </trkpt>
      <trkpt lat="43.75562" lon="7.15838">
        <ele>472</ele>
        <time>2010-09-04T10:36:23Z</time>
      </trkpt>
      <trkpt lat="43.75553" lon="7.15821">
        <ele>481</ele>
        <time>2010-09-04T10:36:26Z</time>
      </trkpt>
      <trkpt lat="43.75542" lon="7.15833">
        <ele>480</ele>
        <time>2010-09-04T10:36:29Z</time>
      </trkpt>
      <trkpt lat="43.75539" lon="7.15851">
        <ele>467</ele>
        <time>2010-09-04T10:36:32Z</time>
      </trkpt>
      <trkpt lat="43.7554" lon="7.15857">
        <ele>466</ele>
        <time>2010-09-04T10:36:33Z</time>
      </trkpt>
      <trkpt lat="43.75539" lon="7.15898">
        <ele>462</ele>
        <time>2010-09-04T10:36:38Z</time>
      </trkpt>
      <trkpt lat="43.75532" lon="7.15912">
        <ele>459</ele>
        <time>2010-09-04T10:36:40Z</time>
      </trkpt>
      <trkpt lat="43.75511" lon="7.15944">
        <ele>445</ele>
        <time>2010-09-04T10:36:45Z</time>
      </trkpt>
      <trkpt lat="43.75501" lon="7.15956">
        <ele>443</ele>
        <time>2010-09-04T10:36:47Z</time>
      </trkpt>
      <trkpt lat="43.75491" lon="7.15964">
        <ele>426</ele>
        <time>2010-09-04T10:36:49Z</time>
      </trkpt>
      <trkpt lat="43.7548" lon="7.15978">
        <ele>424</ele>
        <time>2010-09-04T10:36:54Z</time>
      </trkpt>
      <trkpt lat="43.75479" lon="7.1598">
        <ele>424</ele>
        <time>2010-09-04T10:36:55Z</time>
      </trkpt>
      <trkpt lat="43.7548" lon="7.15986">
        <ele>424</ele>
        <time>2010-09-04T10:37:02Z</time>
      </trkpt>
      <trkpt lat="43.75479" lon="7.1599">
        <ele>424</ele>
        <time>2010-09-04T10:37:11Z</time>
      </trkpt>
      <trkpt lat="43.75478" lon="7.15991">
        <ele>424</ele>
        <time>2010-09-04T10:37:17Z</time>
      </trkpt>
      <trkpt lat="43.75477" lon="7.15992">
        <ele>424</ele>
        <time>2010-09-04T10:37:20Z</time>
      </trkpt>
      <trkpt lat="43.75467" lon="7.16003">
        <ele>412</ele>
        <time>2010-09-04T10:37:24Z</time>
      </trkpt>
      <trkpt lat="43.75457" lon="7.16017">
        <ele>409</ele>
        <time>2010-09-04T10:37:29Z</time>
      </trkpt>
      <trkpt lat="43.75448" lon="7.16029">
        <ele>407</ele>
        <time>2010-09-04T10:37:33Z</time>
      </trkpt>
      <trkpt lat="43.75439" lon="7.16052">
        <ele>404</ele>
        <time>2010-09-04T10:37:37Z</time>
      </trkpt>
      <trkpt lat="43.75433" lon="7.16065">
        <ele>402</ele>
        <time>2010-09-04T10:37:39Z</time>
      </trkpt>
      <trkpt lat="43.75419" lon="7.16084">
        <ele>391</ele>
        <time>2010-09-04T10:37:42Z</time>
      </trkpt>
      <trkpt lat="43.75408" lon="7.16121">
        <ele>382</ele>
        <time>2010-09-04T10:37:46Z</time>
      </trkpt>
      <trkpt lat="43.754" lon="7.16152">
        <ele>380</ele>
        <time>2010-09-04T10:37:50Z</time>
      </trkpt>
      <trkpt lat="43.75398" lon="7.16159">
        <ele>379</ele>
        <time>2010-09-04T10:37:52Z</time>
      </trkpt>
      <trkpt lat="43.75404" lon="7.16171">
        <ele>375</ele>
        <time>2010-09-04T10:37:56Z</time>
      </trkpt>
      <trkpt lat="43.75417" lon="7.16186">
        <ele>381</ele>
        <time>2010-09-04T10:38:01Z</time>
      </trkpt>
      <trkpt lat="43.75432" lon="7.16211">
        <ele>380</ele>
        <time>2010-09-04T10:38:07Z</time>
      </trkpt>
      <trkpt lat="43.7545" lon="7.16245">
        <ele>380</ele>
        <time>2010-09-04T10:38:15Z</time>
      </trkpt>
      <trkpt lat="43.75469" lon="7.16279">
        <ele>376</ele>
        <time>2010-09-04T10:38:23Z</time>
      </trkpt>
      <trkpt lat="43.75489" lon="7.16316">
        <ele>377</ele>
        <time>2010-09-04T10:38:31Z</time>
      </trkpt>
      <trkpt lat="43.75507" lon="7.16333">
        <ele>381</ele>
        <time>2010-09-04T10:38:36Z</time>
      </trkpt>
      <trkpt lat="43.75543" lon="7.16363">
        <ele>381</ele>
        <time>2010-09-04T10:38:46Z</time>
      </trkpt>
      <trkpt lat="43.75566" lon="7.16382">
        <ele>381</ele>
        <time>2010-09-04T10:38:52Z</time>
      </trkpt>
      <trkpt lat="43.75575" lon="7.16386">
        <ele>381</ele>
        <time>2010-09-04T10:38:54Z</time>
      </trkpt>
      <trkpt lat="43.7559" lon="7.16397">
        <ele>388</ele>
        <time>2010-09-04T10:38:58Z</time>
      </trkpt>
      <trkpt lat="43.75611" lon="7.16427">
        <ele>384</ele>
        <time>2010-09-04T10:39:05Z</time>
      </trkpt>
      <trkpt lat="43.75626" lon="7.1645">
        <ele>384</ele>
        <time>2010-09-04T10:39:10Z</time>
      </trkpt>
      <trkpt lat="43.75645" lon="7.16466">
        <ele>385</ele>
        <time>2010-09-04T10:39:16Z</time>
      </trkpt>
      <trkpt lat="43.75661" lon="7.16479">
        <ele>386</ele>
        <time>2010-09-04T10:39:22Z</time>
      </trkpt>
      <trkpt lat="43.75674" lon="7.16489">
        <ele>392</ele>
        <time>2010-09-04T10:39:27Z</time>
      </trkpt>
      <trkpt lat="43.75691" lon="7.16507">
        <ele>390</ele>
        <time>2010-09-04T10:39:34Z</time>
      </trkpt>
      <trkpt lat="43.75712" lon="7.16529">
        <ele>391</ele>
        <time>2010-09-04T10:39:42Z</time>
      </trkpt>
      <trkpt lat="43.75736" lon="7.1655">
        <ele>392</ele>
        <time>2010-09-04T10:39:51Z</time>
      </trkpt>
      <trkpt lat="43.75759" lon="7.16568">
        <ele>400</ele>
        <time>2010-09-04T10:40:00Z</time>
      </trkpt>
      <trkpt lat="43.75776" lon="7.16579">
        <ele>402</ele>
        <time>2010-09-04T10:40:06Z</time>
      </trkpt>
      <trkpt lat="43.75789" lon="7.16589">
        <ele>396</ele>
        <time>2010-09-04T10:40:11Z</time>
      </trkpt>
      <trkpt lat="43.75809" lon="7.16604">
        <ele>398</ele>
        <time>2010-09-04T10:40:18Z</time>
      </trkpt>
      <trkpt lat="43.75828" lon="7.16615">
        <ele>398</ele>
        <time>2010-09-04T10:40:25Z</time>
      </trkpt>
      <trkpt lat="43.75852" lon="7.1662">
        <ele>404</ele>
        <time>2010-09-04T10:40:32Z</time>
      </trkpt>
      <trkpt lat="43.75877" lon="7.16622">
        <ele>404</ele>
        <time>2010-09-04T10:40:39Z</time>
      </trkpt>
      <trkpt lat="43.75899" lon="7.1662">
        <ele>405</ele>
        <time>2010-09-04T10:40:44Z</time>
      </trkpt>
      <trkpt lat="43.7592" lon="7.16626">
        <ele>413</ele>
        <time>2010-09-04T10:40:49Z</time>
      </trkpt>
      <trkpt lat="43.75936" lon="7.16637">
        <ele>412</ele>
        <time>2010-09-04T10:40:53Z</time>
      </trkpt>
      <trkpt lat="43.75966" lon="7.16674">
        <ele>405</ele>
        <time>2010-09-04T10:41:02Z</time>
      </trkpt>
      <trkpt lat="43.75982" lon="7.1671">
        <ele>404</ele>
        <time>2010-09-04T10:41:09Z</time>
      </trkpt>
      <trkpt lat="43.75993" lon="7.16735">
        <ele>404</ele>
        <time>2010-09-04T10:41:14Z</time>
      </trkpt>
      <trkpt lat="43.76011" lon="7.16753">
        <ele>406</ele>
        <time>2010-09-04T10:41:19Z</time>
      </trkpt>
      <trkpt lat="43.76022" lon="7.16761">
        <ele>407</ele>
        <time>2010-09-04T10:41:22Z</time>
      </trkpt>
      <trkpt lat="43.76037" lon="7.16772">
        <ele>409</ele>
        <time>2010-09-04T10:41:26Z</time>
      </trkpt>
      <trkpt lat="43.76044" lon="7.16779">
        <ele>409</ele>
        <time>2010-09-04T10:41:28Z</time>
      </trkpt>
      <trkpt lat="43.76052" lon="7.16793">
        <ele>409</ele>
        <time>2010-09-04T10:41:31Z</time>
      </trkpt>
      <trkpt lat="43.76064" lon="7.1681">
        <ele>408</ele>
        <time>2010-09-04T10:41:35Z</time>
      </trkpt>
      <trkpt lat="43.76079" lon="7.16822">
        <ele>408</ele>
        <time>2010-09-04T10:41:39Z</time>
      </trkpt>
      <trkpt lat="43.76091" lon="7.16826">
        <ele>416</ele>
        <time>2010-09-04T10:41:42Z</time>
      </trkpt>
      <trkpt lat="43.76099" lon="7.16829">
        <ele>419</ele>
        <time>2010-09-04T10:41:44Z</time>
      </trkpt>
      <trkpt lat="43.7612" lon="7.16846">
        <ele>409</ele>
        <time>2010-09-04T10:41:50Z</time>
      </trkpt>
      <trkpt lat="43.76154" lon="7.16868">
        <ele>411</ele>
        <time>2010-09-04T10:41:59Z</time>
      </trkpt>
      <trkpt lat="43.76158" lon="7.16872">
        <ele>410</ele>
        <time>2010-09-04T10:42:00Z</time>
      </trkpt>
      <trkpt lat="43.76172" lon="7.16881">
        <ele>418</ele>
        <time>2010-09-04T10:42:03Z</time>
      </trkpt>
      <trkpt lat="43.76196" lon="7.16893">
        <ele>417</ele>
        <time>2010-09-04T10:42:08Z</time>
      </trkpt>
      <trkpt lat="43.76231" lon="7.16899">
        <ele>418</ele>
        <time>2010-09-04T10:42:15Z</time>
      </trkpt>
      <trkpt lat="43.76257" lon="7.16906">
        <ele>419</ele>
        <time>2010-09-04T10:42:21Z</time>
      </trkpt>
      <trkpt lat="43.76261" lon="7.16909">
        <ele>419</ele>
        <time>2010-09-04T10:42:22Z</time>
      </trkpt>
      <trkpt lat="43.7628" lon="7.16914">
        <ele>423</ele>
        <time>2010-09-04T10:42:26Z</time>
      </trkpt>
      <trkpt lat="43.76318" lon="7.16918">
        <ele>406</ele>
        <time>2010-09-04T10:42:34Z</time>
      </trkpt>
      <trkpt lat="43.76345" lon="7.16913">
        <ele>421</ele>
        <time>2010-09-04T10:42:40Z</time>
      </trkpt>
      <trkpt lat="43.76351" lon="7.16912">
        <ele>422</ele>
        <time>2010-09-04T10:42:41Z</time>
      </trkpt>
      <trkpt lat="43.76368" lon="7.16912">
        <ele>423</ele>
        <time>2010-09-04T10:42:44Z</time>
      </trkpt>
      <trkpt lat="43.76389" lon="7.16918">
        <ele>400</ele>
        <time>2010-09-04T10:42:48Z</time>
      </trkpt>
      <trkpt lat="43.76428" lon="7.16912">
        <ele>412</ele>
        <time>2010-09-04T10:42:53Z</time>
      </trkpt>
      <trkpt lat="43.76457" lon="7.16901">
        <ele>413</ele>
        <time>2010-09-04T10:42:57Z</time>
      </trkpt>
      <trkpt lat="43.76497" lon="7.16889">
        <ele>410</ele>
        <time>2010-09-04T10:43:02Z</time>
      </trkpt>
      <trkpt lat="43.76527" lon="7.16873">
        <ele>407</ele>
        <time>2010-09-04T10:43:06Z</time>
      </trkpt>
      <trkpt lat="43.7655" lon="7.16877">
        <ele>405</ele>
        <time>2010-09-04T10:43:09Z</time>
      </trkpt>
      <trkpt lat="43.7659" lon="7.16885">
        <ele>400</ele>
        <time>2010-09-04T10:43:14Z</time>
      </trkpt>
      <trkpt lat="43.76599" lon="7.16883">
        <ele>400</ele>
        <time>2010-09-04T10:43:15Z</time>
      </trkpt>
      <trkpt lat="43.76636" lon="7.16877">
        <ele>401</ele>
        <time>2010-09-04T10:43:19Z</time>
      </trkpt>
      <trkpt lat="43.76691" lon="7.16873">
        <ele>400</ele>
        <time>2010-09-04T10:43:25Z</time>
      </trkpt>
      <trkpt lat="43.7674" lon="7.16878">
        <ele>399</ele>
        <time>2010-09-04T10:43:31Z</time>
      </trkpt>
      <trkpt lat="43.76771" lon="7.16885">
        <ele>400</ele>
        <time>2010-09-04T10:43:35Z</time>
      </trkpt>
      <trkpt lat="43.76794" lon="7.16898">
        <ele>400</ele>
        <time>2010-09-04T10:43:39Z</time>
      </trkpt>
      <trkpt lat="43.7681" lon="7.16914">
        <ele>398</ele>
        <time>2010-09-04T10:43:42Z</time>
      </trkpt>
      <trkpt lat="43.76837" lon="7.16927">
        <ele>390</ele>
        <time>2010-09-04T10:43:46Z</time>
      </trkpt>
      <trkpt lat="43.76874" lon="7.16921">
        <ele>386</ele>
        <time>2010-09-04T10:43:51Z</time>
      </trkpt>
      <trkpt lat="43.76887" lon="7.16905">
        <ele>399</ele>
        <time>2010-09-04T10:43:53Z</time>
      </trkpt>
      <trkpt lat="43.76897" lon="7.1688">
        <ele>402</ele>
        <time>2010-09-04T10:43:56Z</time>
      </trkpt>
      <trkpt lat="43.76916" lon="7.16877">
        <ele>402</ele>
        <time>2010-09-04T10:44:00Z</time>
      </trkpt>
      <trkpt lat="43.76929" lon="7.16903">
        <ele>398</ele>
        <time>2010-09-04T10:44:03Z</time>
      </trkpt>
      <trkpt lat="43.76932" lon="7.16914">
        <ele>397</ele>
        <time>2010-09-04T10:44:04Z</time>
      </trkpt>
      <trkpt lat="43.76952" lon="7.16958">
        <ele>385</ele>
        <time>2010-09-04T10:44:09Z</time>
      </trkpt>
      <trkpt lat="43.76975" lon="7.16964">
        <ele>386</ele>
        <time>2010-09-04T10:44:12Z</time>
      </trkpt>
      <trkpt lat="43.76997" lon="7.16971">
        <ele>385</ele>
        <time>2010-09-04T10:44:15Z</time>
      </trkpt>
      <trkpt lat="43.77006" lon="7.16986">
        <ele>388</ele>
        <time>2010-09-04T10:44:17Z</time>
      </trkpt>
      <trkpt lat="43.77035" lon="7.17008">
        <ele>380</ele>
        <time>2010-09-04T10:44:22Z</time>
      </trkpt>
      <trkpt lat="43.7704" lon="7.1701">
        <ele>381</ele>
        <time>2010-09-04T10:44:23Z</time>
      </trkpt>
      <trkpt lat="43.77066" lon="7.17028">
        <ele>382</ele>
        <time>2010-09-04T10:44:27Z</time>
      </trkpt>
      <trkpt lat="43.77078" lon="7.1704">
        <ele>380</ele>
        <time>2010-09-04T10:44:29Z</time>
      </trkpt>
      <trkpt lat="43.77104" lon="7.17057">
        <ele>383</ele>
        <time>2010-09-04T10:44:33Z</time>
      </trkpt>
      <trkpt lat="43.77132" lon="7.17065">
        <ele>383</ele>
        <time>2010-09-04T10:44:37Z</time>
      </trkpt>
      <trkpt lat="43.77172" lon="7.17065">
        <ele>386</ele>
        <time>2010-09-04T10:44:42Z</time>
      </trkpt>
      <trkpt lat="43.77204" lon="7.17062">
        <ele>389</ele>
        <time>2010-09-04T10:44:47Z</time>
      </trkpt>
      <trkpt lat="43.77211" lon="7.17041">
        <ele>391</ele>
        <time>2010-09-04T10:44:50Z</time>
      </trkpt>
      <trkpt lat="43.77215" lon="7.1702">
        <ele>393</ele>
        <time>2010-09-04T10:44:53Z</time>
      </trkpt>
      <trkpt lat="43.77228" lon="7.17">
        <ele>402</ele>
        <time>2010-09-04T10:44:57Z</time>
      </trkpt>
      <trkpt lat="43.77241" lon="7.17">
        <ele>398</ele>
        <time>2010-09-04T10:45:00Z</time>
      </trkpt>
      <trkpt lat="43.77247" lon="7.17018">
        <ele>396</ele>
        <time>2010-09-04T10:45:03Z</time>
      </trkpt>
      <trkpt lat="43.77259" lon="7.17051">
        <ele>406</ele>
        <time>2010-09-04T10:45:10Z</time>
      </trkpt>
      <trkpt lat="43.77267" lon="7.17077">
        <ele>402</ele>
        <time>2010-09-04T10:45:16Z</time>
      </trkpt>
      <trkpt lat="43.7727" lon="7.17101">
        <ele>397</ele>
        <time>2010-09-04T10:45:21Z</time>
      </trkpt>
      <trkpt lat="43.77273" lon="7.17126">
        <ele>397</ele>
        <time>2010-09-04T10:45:26Z</time>
      </trkpt>
      <trkpt lat="43.77283" lon="7.17157">
        <ele>395</ele>
        <time>2010-09-04T10:45:33Z</time>
      </trkpt>
      <trkpt lat="43.77294" lon="7.17181">
        <ele>388</ele>
        <time>2010-09-04T10:45:39Z</time>
      </trkpt>
      <trkpt lat="43.77312" lon="7.17211">
        <ele>388</ele>
        <time>2010-09-04T10:45:47Z</time>
      </trkpt>
      <trkpt lat="43.77332" lon="7.17235">
        <ele>389</ele>
        <time>2010-09-04T10:45:53Z</time>
      </trkpt>
      <trkpt lat="43.77347" lon="7.17252">
        <ele>391</ele>
        <time>2010-09-04T10:45:57Z</time>
      </trkpt>
      <trkpt lat="43.77373" lon="7.17284">
        <ele>392</ele>
        <time>2010-09-04T10:46:04Z</time>
      </trkpt>
      <trkpt lat="43.77392" lon="7.17305">
        <ele>391</ele>
        <time>2010-09-04T10:46:08Z</time>
      </trkpt>
      <trkpt lat="43.77408" lon="7.17324">
        <ele>391</ele>
        <time>2010-09-04T10:46:11Z</time>
      </trkpt>
      <trkpt lat="43.77439" lon="7.17371">
        <ele>388</ele>
        <time>2010-09-04T10:46:18Z</time>
      </trkpt>
      <trkpt lat="43.77447" lon="7.17383">
        <ele>388</ele>
        <time>2010-09-04T10:46:20Z</time>
      </trkpt>
      <trkpt lat="43.77466" lon="7.17401">
        <ele>388</ele>
        <time>2010-09-04T10:46:24Z</time>
      </trkpt>
      <trkpt lat="43.77478" lon="7.17406">
        <ele>389</ele>
        <time>2010-09-04T10:46:26Z</time>
      </trkpt>
      <trkpt lat="43.775" lon="7.17411">
        <ele>392</ele>
        <time>2010-09-04T10:46:30Z</time>
      </trkpt>
      <trkpt lat="43.77521" lon="7.17426">
        <ele>390</ele>
        <time>2010-09-04T10:46:34Z</time>
      </trkpt>
      <trkpt lat="43.7753" lon="7.1744">
        <ele>390</ele>
        <time>2010-09-04T10:46:36Z</time>
      </trkpt>
      <trkpt lat="43.77542" lon="7.17459">
        <ele>389</ele>
        <time>2010-09-04T10:46:39Z</time>
      </trkpt>
      <trkpt lat="43.77561" lon="7.17478">
        <ele>390</ele>
        <time>2010-09-04T10:46:43Z</time>
      </trkpt>
      <trkpt lat="43.77601" lon="7.17498">
        <ele>398</ele>
        <time>2010-09-04T10:46:50Z</time>
      </trkpt>
      <trkpt lat="43.77606" lon="7.17501">
        <ele>393</ele>
        <time>2010-09-04T10:46:51Z</time>
      </trkpt>
      <trkpt lat="43.77622" lon="7.1752">
        <ele>394</ele>
        <time>2010-09-04T10:46:55Z</time>
      </trkpt>
      <trkpt lat="43.7764" lon="7.17547">
        <ele>393</ele>
        <time>2010-09-04T10:47:00Z</time>
      </trkpt>
      <trkpt lat="43.77653" lon="7.17558">
        <ele>392</ele>
        <time>2010-09-04T10:47:03Z</time>
      </trkpt>
      <trkpt lat="43.77692" lon="7.17572">
        <ele>396</ele>
        <time>2010-09-04T10:47:10Z</time>
      </trkpt>
      <trkpt lat="43.77741" lon="7.17576">
        <ele>394</ele>
        <time>2010-09-04T10:47:18Z</time>
      </trkpt>
      <trkpt lat="43.77776" lon="7.17576">
        <ele>399</ele>
        <time>2010-09-04T10:47:24Z</time>
      </trkpt>
      <trkpt lat="43.77793" lon="7.17578">
        <ele>400</ele>
        <time>2010-09-04T10:47:27Z</time>
      </trkpt>
      <trkpt lat="43.77838" lon="7.17585">
        <ele>394</ele>
        <time>2010-09-04T10:47:35Z</time>
      </trkpt>
      <trkpt lat="43.77873" lon="7.17593">
        <ele>392</ele>
        <time>2010-09-04T10:47:42Z</time>
      </trkpt>
      <trkpt lat="43.77912" lon="7.17602">
        <ele>395</ele>
        <time>2010-09-04T10:47:50Z</time>
      </trkpt>
      <trkpt lat="43.77926" lon="7.17604">
        <ele>397</ele>
        <time>2010-09-04T10:47:53Z</time>
      </trkpt>
      <trkpt lat="43.77944" lon="7.17607">
        <ele>396</ele>
        <time>2010-09-04T10:47:57Z</time>
      </trkpt>
      <trkpt lat="43.77952" lon="7.1761">
        <ele>396</ele>
        <time>2010-09-04T10:47:59Z</time>
      </trkpt>
      <trkpt lat="43.77989" lon="7.17617">
        <ele>396</ele>
        <time>2010-09-04T10:48:08Z</time>
      </trkpt>
      <trkpt lat="43.77997" lon="7.17619">
        <ele>396</ele>
        <time>2010-09-04T10:48:10Z</time>
      </trkpt>
      <trkpt lat="43.78018" lon="7.17618">
        <ele>393</ele>
        <time>2010-09-04T10:48:16Z</time>
      </trkpt>
      <trkpt lat="43.7802" lon="7.17616">
        <ele>393</ele>
        <time>2010-09-04T10:48:17Z</time>
      </trkpt>
      <trkpt lat="43.78023" lon="7.17594">
        <ele>394</ele>
        <time>2010-09-04T10:48:22Z</time>
      </trkpt>
      <trkpt lat="43.78017" lon="7.17551">
        <ele>393</ele>
        <time>2010-09-04T10:48:27Z</time>
      </trkpt>
      <trkpt lat="43.78016" lon="7.17513">
        <ele>395</ele>
        <time>2010-09-04T10:48:30Z</time>
      </trkpt>
      <trkpt lat="43.78027" lon="7.1746">
        <ele>396</ele>
        <time>2010-09-04T10:48:34Z</time>
      </trkpt>
      <trkpt lat="43.78033" lon="7.17449">
        <ele>396</ele>
        <time>2010-09-04T10:48:35Z</time>
      </trkpt>
      <trkpt lat="43.78044" lon="7.17428">
        <ele>394</ele>
        <time>2010-09-04T10:48:37Z</time>
      </trkpt>
      <trkpt lat="43.78071" lon="7.17405">
        <ele>396</ele>
        <time>2010-09-04T10:48:41Z</time>
      </trkpt>
      <trkpt lat="43.78112" lon="7.17377">
        <ele>390</ele>
        <time>2010-09-04T10:48:47Z</time>
      </trkpt>
      <trkpt lat="43.78142" lon="7.17352">
        <ele>392</ele>
        <time>2010-09-04T10:48:51Z</time>
      </trkpt>
      <trkpt lat="43.78181" lon="7.17321">
        <ele>401</ele>
        <time>2010-09-04T10:48:57Z</time>
      </trkpt>
      <trkpt lat="43.78193" lon="7.17314">
        <ele>403</ele>
        <time>2010-09-04T10:48:59Z</time>
      </trkpt>
      <trkpt lat="43.7821" lon="7.17303">
        <ele>403</ele>
        <time>2010-09-04T10:49:02Z</time>
      </trkpt>
      <trkpt lat="43.78237" lon="7.17305">
        <ele>401</ele>
        <time>2010-09-04T10:49:06Z</time>
      </trkpt>
      <trkpt lat="43.78243" lon="7.17309">
        <ele>400</ele>
        <time>2010-09-04T10:49:07Z</time>
      </trkpt>
      <trkpt lat="43.78279" lon="7.17347">
        <ele>391</ele>
        <time>2010-09-04T10:49:14Z</time>
      </trkpt>
      <trkpt lat="43.78305" lon="7.17375">
        <ele>391</ele>
        <time>2010-09-04T10:49:19Z</time>
      </trkpt>
      <trkpt lat="43.78328" lon="7.17398">
        <ele>389</ele>
        <time>2010-09-04T10:49:23Z</time>
      </trkpt>
      <trkpt lat="43.78372" lon="7.17435">
        <ele>385</ele>
        <time>2010-09-04T10:49:30Z</time>
      </trkpt>
      <trkpt lat="43.78413" lon="7.17466">
        <ele>383</ele>
        <time>2010-09-04T10:49:35Z</time>
      </trkpt>
      <trkpt lat="43.7846" lon="7.17492">
        <ele>387</ele>
        <time>2010-09-04T10:49:40Z</time>
      </trkpt>
      <trkpt lat="43.78505" lon="7.1751">
        <ele>383</ele>
        <time>2010-09-04T10:49:45Z</time>
      </trkpt>
      <trkpt lat="43.78541" lon="7.17523">
        <ele>384</ele>
        <time>2010-09-04T10:49:50Z</time>
      </trkpt>
      <trkpt lat="43.78573" lon="7.17536">
        <ele>386</ele>
        <time>2010-09-04T10:49:55Z</time>
      </trkpt>
      <trkpt lat="43.78578" lon="7.17563">
        <ele>384</ele>
        <time>2010-09-04T10:49:58Z</time>
      </trkpt>
      <trkpt lat="43.78584" lon="7.17626">
        <ele>388</ele>
        <time>2010-09-04T10:50:05Z</time>
      </trkpt>
      <trkpt lat="43.78597" lon="7.17659">
        <ele>384</ele>
        <time>2010-09-04T10:50:09Z</time>
      </trkpt>
      <trkpt lat="43.78632" lon="7.17708">
        <ele>379</ele>
        <time>2010-09-04T10:50:16Z</time>
      </trkpt>
      <trkpt lat="43.78674" lon="7.17765">
        <ele>377</ele>
        <time>2010-09-04T10:50:23Z</time>
      </trkpt>
      <trkpt lat="43.78717" lon="7.17826">
        <ele>378</ele>
        <time>2010-09-04T10:50:30Z</time>
      </trkpt>
      <trkpt lat="43.78723" lon="7.17836">
        <ele>370</ele>
        <time>2010-09-04T10:50:31Z</time>
      </trkpt>
      <trkpt lat="43.78735" lon="7.17883">
        <ele>367</ele>
        <time>2010-09-04T10:50:35Z</time>
      </trkpt>
      <trkpt lat="43.78738" lon="7.1796">
        <ele>357</ele>
        <time>2010-09-04T10:50:41Z</time>
      </trkpt>
      <trkpt lat="43.78744" lon="7.17996">
        <ele>361</ele>
        <time>2010-09-04T10:50:44Z</time>
      </trkpt>
      <trkpt lat="43.78763" lon="7.18044">
        <ele>371</ele>
        <time>2010-09-04T10:50:49Z</time>
      </trkpt>
      <trkpt lat="43.78781" lon="7.18079">
        <ele>371</ele>
        <time>2010-09-04T10:50:54Z</time>
      </trkpt>
      <trkpt lat="43.788" lon="7.18122">
        <ele>371</ele>
        <time>2010-09-04T10:51:01Z</time>
      </trkpt>
      <trkpt lat="43.78811" lon="7.1815">
        <ele>373</ele>
        <time>2010-09-04T10:51:07Z</time>
      </trkpt>
      <trkpt lat="43.78815" lon="7.18159">
        <ele>374</ele>
        <time>2010-09-04T10:51:09Z</time>
      </trkpt>
      <trkpt lat="43.78828" lon="7.1819">
        <ele>370</ele>
        <time>2010-09-04T10:51:15Z</time>
      </trkpt>
      <trkpt lat="43.78851" lon="7.18234">
        <ele>376</ele>
        <time>2010-09-04T10:51:23Z</time>
      </trkpt>
      <trkpt lat="43.7886" lon="7.18252">
        <ele>369</ele>
        <time>2010-09-04T10:51:26Z</time>
      </trkpt>
      <trkpt lat="43.78877" lon="7.18269">
        <ele>370</ele>
        <time>2010-09-04T10:51:30Z</time>
      </trkpt>
      <trkpt lat="43.78902" lon="7.18291">
        <ele>371</ele>
        <time>2010-09-04T10:51:35Z</time>
      </trkpt>
      <trkpt lat="43.78917" lon="7.18311">
        <ele>379</ele>
        <time>2010-09-04T10:51:38Z</time>
      </trkpt>
      <trkpt lat="43.78929" lon="7.18331">
        <ele>376</ele>
        <time>2010-09-04T10:51:41Z</time>
      </trkpt>
      <trkpt lat="43.78946" lon="7.1835">
        <ele>372</ele>
        <time>2010-09-04T10:51:45Z</time>
      </trkpt>
      <trkpt lat="43.78954" lon="7.18355">
        <ele>372</ele>
        <time>2010-09-04T10:51:47Z</time>
      </trkpt>
      <trkpt lat="43.7897" lon="7.18363">
        <ele>373</ele>
        <time>2010-09-04T10:51:51Z</time>
      </trkpt>
      <trkpt lat="43.79" lon="7.18374">
        <ele>374</ele>
        <time>2010-09-04T10:51:57Z</time>
      </trkpt>
      <trkpt lat="43.79032" lon="7.18386">
        <ele>379</ele>
        <time>2010-09-04T10:52:02Z</time>
      </trkpt>
      <trkpt lat="43.79077" lon="7.18402">
        <ele>376</ele>
        <time>2010-09-04T10:52:08Z</time>
      </trkpt>
      <trkpt lat="43.7912" lon="7.18428">
        <ele>370</ele>
        <time>2010-09-04T10:52:15Z</time>
      </trkpt>
      <trkpt lat="43.79136" lon="7.1844">
        <ele>370</ele>
        <time>2010-09-04T10:52:18Z</time>
      </trkpt>
      <trkpt lat="43.79153" lon="7.18449">
        <ele>370</ele>
        <time>2010-09-04T10:52:21Z</time>
      </trkpt>
      <trkpt lat="43.79175" lon="7.18462">
        <ele>372</ele>
        <time>2010-09-04T10:52:24Z</time>
      </trkpt>
      <trkpt lat="43.79197" lon="7.18482">
        <ele>370</ele>
        <time>2010-09-04T10:52:28Z</time>
      </trkpt>
      <trkpt lat="43.79203" lon="7.18487">
        <ele>370</ele>
        <time>2010-09-04T10:52:30Z</time>
      </trkpt>
      <trkpt lat="43.79205" lon="7.18494">
        <ele>370</ele>
        <time>2010-09-04T10:52:36Z</time>
      </trkpt>
      <trkpt lat="43.79199" lon="7.18496">
        <ele>369</ele>
        <time>2010-09-04T10:52:39Z</time>
      </trkpt>
      <trkpt lat="43.79196" lon="7.18493">
        <ele>369</ele>
        <time>2010-09-04T10:52:40Z</time>
      </trkpt>
      <trkpt lat="43.7918" lon="7.18481">
        <ele>369</ele>
        <time>2010-09-04T10:52:45Z</time>
      </trkpt>
      <trkpt lat="43.7916" lon="7.18483">
        <ele>365</ele>
        <time>2010-09-04T10:52:51Z</time>
      </trkpt>
      <trkpt lat="43.79134" lon="7.18481">
        <ele>365</ele>
        <time>2010-09-04T10:52:56Z</time>
      </trkpt>
      <trkpt lat="43.79097" lon="7.18462">
        <ele>365</ele>
        <time>2010-09-04T10:53:02Z</time>
      </trkpt>
      <trkpt lat="43.79059" lon="7.18462">
        <ele>362</ele>
        <time>2010-09-04T10:53:07Z</time>
      </trkpt>
      <trkpt lat="43.79035" lon="7.18478">
        <ele>361</ele>
        <time>2010-09-04T10:53:10Z</time>
      </trkpt>
      <trkpt lat="43.79021" lon="7.18493">
        <ele>359</ele>
        <time>2010-09-04T10:53:12Z</time>
      </trkpt>
      <trkpt lat="43.78978" lon="7.18515">
        <ele>346</ele>
        <time>2010-09-04T10:53:17Z</time>
      </trkpt>
      <trkpt lat="43.7895" lon="7.18514">
        <ele>344</ele>
        <time>2010-09-04T10:53:20Z</time>
      </trkpt>
      <trkpt lat="43.78923" lon="7.18503">
        <ele>344</ele>
        <time>2010-09-04T10:53:24Z</time>
      </trkpt>
      <trkpt lat="43.78914" lon="7.18514">
        <ele>337</ele>
        <time>2010-09-04T10:53:27Z</time>
      </trkpt>
      <trkpt lat="43.7892" lon="7.18522">
        <ele>342</ele>
        <time>2010-09-04T10:53:29Z</time>
      </trkpt>
      <trkpt lat="43.78936" lon="7.1853">
        <ele>342</ele>
        <time>2010-09-04T10:53:32Z</time>
      </trkpt>
      <trkpt lat="43.78969" lon="7.18546">
        <ele>342</ele>
        <time>2010-09-04T10:53:39Z</time>
      </trkpt>
      <trkpt lat="43.78977" lon="7.18549">
        <ele>342</ele>
        <time>2010-09-04T10:53:41Z</time>
      </trkpt>
      <trkpt lat="43.78997" lon="7.18548">
        <ele>343</ele>
        <time>2010-09-04T10:53:46Z</time>
      </trkpt>
      <trkpt lat="43.79004" lon="7.18543">
        <ele>347</ele>
        <time>2010-09-04T10:53:48Z</time>
      </trkpt>
      <trkpt lat="43.79038" lon="7.18515">
        <ele>349</ele>
        <time>2010-09-04T10:53:57Z</time>
      </trkpt>
      <trkpt lat="43.79049" lon="7.18506">
        <ele>349</ele>
        <time>2010-09-04T10:54:00Z</time>
      </trkpt>
      <trkpt lat="43.79056" lon="7.18501">
        <ele>350</ele>
        <time>2010-09-04T10:54:02Z</time>
      </trkpt>
      <trkpt lat="43.79069" lon="7.18497">
        <ele>358</ele>
        <time>2010-09-04T10:54:05Z</time>
      </trkpt>
      <trkpt lat="43.79095" lon="7.18507">
        <ele>353</ele>
        <time>2010-09-04T10:54:11Z</time>
      </trkpt>
      <trkpt lat="43.79104" lon="7.18515">
        <ele>353</ele>
        <time>2010-09-04T10:54:14Z</time>
      </trkpt>
      <trkpt lat="43.79116" lon="7.18521">
        <ele>353</ele>
        <time>2010-09-04T10:54:17Z</time>
      </trkpt>
      <trkpt lat="43.79134" lon="7.18531">
        <ele>354</ele>
        <time>2010-09-04T10:54:23Z</time>
      </trkpt>
      <trkpt lat="43.7914" lon="7.18536">
        <ele>354</ele>
        <time>2010-09-04T10:54:25Z</time>
      </trkpt>
      <trkpt lat="43.79135" lon="7.18556">
        <ele>353</ele>
        <time>2010-09-04T10:54:29Z</time>
      </trkpt>
      <trkpt lat="43.79129" lon="7.1856">
        <ele>352</ele>
        <time>2010-09-04T10:54:30Z</time>
      </trkpt>
      <trkpt lat="43.79114" lon="7.18574">
        <ele>350</ele>
        <time>2010-09-04T10:54:33Z</time>
      </trkpt>
      <trkpt lat="43.79103" lon="7.186">
        <ele>344</ele>
        <time>2010-09-04T10:54:37Z</time>
      </trkpt>
      <trkpt lat="43.79096" lon="7.1863">
        <ele>342</ele>
        <time>2010-09-04T10:54:40Z</time>
      </trkpt>
      <trkpt lat="43.79088" lon="7.18667">
        <ele>332</ele>
        <time>2010-09-04T10:54:43Z</time>
      </trkpt>
      <trkpt lat="43.7908" lon="7.18701">
        <ele>323</ele>
        <time>2010-09-04T10:54:46Z</time>
      </trkpt>
      <trkpt lat="43.79049" lon="7.18763">
        <ele>313</ele>
        <time>2010-09-04T10:54:52Z</time>
      </trkpt>
      <trkpt lat="43.79036" lon="7.18788">
        <ele>310</ele>
        <time>2010-09-04T10:54:55Z</time>
      </trkpt>
      <trkpt lat="43.79021" lon="7.18811">
        <ele>305</ele>
        <time>2010-09-04T10:54:58Z</time>
      </trkpt>
      <trkpt lat="43.79012" lon="7.1882">
        <ele>301</ele>
        <time>2010-09-04T10:55:00Z</time>
      </trkpt>
      <trkpt lat="43.79012" lon="7.1884">
        <ele>296</ele>
        <time>2010-09-04T10:55:04Z</time>
      </trkpt>
      <trkpt lat="43.79013" lon="7.18848">
        <ele>297</ele>
        <time>2010-09-04T10:55:05Z</time>
      </trkpt>
      <trkpt lat="43.7901" lon="7.18852">
        <ele>297</ele>
        <time>2010-09-04T10:55:09Z</time>
      </trkpt>
      <trkpt lat="43.78998" lon="7.18841">
        <ele>290</ele>
        <time>2010-09-04T10:55:12Z</time>
      </trkpt>
      <trkpt lat="43.78986" lon="7.18844">
        <ele>288</ele>
        <time>2010-09-04T10:55:15Z</time>
      </trkpt>
      <trkpt lat="43.78982" lon="7.18852">
        <ele>286</ele>
        <time>2010-09-04T10:55:19Z</time>
      </trkpt>
      <trkpt lat="43.78981" lon="7.18854">
        <ele>286</ele>
        <time>2010-09-04T10:55:20Z</time>
      </trkpt>
      <trkpt lat="43.78981" lon="7.18856">
        <ele>286</ele>
        <time>2010-09-04T10:55:24Z</time>
      </trkpt>
      <trkpt lat="43.78987" lon="7.18873">
        <ele>285</ele>
        <time>2010-09-04T10:55:29Z</time>
      </trkpt>
      <trkpt lat="43.78991" lon="7.18907">
        <ele>285</ele>
        <time>2010-09-04T10:55:33Z</time>
      </trkpt>
      <trkpt lat="43.78998" lon="7.18954">
        <ele>277</ele>
        <time>2010-09-04T10:55:37Z</time>
      </trkpt>
      <trkpt lat="43.79" lon="7.18964">
        <ele>275</ele>
        <time>2010-09-04T10:55:38Z</time>
      </trkpt>
      <trkpt lat="43.79015" lon="7.1899">
        <ele>277</ele>
        <time>2010-09-04T10:55:41Z</time>
      </trkpt>
      <trkpt lat="43.79033" lon="7.18999">
        <ele>280</ele>
        <time>2010-09-04T10:55:43Z</time>
      </trkpt>
      <trkpt lat="43.79104" lon="7.19023">
        <ele>276</ele>
        <time>2010-09-04T10:55:51Z</time>
      </trkpt>
      <trkpt lat="43.79113" lon="7.19026">
        <ele>276</ele>
        <time>2010-09-04T10:55:52Z</time>
      </trkpt>
      <trkpt lat="43.79128" lon="7.19035">
        <ele>277</ele>
        <time>2010-09-04T10:55:54Z</time>
      </trkpt>
      <trkpt lat="43.79154" lon="7.19052">
        <ele>277</ele>
        <time>2010-09-04T10:55:58Z</time>
      </trkpt>
      <trkpt lat="43.7918" lon="7.19081">
        <ele>284</ele>
        <time>2010-09-04T10:56:04Z</time>
      </trkpt>
      <trkpt lat="43.79202" lon="7.19116">
        <ele>278</ele>
        <time>2010-09-04T10:56:11Z</time>
      </trkpt>
      <trkpt lat="43.79221" lon="7.1915">
        <ele>277</ele>
        <time>2010-09-04T10:56:17Z</time>
      </trkpt>
      <trkpt lat="43.79243" lon="7.19188">
        <ele>271</ele>
        <time>2010-09-04T10:56:24Z</time>
      </trkpt>
      <trkpt lat="43.79249" lon="7.19212">
        <ele>268</ele>
        <time>2010-09-04T10:56:28Z</time>
      </trkpt>
      <trkpt lat="43.79239" lon="7.19235">
        <ele>265</ele>
        <time>2010-09-04T10:56:31Z</time>
      </trkpt>
      <trkpt lat="43.79233" lon="7.19251">
        <ele>262</ele>
        <time>2010-09-04T10:56:34Z</time>
      </trkpt>
      <trkpt lat="43.79232" lon="7.19258">
        <ele>262</ele>
        <time>2010-09-04T10:56:36Z</time>
      </trkpt>
      <trkpt lat="43.79227" lon="7.19279">
        <ele>261</ele>
        <time>2010-09-04T10:56:43Z</time>
      </trkpt>
      <trkpt lat="43.79225" lon="7.19284">
        <ele>261</ele>
        <time>2010-09-04T10:56:48Z</time>
      </trkpt>
      <trkpt lat="43.79222" lon="7.1929">
        <ele>261</ele>
        <time>2010-09-04T10:56:58Z</time>
      </trkpt>
      <trkpt lat="43.79212" lon="7.19306">
        <ele>261</ele>
        <time>2010-09-04T10:57:03Z</time>
      </trkpt>
      <trkpt lat="43.79202" lon="7.19321">
        <ele>262</ele>
        <time>2010-09-04T10:57:08Z</time>
      </trkpt>
      <trkpt lat="43.79196" lon="7.19329">
        <ele>262</ele>
        <time>2010-09-04T10:57:13Z</time>
      </trkpt>
      <trkpt lat="43.79186" lon="7.19343">
        <ele>259</ele>
        <time>2010-09-04T10:57:18Z</time>
      </trkpt>
      <trkpt lat="43.79166" lon="7.19367">
        <ele>260</ele>
        <time>2010-09-04T10:57:23Z</time>
      </trkpt>
      <trkpt lat="43.79153" lon="7.19384">
        <ele>258</ele>
        <time>2010-09-04T10:57:26Z</time>
      </trkpt>
      <trkpt lat="43.79121" lon="7.19423">
        <ele>248</ele>
        <time>2010-09-04T10:57:32Z</time>
      </trkpt>
      <trkpt lat="43.79108" lon="7.19436">
        <ele>248</ele>
        <time>2010-09-04T10:57:34Z</time>
      </trkpt>
      <trkpt lat="43.79081" lon="7.19443">
        <ele>243</ele>
        <time>2010-09-04T10:57:38Z</time>
      </trkpt>
      <trkpt lat="43.79065" lon="7.19427">
        <ele>244</ele>
        <time>2010-09-04T10:57:41Z</time>
      </trkpt>
      <trkpt lat="43.79059" lon="7.19421">
        <ele>243</ele>
        <time>2010-09-04T10:57:43Z</time>
      </trkpt>
      <trkpt lat="43.79052" lon="7.19442">
        <ele>239</ele>
        <time>2010-09-04T10:57:46Z</time>
      </trkpt>
      <trkpt lat="43.79052" lon="7.19464">
        <ele>237</ele>
        <time>2010-09-04T10:57:49Z</time>
      </trkpt>
      <trkpt lat="43.79043" lon="7.19472">
        <ele>236</ele>
        <time>2010-09-04T10:57:52Z</time>
      </trkpt>
      <trkpt lat="43.79013" lon="7.19496">
        <ele>232</ele>
        <time>2010-09-04T10:57:57Z</time>
      </trkpt>
      <trkpt lat="43.79014" lon="7.19503">
        <ele>228</ele>
        <time>2010-09-04T10:58:00Z</time>
      </trkpt>
      <trkpt lat="43.79017" lon="7.19502">
        <ele>228</ele>
        <time>2010-09-04T10:58:01Z</time>
      </trkpt>
      <trkpt lat="43.7903" lon="7.19496">
        <ele>234</ele>
        <time>2010-09-04T10:58:04Z</time>
      </trkpt>
      <trkpt lat="43.79051" lon="7.19499">
        <ele>236</ele>
        <time>2010-09-04T10:58:09Z</time>
      </trkpt>
      <trkpt lat="43.79055" lon="7.19498">
        <ele>236</ele>
        <time>2010-09-04T10:58:11Z</time>
      </trkpt>
      <trkpt lat="43.79068" lon="7.19507">
        <ele>231</ele>
        <time>2010-09-04T10:58:15Z</time>
      </trkpt>
      <trkpt lat="43.79086" lon="7.19525">
        <ele>228</ele>
        <time>2010-09-04T10:58:21Z</time>
      </trkpt>
      <trkpt lat="43.79098" lon="7.1953">
        <ele>226</ele>
        <time>2010-09-04T10:58:25Z</time>
      </trkpt>
      <trkpt lat="43.79117" lon="7.19531">
        <ele>225</ele>
        <time>2010-09-04T10:58:30Z</time>
      </trkpt>
      <trkpt lat="43.79139" lon="7.19522">
        <ele>226</ele>
        <time>2010-09-04T10:58:37Z</time>
      </trkpt>
      <trkpt lat="43.79153" lon="7.19509">
        <ele>228</ele>
        <time>2010-09-04T10:58:43Z</time>
      </trkpt>
      <trkpt lat="43.79162" lon="7.19504">
        <ele>230</ele>
        <time>2010-09-04T10:58:48Z</time>
      </trkpt>
      <trkpt lat="43.79175" lon="7.19495">
        <ele>233</ele>
        <time>2010-09-04T10:58:53Z</time>
      </trkpt>
      <trkpt lat="43.79185" lon="7.19485">
        <ele>234</ele>
        <time>2010-09-04T10:58:58Z</time>
      </trkpt>
      <trkpt lat="43.79192" lon="7.19482">
        <ele>234</ele>
        <time>2010-09-04T10:59:01Z</time>
      </trkpt>
      <trkpt lat="43.79202" lon="7.19486">
        <ele>234</ele>
        <time>2010-09-04T10:59:05Z</time>
      </trkpt>
      <trkpt lat="43.79205" lon="7.19496">
        <ele>233</ele>
        <time>2010-09-04T10:59:10Z</time>
      </trkpt>
      <trkpt lat="43.79207" lon="7.19516">
        <ele>224</ele>
        <time>2010-09-04T10:59:16Z</time>
      </trkpt>
      <trkpt lat="43.79206" lon="7.1952">
        <ele>224</ele>
        <time>2010-09-04T10:59:17Z</time>
      </trkpt>
      <trkpt lat="43.79199" lon="7.19543">
        <ele>222</ele>
        <time>2010-09-04T10:59:22Z</time>
      </trkpt>
      <trkpt lat="43.79191" lon="7.19577">
        <ele>219</ele>
        <time>2010-09-04T10:59:26Z</time>
      </trkpt>
      <trkpt lat="43.79181" lon="7.19646">
        <ele>206</ele>
        <time>2010-09-04T10:59:32Z</time>
      </trkpt>
      <trkpt lat="43.79176" lon="7.19673">
        <ele>198</ele>
        <time>2010-09-04T10:59:36Z</time>
      </trkpt>
      <trkpt lat="43.79173" lon="7.19686">
        <ele>197</ele>
        <time>2010-09-04T10:59:39Z</time>
      </trkpt>
      <trkpt lat="43.79169" lon="7.19717">
        <ele>194</ele>
        <time>2010-09-04T10:59:43Z</time>
      </trkpt>
      <trkpt lat="43.79177" lon="7.19754">
        <ele>188</ele>
        <time>2010-09-04T10:59:47Z</time>
      </trkpt>
      <trkpt lat="43.79199" lon="7.19781">
        <ele>182</ele>
        <time>2010-09-04T10:59:51Z</time>
      </trkpt>
      <trkpt lat="43.79204" lon="7.19801">
        <ele>181</ele>
        <time>2010-09-04T10:59:54Z</time>
      </trkpt>
      <trkpt lat="43.7919" lon="7.19818">
        <ele>181</ele>
        <time>2010-09-04T10:59:57Z</time>
      </trkpt>
      <trkpt lat="43.79177" lon="7.19812">
        <ele>182</ele>
        <time>2010-09-04T10:59:59Z</time>
      </trkpt>
      <trkpt lat="43.79158" lon="7.19787">
        <ele>183</ele>
        <time>2010-09-04T11:00:02Z</time>
      </trkpt>
      <trkpt lat="43.79135" lon="7.19754">
        <ele>182</ele>
        <time>2010-09-04T11:00:06Z</time>
      </trkpt>
      <trkpt lat="43.7912" lon="7.19721">
        <ele>189</ele>
        <time>2010-09-04T11:00:10Z</time>
      </trkpt>
      <trkpt lat="43.79119" lon="7.1971">
        <ele>190</ele>
        <time>2010-09-04T11:00:11Z</time>
      </trkpt>
      <trkpt lat="43.79106" lon="7.19682">
        <ele>191</ele>
        <time>2010-09-04T11:00:15Z</time>
      </trkpt>
      <trkpt lat="43.79099" lon="7.19684">
        <ele>191</ele>
        <time>2010-09-04T11:00:16Z</time>
      </trkpt>
      <trkpt lat="43.79082" lon="7.19708">
        <ele>191</ele>
        <time>2010-09-04T11:00:19Z</time>
      </trkpt>
      <trkpt lat="43.79073" lon="7.19748">
        <ele>182</ele>
        <time>2010-09-04T11:00:22Z</time>
      </trkpt>
      <trkpt lat="43.7906" lon="7.19797">
        <ele>178</ele>
        <time>2010-09-04T11:00:26Z</time>
      </trkpt>
      <trkpt lat="43.79051" lon="7.19822">
        <ele>177</ele>
        <time>2010-09-04T11:00:29Z</time>
      </trkpt>
      <trkpt lat="43.79049" lon="7.19856">
        <ele>167</ele>
        <time>2010-09-04T11:00:32Z</time>
      </trkpt>
      <trkpt lat="43.79038" lon="7.19904">
        <ele>163</ele>
        <time>2010-09-04T11:00:36Z</time>
      </trkpt>
      <trkpt lat="43.78993" lon="7.1993">
        <ele>155</ele>
        <time>2010-09-04T11:00:41Z</time>
      </trkpt>
      <trkpt lat="43.78983" lon="7.19931">
        <ele>154</ele>
        <time>2010-09-04T11:00:42Z</time>
      </trkpt>
      <trkpt lat="43.78956" lon="7.19931">
        <ele>152</ele>
        <time>2010-09-04T11:00:45Z</time>
      </trkpt>
      <trkpt lat="43.78916" lon="7.19934">
        <ele>153</ele>
        <time>2010-09-04T11:00:50Z</time>
      </trkpt>
      <trkpt lat="43.78876" lon="7.19925">
        <ele>150</ele>
        <time>2010-09-04T11:00:56Z</time>
      </trkpt>
      <trkpt lat="43.78864" lon="7.19923">
        <ele>149</ele>
        <time>2010-09-04T11:00:58Z</time>
      </trkpt>
      <trkpt lat="43.78847" lon="7.19932">
        <ele>148</ele>
        <time>2010-09-04T11:01:01Z</time>
      </trkpt>
      <trkpt lat="43.78846" lon="7.19943">
        <ele>147</ele>
        <time>2010-09-04T11:01:02Z</time>
      </trkpt>
      <trkpt lat="43.78838" lon="7.20019">
        <ele>134</ele>
        <time>2010-09-04T11:01:07Z</time>
      </trkpt>
      <trkpt lat="43.78822" lon="7.20134">
        <ele>128</ele>
        <time>2010-09-04T11:01:14Z</time>
      </trkpt>
      <trkpt lat="43.78815" lon="7.20207">
        <ele>125</ele>
        <time>2010-09-04T11:01:19Z</time>
      </trkpt>
      <trkpt lat="43.78813" lon="7.20227">
        <ele>124</ele>
        <time>2010-09-04T11:01:21Z</time>
      </trkpt>
      <trkpt lat="43.78801" lon="7.2024">
        <ele>124</ele>
        <time>2010-09-04T11:01:25Z</time>
      </trkpt>
      <trkpt lat="43.78792" lon="7.20238">
        <ele>124</ele>
        <time>2010-09-04T11:01:27Z</time>
      </trkpt>
      <trkpt lat="43.78768" lon="7.20233">
        <ele>125</ele>
        <time>2010-09-04T11:01:33Z</time>
      </trkpt>
      <trkpt lat="43.78741" lon="7.20238">
        <ele>124</ele>
        <time>2010-09-04T11:01:39Z</time>
      </trkpt>
      <trkpt lat="43.7872" lon="7.20246">
        <ele>124</ele>
        <time>2010-09-04T11:01:43Z</time>
      </trkpt>
      <trkpt lat="43.78698" lon="7.20242">
        <ele>124</ele>
        <time>2010-09-04T11:01:47Z</time>
      </trkpt>
      <trkpt lat="43.7869" lon="7.20221">
        <ele>124</ele>
        <time>2010-09-04T11:01:50Z</time>
      </trkpt>
      <trkpt lat="43.78678" lon="7.20205">
        <ele>124</ele>
        <time>2010-09-04T11:01:53Z</time>
      </trkpt>
      <trkpt lat="43.78662" lon="7.20203">
        <ele>122</ele>
        <time>2010-09-04T11:01:56Z</time>
      </trkpt>
      <trkpt lat="43.78618" lon="7.2021">
        <ele>122</ele>
        <time>2010-09-04T11:02:03Z</time>
      </trkpt>
      <trkpt lat="43.78612" lon="7.20211">
        <ele>122</ele>
        <time>2010-09-04T11:02:04Z</time>
      </trkpt>
      <trkpt lat="43.78589" lon="7.202">
        <ele>121</ele>
        <time>2010-09-04T11:02:08Z</time>
      </trkpt>
      <trkpt lat="43.78578" lon="7.2019">
        <ele>120</ele>
        <time>2010-09-04T11:02:10Z</time>
      </trkpt>
      <trkpt lat="43.78549" lon="7.20181">
        <ele>119</ele>
        <time>2010-09-04T11:02:15Z</time>
      </trkpt>
      <trkpt lat="43.78537" lon="7.20186">
        <ele>119</ele>
        <time>2010-09-04T11:02:17Z</time>
      </trkpt>
      <trkpt lat="43.78483" lon="7.20227">
        <ele>116</ele>
        <time>2010-09-04T11:02:26Z</time>
      </trkpt>
      <trkpt lat="43.78477" lon="7.20231">
        <ele>116</ele>
        <time>2010-09-04T11:02:27Z</time>
      </trkpt>
      <trkpt lat="43.7845" lon="7.20237">
        <ele>115</ele>
        <time>2010-09-04T11:02:31Z</time>
      </trkpt>
      <trkpt lat="43.78422" lon="7.20231">
        <ele>115</ele>
        <time>2010-09-04T11:02:35Z</time>
      </trkpt>
      <trkpt lat="43.78389" lon="7.20226">
        <ele>114</ele>
        <time>2010-09-04T11:02:40Z</time>
      </trkpt>
      <trkpt lat="43.78373" lon="7.20245">
        <ele>114</ele>
        <time>2010-09-04T11:02:43Z</time>
      </trkpt>
      <trkpt lat="43.78368" lon="7.20264">
        <ele>112</ele>
        <time>2010-09-04T11:02:45Z</time>
      </trkpt>
      <trkpt lat="43.78354" lon="7.20345">
        <ele>109</ele>
        <time>2010-09-04T11:02:53Z</time>
      </trkpt>
      <trkpt lat="43.7834" lon="7.20419">
        <ele>107</ele>
        <time>2010-09-04T11:03:00Z</time>
      </trkpt>
      <trkpt lat="43.78338" lon="7.2043">
        <ele>107</ele>
        <time>2010-09-04T11:03:01Z</time>
      </trkpt>
      <trkpt lat="43.78319" lon="7.2046">
        <ele>105</ele>
        <time>2010-09-04T11:03:05Z</time>
      </trkpt>
      <trkpt lat="43.78297" lon="7.20459">
        <ele>105</ele>
        <time>2010-09-04T11:03:08Z</time>
      </trkpt>
      <trkpt lat="43.78248" lon="7.20439">
        <ele>106</ele>
        <time>2010-09-04T11:03:16Z</time>
      </trkpt>
      <trkpt lat="43.78182" lon="7.20411">
        <ele>108</ele>
        <time>2010-09-04T11:03:28Z</time>
      </trkpt>
      <trkpt lat="43.78138" lon="7.20393">
        <ele>108</ele>
        <time>2010-09-04T11:03:37Z</time>
      </trkpt>
      <trkpt lat="43.78084" lon="7.20372">
        <ele>108</ele>
        <time>2010-09-04T11:03:48Z</time>
      </trkpt>
      <trkpt lat="43.78059" lon="7.2036">
        <ele>107</ele>
        <time>2010-09-04T11:03:53Z</time>
      </trkpt>
      <trkpt lat="43.78022" lon="7.20329">
        <ele>107</ele>
        <time>2010-09-04T11:04:01Z</time>
      </trkpt>
      <trkpt lat="43.7799" lon="7.20301">
        <ele>107</ele>
        <time>2010-09-04T11:04:08Z</time>
      </trkpt>
      <trkpt lat="43.77956" lon="7.20285">
        <ele>107</ele>
        <time>2010-09-04T11:04:15Z</time>
      </trkpt>
      <trkpt lat="43.77915" lon="7.20268">
        <ele>108</ele>
        <time>2010-09-04T11:04:23Z</time>
      </trkpt>
      <trkpt lat="43.77879" lon="7.2025">
        <ele>107</ele>
        <time>2010-09-04T11:04:31Z</time>
      </trkpt>
      <trkpt lat="43.77875" lon="7.20248">
        <ele>109</ele>
        <time>2010-09-04T11:04:32Z</time>
      </trkpt>
      <trkpt lat="43.77865" lon="7.2025">
        <ele>109</ele>
        <time>2010-09-04T11:04:36Z</time>
      </trkpt>
      <trkpt lat="43.77864" lon="7.20253">
        <ele>107</ele>
        <time>2010-09-04T11:04:37Z</time>
      </trkpt>
      <trkpt lat="43.77856" lon="7.20283">
        <ele>106</ele>
        <time>2010-09-04T11:04:43Z</time>
      </trkpt>
      <trkpt lat="43.77855" lon="7.20292">
        <ele>106</ele>
        <time>2010-09-04T11:04:45Z</time>
      </trkpt>
      <trkpt lat="43.77863" lon="7.20299">
        <ele>106</ele>
        <time>2010-09-04T11:04:49Z</time>
      </trkpt>
      <trkpt lat="43.77866" lon="7.20299">
        <ele>106</ele>
        <time>2010-09-04T11:04:50Z</time>
      </trkpt>
      <trkpt lat="43.77875" lon="7.20298">
        <ele>106</ele>
        <time>2010-09-04T11:04:53Z</time>
      </trkpt>
      <trkpt lat="43.77881" lon="7.2031">
        <ele>106</ele>
        <time>2010-09-04T11:04:57Z</time>
      </trkpt>
      <trkpt lat="43.77881" lon="7.20315">
        <ele>106</ele>
        <time>2010-09-04T11:04:58Z</time>
      </trkpt>
      <trkpt lat="43.77881" lon="7.20324">
        <ele>106</ele>
        <time>2010-09-04T11:05:00Z</time>
      </trkpt>
      <trkpt lat="43.77873" lon="7.20326">
        <ele>106</ele>
        <time>2010-09-04T11:05:04Z</time>
      </trkpt>
      <trkpt lat="43.77872" lon="7.20324">
        <ele>106</ele>
        <time>2010-09-04T11:05:05Z</time>
      </trkpt>
      <trkpt lat="43.77869" lon="7.20317">
        <ele>106</ele>
        <time>2010-09-04T11:05:10Z</time>
      </trkpt>
      <trkpt lat="43.7787" lon="7.20316">
        <ele>106</ele>
        <time>2010-09-04T11:05:20Z</time>
      </trkpt>
    </trkseg>
  </trk>
</gpx>